Time,TemperatureF,DewpointF,PressureIn,WindDirection,WindDirectionDegrees,WindSpeedMPH,WindSpeedGustMPH,Humidity,HourlyPrecipIn,Conditions,Clouds,dailyrainin,SoftwareType,DateUTC
2013-03-02 00:00:00,31.9,30.1,29.65,North,350,1.0,4.0,93,0.00,,SKC,0.00,VWS V13.01,2013-03-02 05:00:00,
2013-03-02 00:01:00,31.9,30.1,29.65,North,350,0.0,2.0,93,0.00,,SKC,0.00,VWS V13.01,2013-03-02 05:01:00,
2013-03-02 00:02:00,31.9,30.1,29.65,North,350,0.0,2.0,93,0.00,,SKC,0.00,VWS V13.01,2013-03-02 05:02:00,
2013-03-02 00:03:00,31.9,30.1,29.65,North,350,0.0,2.0,93,0.00,,SKC,0.00,VWS V13.01,2013-03-02 05:03:00,
2013-03-02 00:04:00,31.9,30.1,29.65,North,350,0.0,2.0,93,0.00,,SKC,0.00,VWS V13.01,2013-03-02 05:04:00,
2013-03-02 00:05:00,31.9,30.1,29.65,North,350,0.0,2.0,93,0.00,,SKC,0.00,VWS V13.01,2013-03-02 05:05:00,
2013-03-02 00:06:00,31.9,30.1,29.65,North,350,1.0,2.0,93,0.00,,SKC,0.00,VWS V13.01,2013-03-02 05:06:00,
2013-03-02 00:07:00,31.9,30.1,29.65,North,350,0.0,2.0,93,0.00,,SKC,0.00,VWS V13.01,2013-03-02 05:07:00,
2013-03-02 00:08:00,31.9,30.1,29.65,North,350,0.0,2.0,93,0.00,,SKC,0.00,VWS V13.01,2013-03-02 05:08:00,
2013-03-02 00:09:00,31.9,30.1,29.65,NE,51,2.0,5.0,93,0.00,,SKC,0.00,VWS V13.01,2013-03-02 05:09:00,
2013-03-02 00:10:00,31.9,30.1,29.65,NE,51,0.0,5.0,93,0.00,,SKC,0.00,VWS V13.01,2013-03-02 05:10:00,
2013-03-02 00:11:00,31.9,30.1,29.65,North,350,0.0,2.0,93,0.00,,SKC,0.00,VWS V13.01,2013-03-02 05:11:00,
2013-03-02 00:12:00,31.9,30.1,29.65,NE,51,0.0,5.0,93,0.00,,SKC,0.00,VWS V13.01,2013-03-02 05:12:00,
2013-03-02 00:13:00,31.9,30.1,29.65,NE,51,0.0,5.0,93,0.00,,SKC,0.00,VWS V13.01,2013-03-02 05:13:00,
2013-03-02 00:14:00,31.9,30.1,29.65,NE,51,0.0,5.0,93,0.00,,SKC,0.00,VWS V13.01,2013-03-02 05:14:00,
2013-03-02 00:15:00,31.9,30.1,29.65,NE,51,0.0,5.0,93,0.00,,SKC,0.00,VWS V13.01,2013-03-02 05:15:00,
2013-03-02 00:16:00,31.9,30.1,29.65,North,350,0.0,2.0,93,0.00,,SKC,0.00,VWS V13.01,2013-03-02 05:16:00,
2013-03-02 00:17:00,31.9,30.1,29.65,NE,51,0.0,5.0,93,0.00,,SKC,0.00,VWS V13.01,2013-03-02 05:17:00,
2013-03-02 00:18:00,31.9,30.1,29.65,NE,51,0.0,5.0,93,0.00,,SKC,0.00,VWS V13.01,2013-03-02 05:18:00,
2013-03-02 00:19:00,31.9,30.1,29.65,NE,51,0.0,5.0,93,0.00,,SKC,0.00,VWS V13.01,2013-03-02 05:19:00,
2013-03-02 00:20:00,31.9,30.1,29.65,NE,50,0.0,5.0,93,0.00,,SKC,0.00,VWS V13.01,2013-03-02 05:20:00,
2013-03-02 00:21:00,31.9,30.1,29.65,NE,51,0.0,5.0,93,0.00,,SKC,0.00,VWS V13.01,2013-03-02 05:21:00,
2013-03-02 00:22:00,31.9,30.1,29.65,NE,50,1.0,5.0,93,0.00,,SKC,0.00,VWS V13.01,2013-03-02 05:22:00,
2013-03-02 00:23:00,31.9,30.1,29.65,NE,50,1.0,5.0,93,0.00,,SKC,0.00,VWS V13.01,2013-03-02 05:23:00,
2013-03-02 00:24:00,31.9,30.1,29.65,NE,50,0.0,5.0,93,0.00,,SKC,0.00,VWS V13.01,2013-03-02 05:24:00,
2013-03-02 00:25:00,31.9,30.1,29.65,NE,49,0.0,5.0,93,0.00,,SKC,0.00,VWS V13.01,2013-03-02 05:25:00,
2013-03-02 00:26:00,31.9,30.1,29.65,NE,51,0.0,5.0,93,0.00,,SKC,0.00,VWS V13.01,2013-03-02 05:26:00,
2013-03-02 00:27:00,31.9,30.1,29.65,NE,40,0.0,5.0,93,0.00,,SKC,0.00,VWS V13.01,2013-03-02 05:27:00,
2013-03-02 00:28:00,31.9,30.1,29.65,NE,40,0.0,5.0,93,0.00,,SKC,0.00,VWS V13.01,2013-03-02 05:28:00,
2013-03-02 00:29:00,31.9,30.1,29.65,NE,40,0.0,5.0,93,0.00,,SKC,0.00,VWS V13.01,2013-03-02 05:29:00,
2013-03-02 00:30:00,31.9,30.1,29.65,NE,40,2.0,5.0,93,0.00,,SKC,0.00,VWS V13.01,2013-03-02 05:30:00,
2013-03-02 00:31:00,31.9,30.1,29.65,NE,49,0.0,5.0,93,0.00,,SKC,0.00,VWS V13.01,2013-03-02 05:31:00,
2013-03-02 00:32:00,31.9,30.4,29.65,NE,39,2.0,2.0,94,0.00,,SKC,0.00,VWS V13.01,2013-03-02 05:32:00,
2013-03-02 00:33:00,31.9,30.4,29.65,NE,38,1.0,2.0,94,0.00,,SKC,0.00,VWS V13.01,2013-03-02 05:33:00,
2013-03-02 00:34:00,31.9,30.4,29.65,NE,39,0.0,2.0,94,0.00,,SKC,0.00,VWS V13.01,2013-03-02 05:34:00,
2013-03-02 00:35:00,31.9,30.4,29.65,NE,42,3.0,4.0,94,0.00,,SKC,0.00,VWS V13.01,2013-03-02 05:35:00,
2013-03-02 00:36:00,31.9,30.1,29.65,NE,44,2.0,5.0,93,0.00,,SKC,0.00,VWS V13.01,2013-03-02 05:36:00,
2013-03-02 00:37:00,31.9,30.4,29.65,NE,37,3.0,4.0,94,0.00,,SKC,0.00,VWS V13.01,2013-03-02 05:37:00,
2013-03-02 00:38:00,31.9,30.4,29.65,NE,37,2.0,4.0,94,0.00,,SKC,0.00,VWS V13.01,2013-03-02 05:38:00,
2013-03-02 00:39:00,31.9,30.4,29.65,NE,37,0.0,4.0,94,0.00,,SKC,0.00,VWS V13.01,2013-03-02 05:39:00,
2013-03-02 00:40:00,31.9,30.4,29.65,NE,37,1.0,4.0,94,0.00,,SKC,0.00,VWS V13.01,2013-03-02 05:40:00,
2013-03-02 00:41:00,31.9,30.1,29.65,NE,39,0.0,2.0,93,0.00,,SKC,0.00,VWS V13.01,2013-03-02 05:41:00,
2013-03-02 00:42:00,31.9,30.4,29.65,NE,37,1.0,4.0,94,0.00,,SKC,0.00,VWS V13.01,2013-03-02 05:42:00,
2013-03-02 00:43:00,31.9,30.4,29.65,NE,37,0.0,4.0,94,0.00,,SKC,0.00,VWS V13.01,2013-03-02 05:43:00,
2013-03-02 00:44:00,31.9,30.4,29.65,NE,37,0.0,4.0,94,0.00,,SKC,0.00,VWS V13.01,2013-03-02 05:44:00,
2013-03-02 00:45:00,31.9,30.4,29.65,NE,37,0.0,4.0,94,0.00,,SKC,0.00,VWS V13.01,2013-03-02 05:45:00,
2013-03-02 00:46:00,31.9,30.4,29.65,NE,41,2.0,4.0,94,0.00,,SKC,0.00,VWS V13.01,2013-03-02 05:46:00,
2013-03-02 00:47:00,31.9,30.4,29.65,NE,37,2.0,4.0,94,0.00,,SKC,0.00,VWS V13.01,2013-03-02 05:47:00,
2013-03-02 00:48:00,31.9,30.4,29.65,NE,36,2.0,4.0,94,0.00,,SKC,0.00,VWS V13.01,2013-03-02 05:48:00,
2013-03-02 00:49:00,31.9,30.4,29.65,NE,36,0.0,4.0,94,0.00,,SKC,0.00,VWS V13.01,2013-03-02 05:49:00,
2013-03-02 00:50:00,31.9,30.4,29.65,NE,36,0.0,4.0,94,0.00,,SKC,0.00,VWS V13.01,2013-03-02 05:50:00,
2013-03-02 00:51:00,31.9,30.4,29.65,NE,37,0.0,4.0,94,0.00,,SKC,0.00,VWS V13.01,2013-03-02 05:51:00,
2013-03-02 00:52:00,31.9,30.4,29.65,NE,36,0.0,4.0,94,0.00,,SKC,0.00,VWS V13.01,2013-03-02 05:52:00,
2013-03-02 00:53:00,31.9,30.4,29.65,NE,36,2.0,4.0,94,0.00,,SKC,0.00,VWS V13.01,2013-03-02 05:53:00,
2013-03-02 00:54:00,31.9,30.4,29.65,NE,36,1.0,4.0,94,0.00,,SKC,0.00,VWS V13.01,2013-03-02 05:54:00,
2013-03-02 00:55:00,31.9,30.4,29.65,NE,36,1.0,4.0,94,0.00,,SKC,0.00,VWS V13.01,2013-03-02 05:55:00,
2013-03-02 00:56:00,31.9,30.4,29.65,NE,36,0.0,4.0,94,0.00,,SKC,0.00,VWS V13.01,2013-03-02 05:56:00,
2013-03-02 00:57:00,31.9,30.4,29.65,NE,37,0.0,4.0,94,0.00,,SKC,0.00,VWS V13.01,2013-03-02 05:57:00,
2013-03-02 00:58:00,31.8,30.3,29.65,NE,36,0.0,4.0,94,0.00,,SKC,0.00,VWS V13.01,2013-03-02 05:58:00,
2013-03-02 00:59:00,31.9,30.4,29.65,NE,36,0.0,4.0,94,0.00,,SKC,0.00,VWS V13.01,2013-03-02 05:59:00,
2013-03-02 01:00:00,31.8,30.3,29.65,NE,36,0.0,4.0,94,0.00,,SKC,0.00,VWS V13.01,2013-03-02 06:00:00,
2013-03-02 01:01:00,31.9,30.4,29.65,NE,36,0.0,0.0,94,0.00,,SKC,0.00,VWS V13.01,2013-03-02 06:01:00,
2013-03-02 01:02:00,31.9,30.4,29.65,NE,36,0.0,4.0,94,0.00,,SKC,0.00,VWS V13.01,2013-03-02 06:02:00,
2013-03-02 01:03:00,31.9,30.4,29.65,NE,36,0.0,3.0,94,0.00,,SKC,0.00,VWS V13.01,2013-03-02 06:03:00,
2013-03-02 01:04:00,31.9,30.4,29.65,NE,36,0.0,3.0,94,0.00,,SKC,0.00,VWS V13.01,2013-03-02 06:04:00,
2013-03-02 01:05:00,31.8,30.3,29.65,NE,36,0.0,3.0,94,0.00,,SKC,0.00,VWS V13.01,2013-03-02 06:05:00,
2013-03-02 01:06:00,31.8,30.3,29.65,NE,36,0.0,3.0,94,0.00,,SKC,0.00,VWS V13.01,2013-03-02 06:06:00,
2013-03-02 01:07:00,31.9,30.4,29.65,NE,36,1.0,3.0,94,0.00,,SKC,0.00,VWS V13.01,2013-03-02 06:07:00,
2013-03-02 01:08:00,31.8,30.3,29.65,NE,36,0.0,4.0,94,0.00,,SKC,0.00,VWS V13.01,2013-03-02 06:08:00,
2013-03-02 01:09:00,31.9,30.4,29.65,NE,36,1.0,3.0,94,0.00,,SKC,0.00,VWS V13.01,2013-03-02 06:09:00,
2013-03-02 01:10:00,31.9,30.4,29.65,NE,36,0.0,3.0,94,0.00,,SKC,0.00,VWS V13.01,2013-03-02 06:10:00,
2013-03-02 01:11:00,31.8,30.3,29.65,NE,36,0.0,3.0,94,0.00,,SKC,0.00,VWS V13.01,2013-03-02 06:11:00,
2013-03-02 01:12:00,31.9,30.4,29.65,NE,36,0.0,3.0,94,0.00,,SKC,0.00,VWS V13.01,2013-03-02 06:12:00,
2013-03-02 01:13:00,31.8,30.3,29.65,NE,36,0.0,3.0,94,0.00,,SKC,0.00,VWS V13.01,2013-03-02 06:13:00,
2013-03-02 01:14:00,31.8,30.3,29.65,NNE,19,2.0,3.0,94,0.00,,SKC,0.00,VWS V13.01,2013-03-02 06:14:00,
2013-03-02 01:15:00,31.8,30.3,29.65,NNE,19,1.0,3.0,94,0.00,,SKC,0.00,VWS V13.01,2013-03-02 06:15:00,
2013-03-02 01:16:00,31.8,30.3,29.65,NNE,19,0.0,3.0,94,0.00,,SKC,0.00,VWS V13.01,2013-03-02 06:16:00,
2013-03-02 01:17:00,31.8,30.3,29.65,NNE,19,0.0,3.0,94,0.00,,SKC,0.00,VWS V13.01,2013-03-02 06:17:00,
2013-03-02 01:18:00,31.8,30.3,29.65,NNE,19,0.0,3.0,94,0.00,,SKC,0.00,VWS V13.01,2013-03-02 06:18:00,
2013-03-02 01:19:00,31.9,30.4,29.65,NE,36,2.0,3.0,94,0.00,,SKC,0.00,VWS V13.01,2013-03-02 06:19:00,
2013-03-02 01:20:00,31.8,30.3,29.65,NNE,30,1.0,4.0,94,0.00,,SKC,0.00,VWS V13.01,2013-03-02 06:20:00,
2013-03-02 01:21:00,31.8,30.3,29.65,NNE,30,3.0,4.0,94,0.00,,SKC,0.00,VWS V13.01,2013-03-02 06:21:00,
2013-03-02 01:22:00,31.8,30.3,29.65,NNE,28,0.0,4.0,94,0.00,,SKC,0.00,VWS V13.01,2013-03-02 06:22:00,
2013-03-02 01:23:00,31.8,30.3,29.65,NNE,28,0.0,4.0,94,0.00,,SKC,0.00,VWS V13.01,2013-03-02 06:23:00,
2013-03-02 01:24:00,31.8,30.3,29.65,NNE,28,0.0,4.0,94,0.00,,SKC,0.00,VWS V13.01,2013-03-02 06:24:00,
2013-03-02 01:25:00,31.8,30.3,29.65,NNE,28,1.0,4.0,94,0.00,,SKC,0.00,VWS V13.01,2013-03-02 06:25:00,
2013-03-02 01:26:00,31.8,30.3,29.65,NNE,28,1.0,4.0,94,0.00,,SKC,0.00,VWS V13.01,2013-03-02 06:26:00,
2013-03-02 01:27:00,31.8,30.3,29.65,NNE,19,0.0,3.0,94,0.00,,SKC,0.00,VWS V13.01,2013-03-02 06:27:00,
2013-03-02 01:28:00,31.8,30.3,29.65,NNE,28,0.0,4.0,94,0.00,,SKC,0.00,VWS V13.01,2013-03-02 06:28:00,
2013-03-02 01:29:00,31.8,30.3,29.65,NNE,28,0.0,4.0,94,0.00,,SKC,0.00,VWS V13.01,2013-03-02 06:29:00,
2013-03-02 01:30:00,31.8,30.3,29.65,NNE,28,0.0,4.0,94,0.00,,SKC,0.00,VWS V13.01,2013-03-02 06:30:00,
2013-03-02 01:31:00,31.8,30.3,29.65,NNE,28,0.0,0.0,94,0.00,,SKC,0.00,VWS V13.01,2013-03-02 06:31:00,
2013-03-02 01:32:00,31.8,30.3,29.65,NNE,28,0.0,0.0,94,0.00,,SKC,0.00,VWS V13.01,2013-03-02 06:32:00,
2013-03-02 01:33:00,31.8,30.3,29.65,NNE,28,0.0,4.0,94,0.00,,SKC,0.00,VWS V13.01,2013-03-02 06:33:00,
2013-03-02 01:34:00,31.8,30.3,29.65,NNE,28,0.0,2.0,94,0.00,,SKC,0.00,VWS V13.01,2013-03-02 06:34:00,
2013-03-02 01:35:00,31.8,30.3,29.65,NNE,28,2.0,3.0,94,0.00,,SKC,0.00,VWS V13.01,2013-03-02 06:35:00,
2013-03-02 01:36:00,31.8,30.3,29.65,NNE,26,2.0,3.0,94,0.00,,SKC,0.00,VWS V13.01,2013-03-02 06:36:00,
2013-03-02 01:37:00,31.8,30.3,29.65,NNE,25,1.0,3.0,94,0.00,,SKC,0.00,VWS V13.01,2013-03-02 06:37:00,
2013-03-02 01:38:00,31.8,30.3,29.65,NNE,28,0.0,4.0,94,0.00,,SKC,0.00,VWS V13.01,2013-03-02 06:38:00,
2013-03-02 01:39:00,31.8,30.3,29.65,NNE,25,1.0,3.0,94,0.00,,SKC,0.00,VWS V13.01,2013-03-02 06:39:00,
2013-03-02 01:40:00,31.8,30.3,29.65,NNE,25,2.0,3.0,94,0.00,,SKC,0.00,VWS V13.01,2013-03-02 06:40:00,
2013-03-02 01:41:00,31.8,30.3,29.65,NNE,25,1.0,3.0,94,0.00,,SKC,0.00,VWS V13.01,2013-03-02 06:41:00,
2013-03-02 01:42:00,31.7,30.2,29.65,NNE,25,0.0,3.0,94,0.00,,SKC,0.00,VWS V13.01,2013-03-02 06:42:00,
2013-03-02 01:43:00,31.8,30.3,29.65,NNE,28,1.0,1.0,94,0.00,,SKC,0.00,VWS V13.01,2013-03-02 06:43:00,
2013-03-02 01:44:00,31.7,30.2,29.64,NNE,25,0.0,3.0,94,0.00,,SKC,0.00,VWS V13.01,2013-03-02 06:44:00,
2013-03-02 01:45:00,31.7,30.2,29.64,NNE,25,1.0,4.0,94,0.00,,SKC,0.00,VWS V13.01,2013-03-02 06:45:00,
2013-03-02 01:46:00,31.7,30.2,29.64,NNE,25,0.0,4.0,94,0.00,,SKC,0.00,VWS V13.01,2013-03-02 06:46:00,
2013-03-02 01:47:00,31.7,30.2,29.64,NNE,25,0.0,4.0,94,0.00,,SKC,0.00,VWS V13.01,2013-03-02 06:47:00,
2013-03-02 01:48:00,31.7,30.2,29.65,NNE,25,0.0,4.0,94,0.00,,SKC,0.00,VWS V13.01,2013-03-02 06:48:00,
2013-03-02 01:49:00,31.7,30.2,29.65,NNE,25,2.0,3.0,94,0.00,,SKC,0.00,VWS V13.01,2013-03-02 06:49:00,
2013-03-02 01:50:00,31.7,30.2,29.65,NNE,25,0.0,4.0,94,0.00,,SKC,0.00,VWS V13.01,2013-03-02 06:50:00,
2013-03-02 01:51:00,31.7,30.2,29.65,NNE,24,3.0,4.0,94,0.00,,SKC,0.00,VWS V13.01,2013-03-02 06:51:00,
2013-03-02 01:52:00,31.7,30.2,29.64,NNE,22,2.0,4.0,94,0.00,,SKC,0.00,VWS V13.01,2013-03-02 06:52:00,
2013-03-02 01:53:00,31.7,30.2,29.65,NNE,22,2.0,4.0,94,0.00,,SKC,0.00,VWS V13.01,2013-03-02 06:53:00,
2013-03-02 01:54:00,31.7,30.2,29.65,NNE,25,0.0,3.0,94,0.00,,SKC,0.00,VWS V13.01,2013-03-02 06:54:00,
2013-03-02 01:55:00,31.7,30.2,29.65,NNE,22,2.0,4.0,94,0.00,,SKC,0.00,VWS V13.01,2013-03-02 06:55:00,
2013-03-02 01:56:00,31.7,30.2,29.65,North,355,3.0,4.0,94,0.00,,SKC,0.00,VWS V13.01,2013-03-02 06:56:00,
2013-03-02 01:57:00,31.7,30.2,29.64,North,355,0.0,4.0,94,0.00,,SKC,0.00,VWS V13.01,2013-03-02 06:57:00,
2013-03-02 01:58:00,31.7,30.2,29.64,North,360,1.0,4.0,94,0.00,,SKC,0.00,VWS V13.01,2013-03-02 06:58:00,
2013-03-02 01:59:00,31.7,30.2,29.65,NNE,25,1.0,4.0,94,0.00,,SKC,0.00,VWS V13.01,2013-03-02 06:59:00,
2013-03-02 02:00:00,31.7,30.2,29.65,NNW,341,1.0,4.0,94,0.00,,SKC,0.00,VWS V13.01,2013-03-02 07:00:00,
2013-03-02 02:01:00,31.7,30.2,29.65,NNW,342,0.0,1.0,94,0.00,,SKC,0.00,VWS V13.01,2013-03-02 07:01:00,
2013-03-02 02:02:00,31.7,30.2,29.65,NNW,341,0.0,1.0,94,0.00,,SKC,0.00,VWS V13.01,2013-03-02 07:02:00,
2013-03-02 02:03:00,31.7,30.2,29.64,NNW,342,0.0,1.0,94,0.00,,SKC,0.00,VWS V13.01,2013-03-02 07:03:00,
2013-03-02 02:04:00,31.7,30.2,29.65,NNE,23,0.0,4.0,94,0.00,,SKC,0.00,VWS V13.01,2013-03-02 07:04:00,
2013-03-02 02:05:00,31.7,30.2,29.64,North,349,1.0,2.0,94,0.00,,SKC,0.00,VWS V13.01,2013-03-02 07:05:00,
2013-03-02 02:06:00,31.7,30.2,29.64,North,349,1.0,2.0,94,0.00,,SKC,0.00,VWS V13.01,2013-03-02 07:06:00,
2013-03-02 02:07:00,31.7,30.2,29.64,North,349,2.0,2.0,94,0.00,,SKC,0.00,VWS V13.01,2013-03-02 07:07:00,
2013-03-02 02:08:00,31.7,30.2,29.64,North,349,0.0,3.0,94,0.00,,SKC,0.00,VWS V13.01,2013-03-02 07:08:00,
2013-03-02 02:09:00,31.6,30.1,29.64,North,355,0.0,3.0,94,0.00,,SKC,0.00,VWS V13.01,2013-03-02 07:09:00,
2013-03-02 02:10:00,31.6,30.1,29.64,North,355,2.0,3.0,94,0.00,,SKC,0.00,VWS V13.01,2013-03-02 07:10:00,
2013-03-02 02:11:00,31.7,30.2,29.65,NNW,341,0.0,1.0,94,0.00,,SKC,0.00,VWS V13.01,2013-03-02 07:11:00,
2013-03-02 02:12:00,31.7,30.2,29.64,North,355,0.0,3.0,94,0.00,,SKC,0.00,VWS V13.01,2013-03-02 07:12:00,
2013-03-02 02:13:00,31.6,30.1,29.64,North,355,0.0,3.0,94,0.00,,SKC,0.00,VWS V13.01,2013-03-02 07:13:00,
2013-03-02 02:14:00,31.6,30.1,29.64,North,355,0.0,3.0,94,0.00,,SKC,0.00,VWS V13.01,2013-03-02 07:14:00,
2013-03-02 02:15:00,31.6,30.1,29.64,North,355,0.0,3.0,94,0.00,,SKC,0.00,VWS V13.01,2013-03-02 07:15:00,
2013-03-02 02:16:00,31.6,30.1,29.64,North,355,0.0,3.0,94,0.00,,SKC,0.00,VWS V13.01,2013-03-02 07:16:00,
2013-03-02 02:17:00,31.6,30.1,29.64,North,355,0.0,3.0,94,0.00,,SKC,0.00,VWS V13.01,2013-03-02 07:17:00,
2013-03-02 02:18:00,31.6,30.1,29.64,North,355,0.0,3.0,94,0.00,,SKC,0.00,VWS V13.01,2013-03-02 07:18:00,
2013-03-02 02:19:00,31.6,30.1,29.64,North,355,1.0,3.0,94,0.00,,SKC,0.00,VWS V13.01,2013-03-02 07:19:00,
2013-03-02 02:20:00,31.6,30.1,29.64,North,355,0.0,3.0,94,0.00,,SKC,0.00,VWS V13.01,2013-03-02 07:20:00,
2013-03-02 02:21:00,31.6,30.1,29.64,NE,37,2.0,5.0,94,0.00,,SKC,0.00,VWS V13.01,2013-03-02 07:21:00,
2013-03-02 02:22:00,31.6,30.1,29.64,NE,38,0.0,5.0,94,0.00,,SKC,0.00,VWS V13.01,2013-03-02 07:22:00,
2013-03-02 02:23:00,31.6,30.1,29.64,NE,35,3.0,5.0,94,0.00,,SKC,0.00,VWS V13.01,2013-03-02 07:23:00,
2013-03-02 02:24:00,31.6,30.1,29.64,NE,35,1.0,5.0,94,0.00,,SKC,0.00,VWS V13.01,2013-03-02 07:24:00,
2013-03-02 02:25:00,31.6,30.1,29.64,NNE,29,0.0,5.0,94,0.00,,SKC,0.00,VWS V13.01,2013-03-02 07:25:00,
2013-03-02 02:26:00,31.6,30.1,29.64,NNE,29,0.0,5.0,94,0.00,,SKC,0.00,VWS V13.01,2013-03-02 07:26:00,
2013-03-02 02:27:00,31.6,30.1,29.64,North,355,0.0,3.0,94,0.00,,SKC,0.00,VWS V13.01,2013-03-02 07:27:00,
2013-03-02 02:28:00,31.6,30.1,29.64,NNE,28,0.0,5.0,94,0.00,,SKC,0.00,VWS V13.01,2013-03-02 07:28:00,
2013-03-02 02:29:00,31.6,30.1,29.64,NNE,28,0.0,5.0,94,0.00,,SKC,0.00,VWS V13.01,2013-03-02 07:29:00,
2013-03-02 02:30:00,31.6,30.1,29.64,NNE,19,2.0,5.0,94,0.00,,SKC,0.00,VWS V13.01,2013-03-02 07:30:00,
2013-03-02 02:31:00,31.6,30.1,29.64,NNE,19,3.0,3.0,94,0.00,,SKC,0.00,VWS V13.01,2013-03-02 07:31:00,
2013-03-02 02:32:00,31.6,30.1,29.64,NE,38,0.0,5.0,94,0.00,,SKC,0.00,VWS V13.01,2013-03-02 07:32:00,
2013-03-02 02:33:00,31.6,30.1,29.64,NNE,14,0.0,4.0,94,0.00,,SKC,0.00,VWS V13.01,2013-03-02 07:33:00,
2013-03-02 02:34:00,31.6,30.1,29.64,NNE,14,0.0,4.0,94,0.00,,SKC,0.00,VWS V13.01,2013-03-02 07:34:00,
2013-03-02 02:35:00,31.6,30.1,29.64,NNE,14,0.0,4.0,94,0.00,,SKC,0.00,VWS V13.01,2013-03-02 07:35:00,
2013-03-02 02:36:00,31.6,30.1,29.64,NNE,14,0.0,4.0,94,0.00,,SKC,0.00,VWS V13.01,2013-03-02 07:36:00,
2013-03-02 02:37:00,31.6,30.1,29.64,NNE,14,0.0,4.0,94,0.00,,SKC,0.00,VWS V13.01,2013-03-02 07:37:00,
2013-03-02 02:38:00,31.6,30.1,29.64,NNE,28,0.0,5.0,94,0.00,,SKC,0.00,VWS V13.01,2013-03-02 07:38:00,
2013-03-02 02:39:00,31.6,30.1,29.64,NNE,15,0.0,4.0,94,0.00,,SKC,0.00,VWS V13.01,2013-03-02 07:39:00,
2013-03-02 02:40:00,31.6,30.1,29.64,NNE,15,0.0,4.0,94,0.00,,SKC,0.00,VWS V13.01,2013-03-02 07:40:00,
2013-03-02 02:41:00,31.6,30.1,29.64,NNE,15,0.0,4.0,94,0.00,,SKC,0.00,VWS V13.01,2013-03-02 07:41:00,
2013-03-02 02:42:00,31.6,30.1,29.64,NNE,17,3.0,4.0,94,0.00,,SKC,0.00,VWS V13.01,2013-03-02 07:42:00,
2013-03-02 02:43:00,31.6,30.1,29.64,NNE,15,1.0,4.0,94,0.00,,SKC,0.00,VWS V13.01,2013-03-02 07:43:00,
2013-03-02 02:44:00,31.5,30.0,29.64,North,360,2.0,5.0,94,0.00,,SKC,0.00,VWS V13.01,2013-03-02 07:44:00,
2013-03-02 02:45:00,31.5,30.0,29.64,North,360,1.0,5.0,94,0.00,,SKC,0.00,VWS V13.01,2013-03-02 07:45:00,
2013-03-02 02:46:00,31.5,30.0,29.64,North,360,0.0,5.0,94,0.00,,SKC,0.00,VWS V13.01,2013-03-02 07:46:00,
2013-03-02 02:47:00,31.5,30.0,29.64,North,360,0.0,5.0,94,0.00,,SKC,0.00,VWS V13.01,2013-03-02 07:47:00,
2013-03-02 02:48:00,31.6,30.1,29.64,NNE,15,0.0,4.0,94,0.00,,SKC,0.00,VWS V13.01,2013-03-02 07:48:00,
2013-03-02 02:49:00,31.5,30.0,29.64,North,360,2.0,5.0,94,0.00,,SKC,0.00,VWS V13.01,2013-03-02 07:49:00,
2013-03-02 02:50:00,31.5,30.0,29.64,North,360,0.0,5.0,94,0.00,,SKC,0.00,VWS V13.01,2013-03-02 07:50:00,
2013-03-02 02:51:00,31.5,30.0,29.64,North,355,1.0,5.0,94,0.00,,SKC,0.00,VWS V13.01,2013-03-02 07:51:00,
2013-03-02 02:52:00,31.5,30.0,29.64,North,355,0.0,5.0,94,0.00,,SKC,0.00,VWS V13.01,2013-03-02 07:52:00,
2013-03-02 02:53:00,31.5,30.0,29.64,North,355,0.0,5.0,94,0.00,,SKC,0.00,VWS V13.01,2013-03-02 07:53:00,
2013-03-02 02:54:00,31.5,30.0,29.64,North,360,2.0,5.0,94,0.00,,SKC,0.00,VWS V13.01,2013-03-02 07:54:00,
2013-03-02 02:55:00,31.5,30.0,29.64,North,355,0.0,5.0,94,0.00,,SKC,0.00,VWS V13.01,2013-03-02 07:55:00,
2013-03-02 02:56:00,31.5,30.0,29.64,North,355,1.0,5.0,94,0.00,,SKC,0.00,VWS V13.01,2013-03-02 07:56:00,
2013-03-02 02:57:00,31.5,30.0,29.64,North,355,0.0,5.0,94,0.00,,SKC,0.00,VWS V13.01,2013-03-02 07:57:00,
2013-03-02 02:58:00,31.5,30.0,29.64,North,355,0.0,5.0,94,0.00,,SKC,0.00,VWS V13.01,2013-03-02 07:58:00,
2013-03-02 02:59:00,31.5,30.0,29.64,North,355,0.0,5.0,94,0.00,,SKC,0.00,VWS V13.01,2013-03-02 07:59:00,
2013-03-02 03:00:00,31.5,30.0,29.64,North,355,1.0,5.0,94,0.00,,SKC,0.00,VWS V13.01,2013-03-02 08:00:00,
2013-03-02 03:01:00,31.5,30.0,29.64,North,355,1.0,5.0,94,0.00,,SKC,0.00,VWS V13.01,2013-03-02 08:01:00,
2013-03-02 03:02:00,31.4,29.9,29.64,North,355,1.0,3.0,94,0.00,,SKC,0.00,VWS V13.01,2013-03-02 08:02:00,
2013-03-02 03:03:00,31.4,29.9,29.64,North,5,0.0,3.0,94,0.00,,SKC,0.00,VWS V13.01,2013-03-02 08:03:00,
2013-03-02 03:04:00,31.4,29.9,29.64,North,360,0.0,3.0,94,0.00,,SKC,0.00,VWS V13.01,2013-03-02 08:04:00,
2013-03-02 03:05:00,31.4,29.9,29.64,North,5,0.0,3.0,94,0.00,,SKC,0.00,VWS V13.01,2013-03-02 08:05:00,
2013-03-02 03:06:00,31.4,29.9,29.64,North,5,0.0,3.0,94,0.00,,SKC,0.00,VWS V13.01,2013-03-02 08:06:00,
2013-03-02 03:07:00,31.4,29.9,29.64,North,5,0.0,3.0,94,0.00,,SKC,0.00,VWS V13.01,2013-03-02 08:07:00,
2013-03-02 03:08:00,31.5,30.0,29.64,North,355,0.0,5.0,94,0.00,,SKC,0.00,VWS V13.01,2013-03-02 08:08:00,
2013-03-02 03:09:00,31.4,29.9,29.64,North,5,0.0,3.0,94,0.00,,SKC,0.00,VWS V13.01,2013-03-02 08:09:00,
2013-03-02 03:10:00,31.4,29.9,29.64,North,5,0.0,3.0,94,0.00,,SKC,0.00,VWS V13.01,2013-03-02 08:10:00,
2013-03-02 03:11:00,31.4,29.9,29.64,North,360,0.0,3.0,94,0.00,,SKC,0.00,VWS V13.01,2013-03-02 08:11:00,
2013-03-02 03:12:00,31.4,29.9,29.64,North,5,0.0,3.0,94,0.00,,SKC,0.00,VWS V13.01,2013-03-02 08:12:00,
2013-03-02 03:13:00,31.4,29.9,29.64,NNE,30,0.0,3.0,94,0.00,,SKC,0.00,VWS V13.01,2013-03-02 08:13:00,
2013-03-02 03:14:00,31.5,30.0,29.64,North,5,0.0,3.0,94,0.00,,SKC,0.00,VWS V13.01,2013-03-02 08:14:00,
2013-03-02 03:15:00,31.4,29.9,29.64,NNE,30,0.0,3.0,94,0.00,,SKC,0.00,VWS V13.01,2013-03-02 08:15:00,
2013-03-02 03:16:00,31.4,29.9,29.64,NNE,30,1.0,3.0,94,0.00,,SKC,0.00,VWS V13.01,2013-03-02 08:16:00,
2013-03-02 03:17:00,31.4,29.9,29.64,NNE,30,0.0,3.0,94,0.00,,SKC,0.00,VWS V13.01,2013-03-02 08:17:00,
2013-03-02 03:18:00,31.4,29.9,29.64,NNE,30,0.0,3.0,94,0.00,,SKC,0.00,VWS V13.01,2013-03-02 08:18:00,
2013-03-02 03:19:00,31.4,29.9,29.64,NNE,30,0.0,3.0,94,0.00,,SKC,0.00,VWS V13.01,2013-03-02 08:19:00,
2013-03-02 03:20:00,31.4,29.9,29.64,NNE,30,0.0,3.0,94,0.00,,SKC,0.00,VWS V13.01,2013-03-02 08:20:00,
2013-03-02 03:21:00,31.4,29.9,29.64,North,5,0.0,3.0,94,0.00,,SKC,0.00,VWS V13.01,2013-03-02 08:21:00,
2013-03-02 03:22:00,31.3,29.8,29.64,NNE,30,0.0,3.0,94,0.00,,SKC,0.00,VWS V13.01,2013-03-02 08:22:00,
2013-03-02 03:23:00,31.3,29.8,29.64,NNE,30,1.0,3.0,94,0.00,,SKC,0.00,VWS V13.01,2013-03-02 08:23:00,
2013-03-02 03:24:00,31.3,29.8,29.64,NNE,28,0.0,3.0,94,0.00,,SKC,0.00,VWS V13.01,2013-03-02 08:24:00,
2013-03-02 03:25:00,31.3,29.8,29.63,NNE,28,0.0,3.0,94,0.00,,SKC,0.00,VWS V13.01,2013-03-02 08:25:00,
2013-03-02 03:26:00,31.3,29.8,29.64,NNE,28,0.0,3.0,94,0.00,,SKC,0.00,VWS V13.01,2013-03-02 08:26:00,
2013-03-02 03:27:00,31.4,29.9,29.64,NNE,30,0.0,3.0,94,0.00,,SKC,0.00,VWS V13.01,2013-03-02 08:27:00,
2013-03-02 03:28:00,31.3,29.8,29.64,NNE,28,0.0,3.0,94,0.00,,SKC,0.00,VWS V13.01,2013-03-02 08:28:00,
2013-03-02 03:29:00,31.2,29.7,29.64,NNE,28,1.0,3.0,94,0.00,,SKC,0.00,VWS V13.01,2013-03-02 08:29:00,
2013-03-02 03:30:00,31.2,29.7,29.64,NNE,28,1.0,3.0,94,0.00,,SKC,0.00,VWS V13.01,2013-03-02 08:30:00,
2013-03-02 03:31:00,31.2,29.7,29.64,NNE,27,0.0,2.0,94,0.00,,SKC,0.00,VWS V13.01,2013-03-02 08:31:00,
2013-03-02 03:32:00,31.2,29.7,29.64,NNE,27,0.0,2.0,94,0.00,,SKC,0.00,VWS V13.01,2013-03-02 08:32:00,
2013-03-02 03:33:00,31.2,29.7,29.64,NNE,27,0.0,2.0,94,0.00,,SKC,0.00,VWS V13.01,2013-03-02 08:33:00,
2013-03-02 03:34:00,31.2,29.7,29.64,NNE,27,0.0,2.0,94,0.00,,SKC,0.00,VWS V13.01,2013-03-02 08:34:00,
2013-03-02 03:35:00,31.3,29.8,29.63,NNE,28,0.0,3.0,94,0.00,,SKC,0.00,VWS V13.01,2013-03-02 08:35:00,
2013-03-02 03:36:00,31.2,29.7,29.64,NNE,27,0.0,2.0,94,0.00,,SKC,0.00,VWS V13.01,2013-03-02 08:36:00,
2013-03-02 03:37:00,31.2,29.7,29.64,North,9,1.0,4.0,94,0.00,,SKC,0.00,VWS V13.01,2013-03-02 08:37:00,
2013-03-02 03:38:00,31.2,29.7,29.64,North,9,1.0,4.0,94,0.00,,SKC,0.00,VWS V13.01,2013-03-02 08:38:00,
2013-03-02 03:39:00,31.2,29.7,29.64,North,9,0.0,4.0,94,0.00,,SKC,0.00,VWS V13.01,2013-03-02 08:39:00,
2013-03-02 03:40:00,31.2,29.7,29.64,North,9,1.0,4.0,94,0.00,,SKC,0.00,VWS V13.01,2013-03-02 08:40:00,
2013-03-02 03:41:00,31.2,29.7,29.64,North,9,0.0,4.0,94,0.00,,SKC,0.00,VWS V13.01,2013-03-02 08:41:00,
2013-03-02 03:42:00,31.2,29.7,29.64,North,9,0.0,4.0,94,0.00,,SKC,0.00,VWS V13.01,2013-03-02 08:42:00,
2013-03-02 03:43:00,31.2,29.7,29.63,North,9,0.0,4.0,94,0.00,,SKC,0.00,VWS V13.01,2013-03-02 08:43:00,
2013-03-02 03:44:00,31.2,29.7,29.64,North,9,0.0,4.0,94,0.00,,SKC,0.00,VWS V13.01,2013-03-02 08:44:00,
2013-03-02 03:45:00,31.2,29.7,29.64,NNE,26,0.0,2.0,94,0.00,,SKC,0.00,VWS V13.01,2013-03-02 08:45:00,
2013-03-02 03:46:00,31.2,29.7,29.64,North,9,0.0,4.0,94,0.00,,SKC,0.00,VWS V13.01,2013-03-02 08:46:00,
2013-03-02 03:47:00,31.1,29.6,29.63,North,9,0.0,4.0,94,0.00,,SKC,0.00,VWS V13.01,2013-03-02 08:47:00,
2013-03-02 03:48:00,31.1,29.6,29.63,North,9,0.0,4.0,94,0.00,,SKC,0.00,VWS V13.01,2013-03-02 08:48:00,
2013-03-02 03:49:00,31.1,29.6,29.64,North,9,0.0,4.0,94,0.00,,SKC,0.00,VWS V13.01,2013-03-02 08:49:00,
2013-03-02 03:50:00,31.1,29.6,29.64,North,9,0.0,4.0,94,0.00,,SKC,0.00,VWS V13.01,2013-03-02 08:50:00,
2013-03-02 03:51:00,31.2,29.7,29.64,North,9,0.0,4.0,94,0.00,,SKC,0.00,VWS V13.01,2013-03-02 08:51:00,
2013-03-02 03:52:00,31.1,29.6,29.64,NNE,21,2.0,4.0,94,0.00,,SKC,0.00,VWS V13.01,2013-03-02 08:52:00,
2013-03-02 03:53:00,31.1,29.6,29.64,NNE,21,0.0,4.0,94,0.00,,SKC,0.00,VWS V13.01,2013-03-02 08:53:00,
2013-03-02 03:54:00,31.1,29.6,29.64,North,5,1.0,4.0,94,0.00,,SKC,0.00,VWS V13.01,2013-03-02 08:54:00,
2013-03-02 03:55:00,31.1,29.6,29.64,North,5,0.0,4.0,94,0.00,,SKC,0.00,VWS V13.01,2013-03-02 08:55:00,
2013-03-02 03:56:00,31.1,29.6,29.64,North,360,0.0,4.0,94,0.00,,SKC,0.00,VWS V13.01,2013-03-02 08:56:00,
2013-03-02 03:57:00,31.1,29.6,29.63,North,9,0.0,4.0,94,0.00,,SKC,0.00,VWS V13.01,2013-03-02 08:57:00,
2013-03-02 03:58:00,31.1,29.6,29.64,North,360,0.0,4.0,94,0.00,,SKC,0.00,VWS V13.01,2013-03-02 08:58:00,
2013-03-02 03:59:00,31.1,29.6,29.64,North,360,0.0,4.0,94,0.00,,SKC,0.00,VWS V13.01,2013-03-02 08:59:00,
2013-03-02 04:00:00,31.1,29.6,29.64,North,5,0.0,4.0,94,0.00,,SKC,0.00,VWS V13.01,2013-03-02 09:00:00,
2013-03-02 04:01:00,31.1,29.6,29.64,North,5,0.0,0.0,94,0.00,,SKC,0.00,VWS V13.01,2013-03-02 09:01:00,
2013-03-02 04:02:00,31.1,29.6,29.64,North,5,1.0,2.0,94,0.00,,SKC,0.00,VWS V13.01,2013-03-02 09:02:00,
2013-03-02 04:03:00,31.1,29.6,29.64,NNE,21,0.0,4.0,94,0.00,,SKC,0.00,VWS V13.01,2013-03-02 09:03:00,
2013-03-02 04:04:00,31.1,29.6,29.64,North,5,0.0,2.0,94,0.00,,SKC,0.00,VWS V13.01,2013-03-02 09:04:00,
2013-03-02 04:05:00,31.1,29.6,29.64,North,5,0.0,2.0,94,0.00,,SKC,0.00,VWS V13.01,2013-03-02 09:05:00,
2013-03-02 04:06:00,31.1,29.6,29.64,North,5,0.0,2.0,94,0.00,,SKC,0.00,VWS V13.01,2013-03-02 09:06:00,
2013-03-02 04:07:00,31.1,29.6,29.64,North,5,0.0,2.0,94,0.00,,SKC,0.00,VWS V13.01,2013-03-02 09:07:00,
2013-03-02 04:08:00,31.1,29.6,29.64,NNE,21,3.0,3.0,94,0.00,,SKC,0.00,VWS V13.01,2013-03-02 09:08:00,
2013-03-02 04:09:00,31.1,29.6,29.64,North,5,1.0,4.0,94,0.00,,SKC,0.00,VWS V13.01,2013-03-02 09:09:00,
2013-03-02 04:10:00,31.0,29.5,29.64,NNE,22,0.0,3.0,94,0.00,,SKC,0.00,VWS V13.01,2013-03-02 09:10:00,
2013-03-02 04:11:00,31.0,29.5,29.64,NNE,22,0.0,3.0,94,0.00,,SKC,0.00,VWS V13.01,2013-03-02 09:11:00,
2013-03-02 04:12:00,31.0,29.5,29.64,NNE,22,0.0,3.0,94,0.00,,SKC,0.00,VWS V13.01,2013-03-02 09:12:00,
2013-03-02 04:13:00,31.0,29.5,29.64,NNE,22,0.0,3.0,94,0.00,,SKC,0.00,VWS V13.01,2013-03-02 09:13:00,
2013-03-02 04:14:00,31.1,29.6,29.64,North,5,0.0,2.0,94,0.00,,SKC,0.00,VWS V13.01,2013-03-02 09:14:00,
2013-03-02 04:15:00,31.0,29.5,29.64,NNE,22,0.0,3.0,94,0.00,,SKC,0.00,VWS V13.01,2013-03-02 09:15:00,
2013-03-02 04:16:00,31.0,29.5,29.64,NNE,22,0.0,3.0,94,0.00,,SKC,0.00,VWS V13.01,2013-03-02 09:16:00,
2013-03-02 04:17:00,31.0,29.5,29.64,NNE,22,2.0,3.0,94,0.00,,SKC,0.00,VWS V13.01,2013-03-02 09:17:00,
2013-03-02 04:18:00,31.0,29.5,29.64,NNE,22,0.0,3.0,94,0.00,,SKC,0.00,VWS V13.01,2013-03-02 09:18:00,
2013-03-02 04:19:00,31.1,29.6,29.64,NNE,22,1.0,3.0,94,0.00,,SKC,0.00,VWS V13.01,2013-03-02 09:19:00,
2013-03-02 04:20:00,31.1,29.6,29.64,NNE,22,0.0,3.0,94,0.00,,SKC,0.00,VWS V13.01,2013-03-02 09:20:00,
2013-03-02 04:21:00,31.1,29.6,29.64,NNE,22,0.0,3.0,94,0.00,,SKC,0.00,VWS V13.01,2013-03-02 09:21:00,
2013-03-02 04:22:00,31.1,29.6,29.64,NNE,22,0.0,3.0,94,0.00,,SKC,0.00,VWS V13.01,2013-03-02 09:22:00,
2013-03-02 04:23:00,31.1,29.6,29.64,NNE,22,0.0,3.0,94,0.00,,SKC,0.00,VWS V13.01,2013-03-02 09:23:00,
2013-03-02 04:24:00,31.0,29.5,29.64,NNE,22,0.0,3.0,94,0.00,,SKC,0.00,VWS V13.01,2013-03-02 09:24:00,
2013-03-02 04:25:00,31.0,29.5,29.64,NNE,22,0.0,3.0,94,0.00,,SKC,0.00,VWS V13.01,2013-03-02 09:25:00,
2013-03-02 04:26:00,31.0,29.5,29.64,NNE,21,0.0,3.0,94,0.00,,SKC,0.00,VWS V13.01,2013-03-02 09:26:00,
2013-03-02 04:27:00,31.0,29.5,29.64,NNE,21,0.0,3.0,94,0.00,,SKC,0.00,VWS V13.01,2013-03-02 09:27:00,
2013-03-02 04:28:00,31.1,29.6,29.64,NNE,21,0.0,3.0,94,0.00,,SKC,0.00,VWS V13.01,2013-03-02 09:28:00,
2013-03-02 04:29:00,31.0,29.5,29.64,NNE,21,0.0,3.0,94,0.00,,SKC,0.00,VWS V13.01,2013-03-02 09:29:00,
2013-03-02 04:30:00,31.1,29.6,29.64,NNE,22,0.0,3.0,94,0.00,,SKC,0.00,VWS V13.01,2013-03-02 09:30:00,
2013-03-02 04:31:00,31.1,29.6,29.64,NNE,21,0.0,0.0,94,0.00,,SKC,0.00,VWS V13.01,2013-03-02 09:31:00,
2013-03-02 04:32:00,31.0,29.5,29.64,NNE,21,0.0,0.0,94,0.00,,SKC,0.00,VWS V13.01,2013-03-02 09:32:00,
2013-03-02 04:33:00,31.0,29.5,29.64,NNE,21,0.0,0.0,94,0.00,,SKC,0.00,VWS V13.01,2013-03-02 09:33:00,
2013-03-02 04:34:00,31.0,29.5,29.64,NNE,19,1.0,2.0,94,0.00,,SKC,0.00,VWS V13.01,2013-03-02 09:34:00,
2013-03-02 04:35:00,31.0,29.5,29.64,NNE,19,2.0,2.0,94,0.00,,SKC,0.00,VWS V13.01,2013-03-02 09:35:00,
2013-03-02 04:36:00,31.0,29.5,29.64,NNE,21,0.0,3.0,94,0.00,,SKC,0.00,VWS V13.01,2013-03-02 09:36:00,
2013-03-02 04:37:00,31.0,29.5,29.64,NNE,19,0.0,2.0,94,0.00,,SKC,0.00,VWS V13.01,2013-03-02 09:37:00,
2013-03-02 04:38:00,31.0,29.5,29.64,NNE,19,0.0,2.0,94,0.00,,SKC,0.00,VWS V13.01,2013-03-02 09:38:00,
2013-03-02 04:39:00,31.1,29.6,29.64,NNE,19,0.0,2.0,94,0.00,,SKC,0.00,VWS V13.01,2013-03-02 09:39:00,
2013-03-02 04:40:00,31.0,29.5,29.64,NNE,19,2.0,2.0,94,0.00,,SKC,0.00,VWS V13.01,2013-03-02 09:40:00,
2013-03-02 04:41:00,31.0,29.5,29.64,NNE,19,1.0,3.0,94,0.00,,SKC,0.00,VWS V13.01,2013-03-02 09:41:00,
2013-03-02 04:42:00,31.1,29.6,29.64,NNE,19,1.0,3.0,94,0.00,,SKC,0.00,VWS V13.01,2013-03-02 09:42:00,
2013-03-02 04:43:00,31.1,29.6,29.64,NNE,19,0.0,3.0,94,0.00,,SKC,0.00,VWS V13.01,2013-03-02 09:43:00,
2013-03-02 04:44:00,31.0,29.5,29.64,NNE,19,2.0,2.0,94,0.00,,SKC,0.00,VWS V13.01,2013-03-02 09:44:00,
2013-03-02 04:45:00,31.1,29.6,29.64,NNE,18,0.0,3.0,94,0.00,,SKC,0.00,VWS V13.01,2013-03-02 09:45:00,
2013-03-02 04:46:00,31.0,29.5,29.64,NNE,18,0.0,3.0,94,0.00,,SKC,0.00,VWS V13.01,2013-03-02 09:46:00,
2013-03-02 04:47:00,31.0,29.5,29.64,NNE,19,0.0,3.0,94,0.00,,SKC,0.00,VWS V13.01,2013-03-02 09:47:00,
2013-03-02 04:48:00,31.0,29.5,29.64,NNE,19,2.0,3.0,94,0.00,,SKC,0.00,VWS V13.01,2013-03-02 09:48:00,
2013-03-02 04:49:00,31.1,29.6,29.64,NNE,19,0.0,2.0,94,0.00,,SKC,0.00,VWS V13.01,2013-03-02 09:49:00,
2013-03-02 04:50:00,31.0,29.5,29.64,NNE,19,0.0,3.0,94,0.00,,SKC,0.00,VWS V13.01,2013-03-02 09:50:00,
2013-03-02 04:51:00,31.0,29.5,29.64,NNE,18,0.0,3.0,94,0.00,,SKC,0.00,VWS V13.01,2013-03-02 09:51:00,
2013-03-02 04:52:00,31.0,29.5,29.64,NNE,18,0.0,3.0,94,0.00,,SKC,0.00,VWS V13.01,2013-03-02 09:52:00,
2013-03-02 04:53:00,31.0,29.5,29.64,NNE,19,0.0,3.0,94,0.00,,SKC,0.00,VWS V13.01,2013-03-02 09:53:00,
2013-03-02 04:54:00,31.0,29.5,29.64,NNE,19,1.0,3.0,94,0.00,,SKC,0.00,VWS V13.01,2013-03-02 09:54:00,
2013-03-02 04:55:00,31.0,29.5,29.64,NNE,19,0.0,3.0,94,0.00,,SKC,0.00,VWS V13.01,2013-03-02 09:55:00,
2013-03-02 04:56:00,31.0,29.5,29.64,NNE,19,0.0,3.0,94,0.00,,SKC,0.00,VWS V13.01,2013-03-02 09:56:00,
2013-03-02 04:57:00,30.9,29.4,29.64,NNE,19,0.0,3.0,94,0.00,,SKC,0.00,VWS V13.01,2013-03-02 09:57:00,
2013-03-02 04:58:00,31.0,29.5,29.64,NNE,19,0.0,3.0,94,0.00,,SKC,0.00,VWS V13.01,2013-03-02 09:58:00,
2013-03-02 04:59:00,31.0,29.5,29.64,NNE,18,1.0,3.0,94,0.00,,SKC,0.00,VWS V13.01,2013-03-02 09:59:00,
2013-03-02 05:00:00,30.9,29.4,29.64,NNE,19,0.0,3.0,94,0.00,,SKC,0.00,VWS V13.01,2013-03-02 10:00:00,
2013-03-02 05:01:00,30.9,29.4,29.64,NNE,19,0.0,0.0,94,0.00,,SKC,0.00,VWS V13.01,2013-03-02 10:01:00,
2013-03-02 05:02:00,30.9,29.4,29.64,NNE,19,0.0,0.0,94,0.00,,SKC,0.00,VWS V13.01,2013-03-02 10:02:00,
2013-03-02 05:03:00,30.8,29.3,29.64,NNE,19,0.0,0.0,94,0.00,,SKC,0.00,VWS V13.01,2013-03-02 10:03:00,
2013-03-02 05:04:00,31.0,29.5,29.64,NNE,19,0.0,3.0,94,0.00,,SKC,0.00,VWS V13.01,2013-03-02 10:04:00,
2013-03-02 05:05:00,30.8,29.3,29.64,NNE,18,0.0,0.0,94,0.00,,SKC,0.00,VWS V13.01,2013-03-02 10:05:00,
2013-03-02 05:06:00,30.8,29.3,29.64,NNE,19,0.0,0.0,94,0.00,,SKC,0.00,VWS V13.01,2013-03-02 10:06:00,
2013-03-02 05:07:00,30.8,29.3,29.64,NNE,19,0.0,0.0,94,0.00,,SKC,0.00,VWS V13.01,2013-03-02 10:07:00,
2013-03-02 05:08:00,30.7,29.2,29.64,NNE,19,0.0,0.0,94,0.00,,SKC,0.00,VWS V13.01,2013-03-02 10:08:00,
2013-03-02 05:09:00,30.7,29.2,29.64,NNE,19,0.0,0.0,94,0.00,,SKC,0.00,VWS V13.01,2013-03-02 10:09:00,
2013-03-02 05:10:00,30.7,29.2,29.64,NNE,19,0.0,0.0,94,0.00,,SKC,0.00,VWS V13.01,2013-03-02 10:10:00,
2013-03-02 05:11:00,30.7,29.2,29.64,NNE,19,0.0,0.0,94,0.00,,SKC,0.00,VWS V13.01,2013-03-02 10:11:00,
2013-03-02 05:12:00,30.7,29.2,29.64,NNE,18,0.0,0.0,94,0.00,,SKC,0.00,VWS V13.01,2013-03-02 10:12:00,
2013-03-02 05:13:00,30.7,29.2,29.64,NNE,18,0.0,2.0,94,0.00,,SKC,0.00,VWS V13.01,2013-03-02 10:13:00,
2013-03-02 05:14:00,30.7,29.2,29.64,NNE,19,0.0,2.0,94,0.00,,SKC,0.00,VWS V13.01,2013-03-02 10:14:00,
2013-03-02 05:15:00,30.7,29.2,29.64,NNE,19,0.0,2.0,94,0.00,,SKC,0.00,VWS V13.01,2013-03-02 10:15:00,
2013-03-02 05:16:00,30.7,29.2,29.64,NNE,19,2.0,2.0,94,0.00,,SKC,0.00,VWS V13.01,2013-03-02 10:16:00,
2013-03-02 05:17:00,30.7,29.2,29.64,NNE,19,0.0,3.0,94,0.00,,SKC,0.00,VWS V13.01,2013-03-02 10:17:00,
2013-03-02 05:18:00,30.7,29.2,29.64,NNE,18,0.0,3.0,94,0.00,,SKC,0.00,VWS V13.01,2013-03-02 10:18:00,
2013-03-02 05:19:00,30.7,29.2,29.64,NNE,18,0.0,3.0,94,0.00,,SKC,0.00,VWS V13.01,2013-03-02 10:19:00,
2013-03-02 05:20:00,30.7,29.2,29.64,NNE,18,0.0,0.0,94,0.00,,SKC,0.00,VWS V13.01,2013-03-02 10:20:00,
2013-03-02 05:21:00,30.7,29.2,29.64,NNE,18,0.0,3.0,94,0.00,,SKC,0.00,VWS V13.01,2013-03-02 10:21:00,
2013-03-02 05:22:00,30.7,29.2,29.64,NNE,19,0.0,3.0,94,0.00,,SKC,0.00,VWS V13.01,2013-03-02 10:22:00,
2013-03-02 05:23:00,30.7,29.2,29.64,NNE,19,0.0,3.0,94,0.00,,SKC,0.00,VWS V13.01,2013-03-02 10:23:00,
2013-03-02 05:24:00,30.7,29.2,29.64,NNE,19,0.0,3.0,94,0.00,,SKC,0.00,VWS V13.01,2013-03-02 10:24:00,
2013-03-02 05:25:00,30.7,29.2,29.64,NNE,18,0.0,3.0,94,0.00,,SKC,0.00,VWS V13.01,2013-03-02 10:25:00,
2013-03-02 05:26:00,30.7,29.2,29.64,NNE,18,1.0,2.0,94,0.00,,SKC,0.00,VWS V13.01,2013-03-02 10:26:00,
2013-03-02 05:27:00,30.6,29.1,29.64,NNE,19,0.0,3.0,94,0.00,,SKC,0.00,VWS V13.01,2013-03-02 10:27:00,
2013-03-02 05:28:00,30.6,29.1,29.64,NNE,18,0.0,3.0,94,0.00,,SKC,0.00,VWS V13.01,2013-03-02 10:28:00,
2013-03-02 05:29:00,30.6,29.1,29.64,NNE,19,2.0,3.0,94,0.00,,SKC,0.00,VWS V13.01,2013-03-02 10:29:00,
2013-03-02 05:30:00,30.6,29.1,29.64,NNE,19,0.0,3.0,94,0.00,,SKC,0.00,VWS V13.01,2013-03-02 10:30:00,
2013-03-02 05:31:00,30.6,29.1,29.64,NNE,19,0.0,0.0,94,0.00,,SKC,0.00,VWS V13.01,2013-03-02 10:31:00,
2013-03-02 05:32:00,30.6,29.1,29.64,NNE,18,2.0,2.0,94,0.00,,SKC,0.00,VWS V13.01,2013-03-02 10:32:00,
2013-03-02 05:33:00,30.6,29.1,29.64,NNE,18,1.0,2.0,94,0.00,,SKC,0.00,VWS V13.01,2013-03-02 10:33:00,
2013-03-02 05:34:00,30.6,29.1,29.64,NNE,19,0.0,2.0,94,0.00,,SKC,0.00,VWS V13.01,2013-03-02 10:34:00,
2013-03-02 05:35:00,30.6,29.1,29.64,NNE,19,0.0,2.0,94,0.00,,SKC,0.00,VWS V13.01,2013-03-02 10:35:00,
2013-03-02 05:36:00,30.6,29.1,29.64,NNE,19,1.0,2.0,94,0.00,,SKC,0.00,VWS V13.01,2013-03-02 10:36:00,
2013-03-02 05:37:00,30.6,29.1,29.64,NNE,19,0.0,2.0,94,0.00,,SKC,0.00,VWS V13.01,2013-03-02 10:37:00,
2013-03-02 05:38:00,30.6,29.1,29.64,NNE,19,0.0,2.0,94,0.00,,SKC,0.00,VWS V13.01,2013-03-02 10:38:00,
2013-03-02 05:39:00,30.6,28.8,29.64,NNE,19,0.0,2.0,93,0.00,,SKC,0.00,VWS V13.01,2013-03-02 10:39:00,
2013-03-02 05:40:00,30.6,28.8,29.64,NNE,19,0.0,2.0,93,0.00,,SKC,0.00,VWS V13.01,2013-03-02 10:40:00,
2013-03-02 05:41:00,30.6,28.8,29.64,NNE,19,0.0,2.0,93,0.00,,SKC,0.00,VWS V13.01,2013-03-02 10:41:00,
2013-03-02 05:42:00,30.6,28.8,29.64,NNE,19,0.0,2.0,93,0.00,,SKC,0.00,VWS V13.01,2013-03-02 10:42:00,
2013-03-02 05:43:00,30.6,29.1,29.64,NNE,18,2.0,2.0,94,0.00,,SKC,0.00,VWS V13.01,2013-03-02 10:43:00,
2013-03-02 05:44:00,30.5,28.7,29.64,NNE,19,0.0,2.0,93,0.00,,SKC,0.00,VWS V13.01,2013-03-02 10:44:00,
2013-03-02 05:45:00,30.5,28.7,29.64,NNE,19,0.0,2.0,93,0.00,,SKC,0.00,VWS V13.01,2013-03-02 10:45:00,
2013-03-02 05:46:00,30.5,28.7,29.64,NNE,18,0.0,2.0,93,0.00,,SKC,0.00,VWS V13.01,2013-03-02 10:46:00,
2013-03-02 05:47:00,30.5,28.7,29.64,NNE,19,0.0,2.0,93,0.00,,SKC,0.00,VWS V13.01,2013-03-02 10:47:00,
2013-03-02 05:48:00,30.5,28.7,29.64,NNE,19,1.0,2.0,93,0.00,,SKC,0.00,VWS V13.01,2013-03-02 10:48:00,
2013-03-02 05:49:00,30.6,28.8,29.64,NNE,18,0.0,2.0,93,0.00,,SKC,0.00,VWS V13.01,2013-03-02 10:49:00,
2013-03-02 05:50:00,30.5,28.7,29.64,NNE,19,0.0,2.0,93,0.00,,SKC,0.00,VWS V13.01,2013-03-02 10:50:00,
2013-03-02 05:51:00,30.5,28.7,29.64,NNE,19,0.0,2.0,93,0.00,,SKC,0.00,VWS V13.01,2013-03-02 10:51:00,
2013-03-02 05:52:00,30.5,28.7,29.64,NNE,19,0.0,2.0,93,0.00,,SKC,0.00,VWS V13.01,2013-03-02 10:52:00,
2013-03-02 05:53:00,30.5,28.7,29.64,NNE,18,0.0,2.0,93,0.00,,SKC,0.00,VWS V13.01,2013-03-02 10:53:00,
2013-03-02 05:54:00,30.5,28.7,29.64,NNE,19,0.0,2.0,93,0.00,,SKC,0.00,VWS V13.01,2013-03-02 10:54:00,
2013-03-02 05:55:00,30.5,28.7,29.64,NNE,18,0.0,2.0,93,0.00,,SKC,0.00,VWS V13.01,2013-03-02 10:55:00,
2013-03-02 05:56:00,30.5,28.7,29.64,NNE,18,1.0,2.0,93,0.00,,SKC,0.00,VWS V13.01,2013-03-02 10:56:00,
2013-03-02 05:57:00,30.5,28.7,29.64,NNE,19,0.0,2.0,93,0.00,,SKC,0.00,VWS V13.01,2013-03-02 10:57:00,
2013-03-02 05:58:00,30.5,28.7,29.64,NNE,19,0.0,2.0,93,0.00,,SKC,0.00,VWS V13.01,2013-03-02 10:58:00,
2013-03-02 05:59:00,30.5,28.7,29.64,NNE,19,0.0,2.0,93,0.00,,SKC,0.00,VWS V13.01,2013-03-02 10:59:00,
2013-03-02 06:00:00,30.5,28.7,29.64,NNE,19,0.0,2.0,93,0.00,,SKC,0.00,VWS V13.01,2013-03-02 11:00:00,
2013-03-02 06:01:00,30.5,28.7,29.64,NNE,19,0.0,0.0,93,0.00,,SKC,0.00,VWS V13.01,2013-03-02 11:01:00,
2013-03-02 06:02:00,30.5,28.7,29.64,NNE,19,0.0,0.0,93,0.00,,SKC,0.00,VWS V13.01,2013-03-02 11:02:00,
2013-03-02 06:03:00,30.5,28.7,29.64,NNE,19,0.0,2.0,93,0.00,,SKC,0.00,VWS V13.01,2013-03-02 11:03:00,
2013-03-02 06:04:00,30.5,28.7,29.64,NNE,19,0.0,2.0,93,0.00,,SKC,0.00,VWS V13.01,2013-03-02 11:04:00,
2013-03-02 06:05:00,30.5,29.0,29.64,NNE,19,1.0,2.0,94,0.00,,SKC,0.00,VWS V13.01,2013-03-02 11:05:00,
2013-03-02 06:06:00,30.5,28.7,29.64,NNE,20,0.0,2.0,93,0.00,,SKC,0.00,VWS V13.01,2013-03-02 11:06:00,
2013-03-02 06:07:00,30.5,29.0,29.64,NNE,19,0.0,2.0,94,0.00,,SKC,0.00,VWS V13.01,2013-03-02 11:07:00,
2013-03-02 06:08:00,30.5,29.0,29.64,NNE,20,0.0,2.0,94,0.00,,SKC,0.00,VWS V13.01,2013-03-02 11:08:00,
2013-03-02 06:09:00,30.5,29.0,29.64,NNE,20,0.0,2.0,94,0.00,,SKC,0.00,VWS V13.01,2013-03-02 11:09:00,
2013-03-02 06:10:00,30.5,28.7,29.64,NNE,20,0.0,2.0,93,0.00,,SKC,0.00,VWS V13.01,2013-03-02 11:10:00,
2013-03-02 06:11:00,30.5,28.7,29.64,NNE,19,0.0,0.0,93,0.00,,SKC,0.00,VWS V13.01,2013-03-02 11:11:00,
2013-03-02 06:12:00,30.5,29.0,29.64,NNE,20,0.0,2.0,94,0.00,,SKC,0.00,VWS V13.01,2013-03-02 11:12:00,
2013-03-02 06:13:00,30.5,29.0,29.64,NNE,19,0.0,2.0,94,0.00,,SKC,0.00,VWS V13.01,2013-03-02 11:13:00,
2013-03-02 06:14:00,30.5,29.0,29.65,NNE,19,0.0,2.0,94,0.00,,SKC,0.00,VWS V13.01,2013-03-02 11:14:00,
2013-03-02 06:15:00,30.5,29.0,29.65,NNE,20,0.0,2.0,94,0.00,,SKC,0.00,VWS V13.01,2013-03-02 11:15:00,
2013-03-02 06:16:00,30.5,28.7,29.64,NNE,20,0.0,2.0,93,0.00,,SKC,0.00,VWS V13.01,2013-03-02 11:16:00,
2013-03-02 06:17:00,30.5,28.7,29.65,NNE,20,0.0,2.0,93,0.00,,SKC,0.00,VWS V13.01,2013-03-02 11:17:00,
2013-03-02 06:18:00,30.5,28.7,29.65,NNE,20,1.0,2.0,93,0.00,,SKC,0.00,VWS V13.01,2013-03-02 11:18:00,
2013-03-02 06:19:00,30.6,28.8,29.65,NNE,20,0.0,2.0,93,0.00,,SKC,0.00,VWS V13.01,2013-03-02 11:19:00,
2013-03-02 06:20:00,30.6,28.8,29.65,NNE,19,0.0,2.0,93,0.00,,SKC,0.00,VWS V13.01,2013-03-02 11:20:00,
2013-03-02 06:21:00,30.5,29.0,29.64,NNE,20,0.0,2.0,94,0.00,,SKC,0.00,VWS V13.01,2013-03-02 11:21:00,
2013-03-02 06:22:00,30.6,28.8,29.65,NNE,20,0.0,2.0,93,0.00,,SKC,0.00,VWS V13.01,2013-03-02 11:22:00,
2013-03-02 06:23:00,30.6,28.8,29.65,NNE,20,0.0,2.0,93,0.00,,SKC,0.00,VWS V13.01,2013-03-02 11:23:00,
2013-03-02 06:24:00,30.6,28.8,29.65,NNE,20,0.0,2.0,93,0.00,,SKC,0.00,VWS V13.01,2013-03-02 11:24:00,
2013-03-02 06:25:00,30.6,28.8,29.65,NNE,19,0.0,2.0,93,0.00,,SKC,0.00,VWS V13.01,2013-03-02 11:25:00,
2013-03-02 06:26:00,30.5,28.7,29.65,NNE,20,0.0,2.0,93,0.00,,SKC,0.00,VWS V13.01,2013-03-02 11:26:00,
2013-03-02 06:27:00,30.6,28.8,29.65,NNE,20,0.0,2.0,93,0.00,,SKC,0.00,VWS V13.01,2013-03-02 11:27:00,
2013-03-02 06:28:00,30.6,28.8,29.65,NNE,20,0.0,2.0,93,0.00,,SKC,0.00,VWS V13.01,2013-03-02 11:28:00,
2013-03-02 06:29:00,30.7,28.9,29.65,NNE,20,0.0,2.0,93,0.00,,SKC,0.00,VWS V13.01,2013-03-02 11:29:00,
2013-03-02 06:30:00,30.7,28.9,29.65,NNE,20,0.0,2.0,93,0.00,,SKC,0.00,VWS V13.01,2013-03-02 11:30:00,
2013-03-02 06:31:00,30.6,28.8,29.65,NNE,20,0.0,2.0,93,0.00,,SKC,0.00,VWS V13.01,2013-03-02 11:31:00,
2013-03-02 06:32:00,30.7,28.9,29.65,NNE,20,0.0,0.0,93,0.00,,SKC,0.00,VWS V13.01,2013-03-02 11:32:00,
2013-03-02 06:33:00,30.7,28.9,29.65,NNE,20,0.0,0.0,93,0.00,,SKC,0.00,VWS V13.01,2013-03-02 11:33:00,
2013-03-02 06:34:00,30.7,28.9,29.65,NNE,20,0.0,0.0,93,0.00,,SKC,0.00,VWS V13.01,2013-03-02 11:34:00,
2013-03-02 06:35:00,30.7,28.9,29.65,NNE,20,1.0,1.0,93,0.00,,SKC,0.00,VWS V13.01,2013-03-02 11:35:00,
2013-03-02 06:36:00,30.7,28.9,29.65,NNE,19,0.0,1.0,93,0.00,,SKC,0.00,VWS V13.01,2013-03-02 11:36:00,
2013-03-02 06:37:00,30.6,28.8,29.65,NNE,20,0.0,2.0,93,0.00,,SKC,0.00,VWS V13.01,2013-03-02 11:37:00,
2013-03-02 06:38:00,30.7,28.9,29.65,NNE,20,0.0,1.0,93,0.00,,SKC,0.00,VWS V13.01,2013-03-02 11:38:00,
2013-03-02 06:39:00,30.8,29.0,29.65,NNE,20,0.0,1.0,93,0.00,,SKC,0.00,VWS V13.01,2013-03-02 11:39:00,
2013-03-02 06:40:00,30.8,29.0,29.65,NNE,19,0.0,1.0,93,0.00,,SKC,0.00,VWS V13.01,2013-03-02 11:40:00,
2013-03-02 06:41:00,30.8,29.0,29.65,NNE,19,0.0,1.0,93,0.00,,SKC,0.00,VWS V13.01,2013-03-02 11:41:00,
2013-03-02 06:42:00,30.8,29.0,29.65,NNE,19,0.0,1.0,93,0.00,,SKC,0.00,VWS V13.01,2013-03-02 11:42:00,
2013-03-02 06:43:00,30.8,29.0,29.65,NNE,20,0.0,1.0,93,0.00,,SKC,0.00,VWS V13.01,2013-03-02 11:43:00,
2013-03-02 06:44:00,30.8,29.0,29.65,NNE,20,0.0,1.0,93,0.00,,SKC,0.00,VWS V13.01,2013-03-02 11:44:00,
2013-03-02 06:45:00,30.7,28.9,29.65,NNE,20,1.0,1.0,93,0.00,,SKC,0.00,VWS V13.01,2013-03-02 11:45:00,
2013-03-02 06:46:00,30.8,29.0,29.65,NNE,22,0.0,1.0,93,0.00,,SKC,0.00,VWS V13.01,2013-03-02 11:46:00,
2013-03-02 06:47:00,30.8,29.0,29.65,NNE,22,0.0,1.0,93,0.00,,SKC,0.00,VWS V13.01,2013-03-02 11:47:00,
2013-03-02 06:48:00,30.9,29.1,29.65,NNE,22,0.0,1.0,93,0.00,,SKC,0.00,VWS V13.01,2013-03-02 11:48:00,
2013-03-02 06:49:00,30.9,29.1,29.65,NNE,22,0.0,1.0,93,0.00,,SKC,0.00,VWS V13.01,2013-03-02 11:49:00,
2013-03-02 06:50:00,30.9,29.1,29.65,NNE,22,0.0,2.0,93,0.00,,SKC,0.00,VWS V13.01,2013-03-02 11:50:00,
2013-03-02 06:51:00,30.9,29.1,29.65,NNE,22,0.0,2.0,93,0.00,,SKC,0.00,VWS V13.01,2013-03-02 11:51:00,
2013-03-02 06:52:00,30.8,29.0,29.65,NNE,20,0.0,1.0,93,0.00,,SKC,0.00,VWS V13.01,2013-03-02 11:52:00,
2013-03-02 06:53:00,30.9,29.1,29.65,NNE,22,0.0,2.0,93,0.00,,SKC,0.00,VWS V13.01,2013-03-02 11:53:00,
2013-03-02 06:54:00,30.9,29.1,29.65,NNE,22,0.0,2.0,93,0.00,,SKC,0.00,VWS V13.01,2013-03-02 11:54:00,
2013-03-02 06:55:00,30.9,29.1,29.65,NNE,22,0.0,2.0,93,0.00,,SKC,0.00,VWS V13.01,2013-03-02 11:55:00,
2013-03-02 06:56:00,30.9,29.1,29.65,NNE,22,0.0,2.0,93,0.00,,SKC,0.00,VWS V13.01,2013-03-02 11:56:00,
2013-03-02 06:57:00,30.8,29.0,29.65,NNE,22,0.0,1.0,93,0.00,,SKC,0.00,VWS V13.01,2013-03-02 11:57:00,
2013-03-02 06:58:00,31.0,29.2,29.65,NNE,22,0.0,2.0,93,0.00,,SKC,0.00,VWS V13.01,2013-03-02 11:58:00,
2013-03-02 06:59:00,31.0,29.2,29.65,NNE,22,0.0,2.0,93,0.00,,SKC,0.00,VWS V13.01,2013-03-02 11:59:00,
2013-03-02 07:00:00,31.0,29.2,29.65,NNE,22,0.0,2.0,93,0.00,,SKC,0.00,VWS V13.01,2013-03-02 12:00:00,
2013-03-02 07:01:00,31.0,29.2,29.65,NNE,22,0.0,0.0,93,0.00,,SKC,0.00,VWS V13.01,2013-03-02 12:01:00,
2013-03-02 07:02:00,31.0,29.2,29.65,NNE,22,0.0,0.0,93,0.00,,SKC,0.00,VWS V13.01,2013-03-02 12:02:00,
2013-03-02 07:03:00,31.0,29.2,29.65,NNE,22,0.0,0.0,93,0.00,,SKC,0.00,VWS V13.01,2013-03-02 12:03:00,
2013-03-02 07:04:00,31.0,29.2,29.65,NNE,22,1.0,2.0,93,0.00,,SKC,0.00,VWS V13.01,2013-03-02 12:04:00,
2013-03-02 07:05:00,31.0,29.2,29.65,NNE,22,1.0,2.0,93,0.00,,SKC,0.00,VWS V13.01,2013-03-02 12:05:00,
2013-03-02 07:06:00,30.9,29.1,29.65,NNE,22,0.0,2.0,93,0.00,,SKC,0.00,VWS V13.01,2013-03-02 12:06:00,
2013-03-02 07:07:00,31.0,29.2,29.65,NNE,22,0.0,2.0,93,0.00,,SKC,0.00,VWS V13.01,2013-03-02 12:07:00,
2013-03-02 07:08:00,31.1,29.3,29.65,NNE,22,0.0,2.0,93,0.00,,SKC,0.00,VWS V13.01,2013-03-02 12:08:00,
2013-03-02 07:09:00,31.1,29.3,29.65,NNE,22,2.0,3.0,93,0.00,,SKC,0.00,VWS V13.01,2013-03-02 12:09:00,
2013-03-02 07:10:00,31.1,29.3,29.65,NNE,21,3.0,3.0,93,0.00,,SKC,0.00,VWS V13.01,2013-03-02 12:10:00,
2013-03-02 07:11:00,31.0,29.2,29.65,NNE,22,0.0,0.0,93,0.00,,SKC,0.00,VWS V13.01,2013-03-02 12:11:00,
2013-03-02 07:12:00,31.2,29.4,29.65,NNE,21,0.0,3.0,93,0.00,,SKC,0.00,VWS V13.01,2013-03-02 12:12:00,
2013-03-02 07:13:00,31.1,29.3,29.65,NNE,21,0.0,3.0,93,0.00,,SKC,0.00,VWS V13.01,2013-03-02 12:13:00,
2013-03-02 07:14:00,31.2,29.4,29.65,NNE,21,0.0,3.0,93,0.00,,SKC,0.00,VWS V13.01,2013-03-02 12:14:00,
2013-03-02 07:15:00,31.2,29.4,29.65,NNE,21,0.0,3.0,93,0.00,,SKC,0.00,VWS V13.01,2013-03-02 12:15:00,
2013-03-02 07:16:00,31.0,29.2,29.65,NNE,22,0.0,2.0,93,0.00,,SKC,0.00,VWS V13.01,2013-03-02 12:16:00,
2013-03-02 07:17:00,31.2,29.4,29.65,NNE,19,2.0,4.0,93,0.00,,SKC,0.00,VWS V13.01,2013-03-02 12:17:00,
2013-03-02 07:18:00,31.2,29.4,29.65,NNE,19,1.0,4.0,93,0.00,,SKC,0.00,VWS V13.01,2013-03-02 12:18:00,
2013-03-02 07:19:00,31.2,29.4,29.65,NNE,20,0.0,4.0,93,0.00,,SKC,0.00,VWS V13.01,2013-03-02 12:19:00,
2013-03-02 07:20:00,31.3,29.5,29.65,NNE,20,1.0,4.0,93,0.00,,SKC,0.00,VWS V13.01,2013-03-02 12:20:00,
2013-03-02 07:21:00,31.3,29.5,29.65,NNE,18,3.0,4.0,93,0.00,,SKC,0.00,VWS V13.01,2013-03-02 12:21:00,
2013-03-02 07:22:00,31.3,29.5,29.66,NNE,18,0.0,4.0,93,0.00,,SKC,0.00,VWS V13.01,2013-03-02 12:22:00,
2013-03-02 07:23:00,31.1,29.3,29.65,NNE,21,0.0,3.0,93,0.00,,SKC,0.00,VWS V13.01,2013-03-02 12:23:00,
2013-03-02 07:24:00,31.3,29.5,29.66,NNE,18,0.0,4.0,93,0.00,,SKC,0.00,VWS V13.01,2013-03-02 12:24:00,
2013-03-02 07:25:00,31.4,29.6,29.66,NNE,18,0.0,4.0,93,0.00,,SKC,0.00,VWS V13.01,2013-03-02 12:25:00,
2013-03-02 07:26:00,31.4,29.6,29.66,NNE,18,0.0,4.0,93,0.00,,SKC,0.00,VWS V13.01,2013-03-02 12:26:00,
2013-03-02 07:27:00,31.4,29.6,29.66,NNE,18,2.0,4.0,93,0.00,,SKC,0.00,VWS V13.01,2013-03-02 12:27:00,
2013-03-02 07:28:00,31.4,29.6,29.66,NNE,18,1.0,4.0,93,0.00,,SKC,0.00,VWS V13.01,2013-03-02 12:28:00,
2013-03-02 07:29:00,31.4,29.6,29.66,NNE,17,2.0,4.0,93,0.00,,SKC,0.00,VWS V13.01,2013-03-02 12:29:00,
2013-03-02 07:30:00,31.4,29.6,29.66,NNE,15,0.0,4.0,93,0.00,,SKC,0.00,VWS V13.01,2013-03-02 12:30:00,
2013-03-02 07:31:00,31.4,29.6,29.66,NNE,16,2.0,2.0,93,0.00,,SKC,0.00,VWS V13.01,2013-03-02 12:31:00,
2013-03-02 07:32:00,31.3,29.5,29.66,NNE,18,1.0,4.0,93,0.00,,SKC,0.00,VWS V13.01,2013-03-02 12:32:00,
2013-03-02 07:33:00,31.5,29.7,29.66,NNE,16,0.0,3.0,93,0.00,,SKC,0.00,VWS V13.01,2013-03-02 12:33:00,
2013-03-02 07:34:00,31.5,29.5,29.66,NNE,15,0.0,3.0,92,0.00,,SKC,0.00,VWS V13.01,2013-03-02 12:34:00,
2013-03-02 07:35:00,31.5,29.5,29.66,NNE,16,0.0,3.0,92,0.00,,SKC,0.00,VWS V13.01,2013-03-02 12:35:00,
2013-03-02 07:36:00,31.6,29.5,29.66,NNE,15,1.0,3.0,92,0.00,,SKC,0.00,VWS V13.01,2013-03-02 12:36:00,
2013-03-02 07:37:00,31.6,29.5,29.66,NNE,16,0.0,3.0,92,0.00,,SKC,0.00,VWS V13.01,2013-03-02 12:37:00,
2013-03-02 07:38:00,31.6,29.5,29.66,NNE,15,0.0,3.0,92,0.00,,SKC,0.00,VWS V13.01,2013-03-02 12:38:00,
2013-03-02 07:39:00,31.7,29.6,29.66,NNE,16,0.0,3.0,92,0.00,,SKC,0.00,VWS V13.01,2013-03-02 12:39:00,
2013-03-02 07:40:00,31.4,29.6,29.66,NNE,16,0.0,4.0,93,0.00,,SKC,0.00,VWS V13.01,2013-03-02 12:40:00,
2013-03-02 07:41:00,31.7,29.6,29.66,NNE,16,0.0,3.0,92,0.00,,SKC,0.00,VWS V13.01,2013-03-02 12:41:00,
2013-03-02 07:42:00,31.8,29.8,29.66,NNE,15,2.0,3.0,92,0.00,,SKC,0.00,VWS V13.01,2013-03-02 12:42:00,
2013-03-02 07:43:00,31.8,29.8,29.66,NNE,15,1.0,3.0,92,0.00,,SKC,0.00,VWS V13.01,2013-03-02 12:43:00,
2013-03-02 07:44:00,31.9,29.8,29.66,NNE,15,1.0,3.0,92,0.00,,SKC,0.00,VWS V13.01,2013-03-02 12:44:00,
2013-03-02 07:45:00,31.9,29.8,29.66,NNE,16,2.0,3.0,92,0.00,,SKC,0.00,VWS V13.01,2013-03-02 12:45:00,
2013-03-02 07:46:00,31.9,29.8,29.66,NNE,15,0.0,3.0,92,0.00,,SKC,0.00,VWS V13.01,2013-03-02 12:46:00,
2013-03-02 07:47:00,31.9,29.8,29.66,NNE,16,0.0,3.0,92,0.00,,SKC,0.00,VWS V13.01,2013-03-02 12:47:00,
2013-03-02 07:48:00,31.9,29.8,29.66,NNE,16,0.0,3.0,92,0.00,,SKC,0.00,VWS V13.01,2013-03-02 12:48:00,
2013-03-02 07:49:00,31.7,29.6,29.66,NNE,16,0.0,3.0,92,0.00,,SKC,0.00,VWS V13.01,2013-03-02 12:49:00,
2013-03-02 07:50:00,32.0,29.9,29.66,NNE,15,1.0,3.0,92,0.00,,SKC,0.00,VWS V13.01,2013-03-02 12:50:00,
2013-03-02 07:51:00,32.0,29.9,29.66,NNE,16,0.0,3.0,92,0.00,,SKC,0.00,VWS V13.01,2013-03-02 12:51:00,
2013-03-02 07:52:00,32.1,30.0,29.66,NNE,16,0.0,3.0,92,0.00,,SKC,0.00,VWS V13.01,2013-03-02 12:52:00,
2013-03-02 07:53:00,32.1,30.0,29.66,NNE,16,0.0,3.0,92,0.00,,SKC,0.00,VWS V13.01,2013-03-02 12:53:00,
2013-03-02 07:54:00,32.1,30.0,29.66,NNE,16,0.0,3.0,92,0.00,,SKC,0.00,VWS V13.01,2013-03-02 12:54:00,
2013-03-02 07:55:00,32.1,30.0,29.66,NNE,16,0.0,3.0,92,0.00,,SKC,0.00,VWS V13.01,2013-03-02 12:55:00,
2013-03-02 07:56:00,31.9,29.8,29.66,NNE,16,0.0,3.0,92,0.00,,SKC,0.00,VWS V13.01,2013-03-02 12:56:00,
2013-03-02 07:57:00,32.2,30.1,29.66,NNE,15,0.0,3.0,92,0.00,,SKC,0.00,VWS V13.01,2013-03-02 12:57:00,
2013-03-02 07:58:00,32.3,30.2,29.66,NNE,15,0.0,3.0,92,0.00,,SKC,0.00,VWS V13.01,2013-03-02 12:58:00,
2013-03-02 07:59:00,32.3,30.2,29.66,NNE,16,0.0,3.0,92,0.00,,SKC,0.00,VWS V13.01,2013-03-02 12:59:00,
2013-03-02 08:00:00,32.3,30.2,29.66,NNE,16,0.0,3.0,92,0.00,,SKC,0.00,VWS V13.01,2013-03-02 13:00:00,
2013-03-02 08:01:00,32.0,29.9,29.66,NNE,16,0.0,3.0,92,0.00,,SKC,0.00,VWS V13.01,2013-03-02 13:01:00,
2013-03-02 08:02:00,32.4,30.3,29.66,NNE,16,0.0,0.0,92,0.00,,SKC,0.00,VWS V13.01,2013-03-02 13:02:00,
2013-03-02 08:03:00,32.4,30.3,29.66,NNE,16,0.0,0.0,92,0.00,,SKC,0.00,VWS V13.01,2013-03-02 13:03:00,
2013-03-02 08:04:00,32.5,30.4,29.66,NNE,15,0.0,0.0,92,0.00,,SKC,0.00,VWS V13.01,2013-03-02 13:04:00,
2013-03-02 08:05:00,32.5,30.4,29.66,NNE,15,0.0,0.0,92,0.00,,SKC,0.00,VWS V13.01,2013-03-02 13:05:00,
2013-03-02 08:06:00,32.2,30.1,29.66,NNE,16,0.0,3.0,92,0.00,,SKC,0.00,VWS V13.01,2013-03-02 13:06:00,
2013-03-02 08:07:00,32.6,30.5,29.66,NNE,19,0.0,3.0,92,0.00,,SKC,0.00,VWS V13.01,2013-03-02 13:07:00,
2013-03-02 08:08:00,32.7,30.6,29.66,NNE,19,0.0,3.0,92,0.00,,SKC,0.00,VWS V13.01,2013-03-02 13:08:00,
2013-03-02 08:09:00,32.7,30.4,29.66,NNE,19,0.0,3.0,91,0.00,,SKC,0.00,VWS V13.01,2013-03-02 13:09:00,
2013-03-02 08:10:00,32.7,30.4,29.66,NNE,19,1.0,3.0,91,0.00,,SKC,0.00,VWS V13.01,2013-03-02 13:10:00,
2013-03-02 08:11:00,32.8,30.5,29.66,NNE,19,2.0,3.0,91,0.00,,SKC,0.00,VWS V13.01,2013-03-02 13:11:00,
2013-03-02 08:12:00,32.8,30.5,29.66,NNE,19,0.0,3.0,91,0.00,,SKC,0.00,VWS V13.01,2013-03-02 13:12:00,
2013-03-02 08:13:00,32.8,30.5,29.66,NNE,19,1.0,3.0,91,0.00,,SKC,0.00,VWS V13.01,2013-03-02 13:13:00,
2013-03-02 08:14:00,32.8,30.5,29.66,NNE,19,0.0,3.0,91,0.00,,SKC,0.00,VWS V13.01,2013-03-02 13:14:00,
2013-03-02 08:15:00,32.8,30.5,29.66,NNE,19,0.0,3.0,91,0.00,,SKC,0.00,VWS V13.01,2013-03-02 13:15:00,
2013-03-02 08:16:00,32.6,30.5,29.66,NNE,16,0.0,0.0,92,0.00,,SKC,0.00,VWS V13.01,2013-03-02 13:16:00,
2013-03-02 08:17:00,32.8,30.5,29.66,NNE,17,1.0,4.0,91,0.00,,SKC,0.00,VWS V13.01,2013-03-02 13:17:00,
2013-03-02 08:18:00,32.8,30.5,29.66,NNE,17,0.0,4.0,91,0.00,,SKC,0.00,VWS V13.01,2013-03-02 13:18:00,
2013-03-02 08:19:00,32.9,30.6,29.66,NNE,17,2.0,4.0,91,0.01,,SKC,0.01,VWS V13.01,2013-03-02 13:19:00,
2013-03-02 08:20:00,32.9,30.6,29.65,NNE,18,3.0,4.0,91,0.01,,SKC,0.01,VWS V13.01,2013-03-02 13:20:00,
2013-03-02 08:21:00,32.8,30.5,29.66,NNE,19,2.0,3.0,91,0.00,,SKC,0.00,VWS V13.01,2013-03-02 13:21:00,
2013-03-02 08:22:00,32.9,30.6,29.65,NNE,17,0.0,4.0,91,0.01,,SKC,0.01,VWS V13.01,2013-03-02 13:22:00,
2013-03-02 08:23:00,32.9,30.6,29.65,NNE,17,2.0,4.0,91,0.01,,SKC,0.01,VWS V13.01,2013-03-02 13:23:00,
2013-03-02 08:24:00,32.9,30.6,29.65,NNE,18,1.0,4.0,91,0.01,,SKC,0.01,VWS V13.01,2013-03-02 13:24:00,
2013-03-02 08:25:00,32.9,30.6,29.65,NNE,18,0.0,4.0,91,0.01,,SKC,0.01,VWS V13.01,2013-03-02 13:25:00,
2013-03-02 08:26:00,32.8,30.5,29.66,NNE,18,2.0,3.0,91,0.00,,SKC,0.00,VWS V13.01,2013-03-02 13:26:00,
2013-03-02 08:27:00,33.0,30.7,29.65,NNE,17,0.0,4.0,91,0.01,,SKC,0.01,VWS V13.01,2013-03-02 13:27:00,
2013-03-02 08:28:00,33.0,30.7,29.65,NNE,17,2.0,4.0,91,0.01,,SKC,0.01,VWS V13.01,2013-03-02 13:28:00,
2013-03-02 08:29:00,33.1,30.8,29.65,NNE,15,3.0,4.0,91,0.02,,SKC,0.02,VWS V13.01,2013-03-02 13:29:00,
2013-03-02 08:30:00,33.1,30.8,29.65,North,5,1.0,5.0,91,0.02,,SKC,0.02,VWS V13.01,2013-03-02 13:30:00,
2013-03-02 08:31:00,33.1,30.8,29.65,North,5,4.0,4.0,91,0.02,,SKC,0.02,VWS V13.01,2013-03-02 13:31:00,
2013-03-02 08:32:00,32.9,30.6,29.65,NNE,17,0.0,4.0,91,0.01,,SKC,0.01,VWS V13.01,2013-03-02 13:32:00,
2013-03-02 08:33:00,33.2,30.6,29.65,North,360,3.0,5.0,90,0.02,,SKC,0.02,VWS V13.01,2013-03-02 13:33:00,
2013-03-02 08:34:00,33.2,30.6,29.65,North,360,0.0,5.0,90,0.02,,SKC,0.02,VWS V13.01,2013-03-02 13:34:00,
2013-03-02 08:35:00,33.3,30.7,29.65,North,360,4.0,5.0,90,0.02,,SKC,0.02,VWS V13.01,2013-03-02 13:35:00,
2013-03-02 08:36:00,33.3,30.7,29.65,North,5,1.0,5.0,90,0.02,,SKC,0.02,VWS V13.01,2013-03-02 13:36:00,
2013-03-02 08:37:00,33.3,30.7,29.65,NNE,14,3.0,5.0,90,0.02,,SKC,0.02,VWS V13.01,2013-03-02 13:37:00,
2013-03-02 08:38:00,33.4,30.8,29.65,NNE,13,4.0,5.0,90,0.02,,SKC,0.02,VWS V13.01,2013-03-02 13:38:00,
2013-03-02 08:39:00,33.4,30.8,29.65,North,10,1.0,5.0,90,0.03,,SKC,0.03,VWS V13.01,2013-03-02 13:39:00,
2013-03-02 08:40:00,33.5,30.9,29.65,North,360,3.0,5.0,90,0.03,,SKC,0.03,VWS V13.01,2013-03-02 13:40:00,
2013-03-02 08:41:00,33.5,30.9,29.65,North,5,4.0,5.0,90,0.03,,SKC,0.03,VWS V13.01,2013-03-02 13:41:00,
2013-03-02 08:42:00,33.6,31.0,29.65,North,5,2.0,5.0,90,0.03,,SKC,0.03,VWS V13.01,2013-03-02 13:42:00,
2013-03-02 08:43:00,33.7,31.1,29.65,NNE,19,3.0,5.0,90,0.03,,SKC,0.03,VWS V13.01,2013-03-02 13:43:00,
2013-03-02 08:44:00,33.7,30.8,29.65,NNE,19,2.0,5.0,89,0.03,,SKC,0.03,VWS V13.01,2013-03-02 13:44:00,
2013-03-02 08:45:00,33.7,30.8,29.65,NNE,19,2.0,5.0,89,0.03,,SKC,0.03,VWS V13.01,2013-03-02 13:45:00,
2013-03-02 08:46:00,33.8,30.9,29.65,NNE,19,3.0,5.0,89,0.03,,SKC,0.03,VWS V13.01,2013-03-02 13:46:00,
2013-03-02 08:47:00,33.9,31.0,29.65,NNE,15,3.0,5.0,89,0.03,,SKC,0.03,VWS V13.01,2013-03-02 13:47:00,
2013-03-02 08:48:00,33.9,31.0,29.65,NNE,15,2.0,5.0,89,0.03,,SKC,0.03,VWS V13.01,2013-03-02 13:48:00,
2013-03-02 08:49:00,34.0,31.1,29.65,NNE,30,5.0,5.0,89,0.03,,SKC,0.03,VWS V13.01,2013-03-02 13:49:00,
2013-03-02 08:50:00,34.0,31.1,29.65,NNW,346,4.0,5.0,89,0.03,,SKC,0.03,VWS V13.01,2013-03-02 13:50:00,
2013-03-02 08:51:00,34.1,31.2,29.65,NNW,346,3.0,5.0,89,0.03,,SKC,0.03,VWS V13.01,2013-03-02 13:51:00,
2013-03-02 08:52:00,34.1,31.2,29.65,North,355,3.0,5.0,89,0.04,,SKC,0.04,VWS V13.01,2013-03-02 13:52:00,
2013-03-02 08:53:00,34.1,31.2,29.65,North,360,2.0,5.0,89,0.04,,SKC,0.04,VWS V13.01,2013-03-02 13:53:00,
2013-03-02 08:54:00,33.7,30.8,29.65,NNE,19,2.0,5.0,89,0.03,,SKC,0.03,VWS V13.01,2013-03-02 13:54:00,
2013-03-02 08:55:00,34.2,31.0,29.65,North,360,3.0,5.0,88,0.04,,SKC,0.04,VWS V13.01,2013-03-02 13:55:00,
2013-03-02 08:56:00,34.2,31.0,29.65,North,360,2.0,5.0,88,0.04,,SKC,0.04,VWS V13.01,2013-03-02 13:56:00,
2013-03-02 08:57:00,34.3,31.1,29.65,North,360,1.0,5.0,88,0.04,,SKC,0.04,VWS V13.01,2013-03-02 13:57:00,
2013-03-02 08:58:00,34.4,31.2,29.65,North,360,0.0,5.0,88,0.04,,SKC,0.04,VWS V13.01,2013-03-02 13:58:00,
2013-03-02 08:59:00,34.4,31.2,29.65,North,350,2.0,5.0,88,0.04,,SKC,0.04,VWS V13.01,2013-03-02 13:59:00,
2013-03-02 09:00:00,34.4,31.2,29.65,North,355,3.0,5.0,88,0.04,,SKC,0.04,VWS V13.01,2013-03-02 14:00:00,
2013-03-02 09:01:00,34.0,31.1,29.65,NNW,346,4.0,5.0,89,0.03,,SKC,0.03,VWS V13.01,2013-03-02 14:01:00,
2013-03-02 09:02:00,34.4,31.2,29.65,NNW,344,1.0,6.0,88,0.04,,SKC,0.04,VWS V13.01,2013-03-02 14:02:00,
2013-03-02 09:03:00,34.4,31.2,29.65,North,360,3.0,9.0,88,0.04,,SKC,0.04,VWS V13.01,2013-03-02 14:03:00,
2013-03-02 09:04:00,34.4,31.2,29.65,NE,40,3.0,9.0,88,0.04,,SKC,0.04,VWS V13.01,2013-03-02 14:04:00,
2013-03-02 09:05:00,34.4,31.2,29.65,North,360,3.0,9.0,88,0.04,,SKC,0.04,VWS V13.01,2013-03-02 14:05:00,
2013-03-02 09:06:00,34.2,31.0,29.65,North,360,2.0,5.0,88,0.04,,SKC,0.04,VWS V13.01,2013-03-02 14:06:00,
2013-03-02 09:07:00,34.4,31.2,29.65,NNW,344,6.0,9.0,88,0.04,,SKC,0.04,VWS V13.01,2013-03-02 14:07:00,
2013-03-02 09:08:00,34.4,30.9,29.65,ENE,57,3.0,9.0,87,0.04,,SKC,0.04,VWS V13.01,2013-03-02 14:08:00,
2013-03-02 09:09:00,34.4,30.9,29.65,NNE,25,4.0,9.0,87,0.04,,SKC,0.04,VWS V13.01,2013-03-02 14:09:00,
2013-03-02 09:10:00,34.4,30.9,29.65,North,360,4.0,9.0,87,0.04,,SKC,0.04,VWS V13.01,2013-03-02 14:10:00,
2013-03-02 09:11:00,34.4,30.9,29.65,North,355,4.0,9.0,87,0.04,,SKC,0.04,VWS V13.01,2013-03-02 14:11:00,
2013-03-02 09:12:00,34.4,31.2,29.65,NNW,344,1.0,6.0,88,0.04,,SKC,0.04,VWS V13.01,2013-03-02 14:12:00,
2013-03-02 09:13:00,34.7,31.2,29.65,NE,54,2.0,9.0,87,0.05,,SKC,0.05,VWS V13.01,2013-03-02 14:13:00,
2013-03-02 09:14:00,34.8,31.3,29.64,NNE,16,3.0,9.0,87,0.05,,SKC,0.05,VWS V13.01,2013-03-02 14:14:00,
2013-03-02 09:15:00,34.8,31.3,29.64,NNE,16,0.0,9.0,87,0.05,,SKC,0.05,VWS V13.01,2013-03-02 14:15:00,
2013-03-02 09:16:00,35.0,31.5,29.64,NNW,344,2.0,9.0,87,0.05,,SKC,0.05,VWS V13.01,2013-03-02 14:16:00,
2013-03-02 09:17:00,35.1,31.6,29.65,North,360,4.0,9.0,87,0.05,,SKC,0.05,VWS V13.01,2013-03-02 14:17:00,
2013-03-02 09:18:00,35.2,31.4,29.65,NNE,31,1.0,9.0,86,0.05,,SKC,0.05,VWS V13.01,2013-03-02 14:18:00,
2013-03-02 09:19:00,35.3,31.5,29.65,NNE,30,1.0,9.0,86,0.05,,SKC,0.05,VWS V13.01,2013-03-02 14:19:00,
2013-03-02 09:20:00,34.4,30.9,29.65,North,360,4.0,9.0,87,0.04,,SKC,0.04,VWS V13.01,2013-03-02 14:20:00,
2013-03-02 09:21:00,35.6,31.8,29.64,NNE,30,2.0,9.0,86,0.05,,SKC,0.05,VWS V13.01,2013-03-02 14:21:00,
2013-03-02 09:22:00,35.7,31.9,29.64,NNW,336,3.0,9.0,86,0.05,,SKC,0.05,VWS V13.01,2013-03-02 14:22:00,
2013-03-02 09:23:00,35.7,31.9,29.64,NW,324,5.0,9.0,86,0.05,,SKC,0.05,VWS V13.01,2013-03-02 14:23:00,
2013-03-02 09:24:00,35.8,32.0,29.64,NW,313,0.0,9.0,86,0.06,,SKC,0.06,VWS V13.01,2013-03-02 14:24:00,
2013-03-02 09:25:00,35.9,32.1,29.64,NNE,25,3.0,9.0,86,0.06,,SKC,0.06,VWS V13.01,2013-03-02 14:25:00,
2013-03-02 09:26:00,35.9,32.1,29.64,NNE,21,0.0,9.0,86,0.06,,SKC,0.06,VWS V13.01,2013-03-02 14:26:00,
2013-03-02 09:27:00,35.9,31.8,29.64,North,10,2.0,9.0,85,0.06,,SKC,0.06,VWS V13.01,2013-03-02 14:27:00,
2013-03-02 09:28:00,35.9,31.8,29.64,NNW,337,4.0,9.0,85,0.06,,SKC,0.06,VWS V13.01,2013-03-02 14:28:00,
2013-03-02 09:29:00,35.9,31.8,29.64,North,350,5.0,9.0,85,0.06,,SKC,0.06,VWS V13.01,2013-03-02 14:29:00,
2013-03-02 09:30:00,35.9,31.8,29.64,NNW,346,5.0,9.0,85,0.06,,SKC,0.06,VWS V13.01,2013-03-02 14:30:00,
2013-03-02 09:31:00,35.5,31.7,29.64,NNE,31,3.0,9.0,86,0.05,,SKC,0.05,VWS V13.01,2013-03-02 14:31:00,
2013-03-02 09:32:00,35.9,31.8,29.64,NE,49,2.0,5.0,85,0.04,,SKC,0.06,VWS V13.01,2013-03-02 14:32:00,
2013-03-02 09:33:00,35.9,31.8,29.64,NE,48,0.0,5.0,85,0.04,,SKC,0.06,VWS V13.01,2013-03-02 14:33:00,
2013-03-02 09:34:00,36.0,31.9,29.64,NE,49,0.0,5.0,85,0.04,,SKC,0.06,VWS V13.01,2013-03-02 14:34:00,
2013-03-02 09:35:00,36.0,31.9,29.64,NNE,15,5.0,5.0,85,0.04,,SKC,0.06,VWS V13.01,2013-03-02 14:35:00,
2013-03-02 09:36:00,36.1,32.0,29.64,NNE,14,0.0,5.0,85,0.04,,SKC,0.06,VWS V13.01,2013-03-02 14:36:00,
2013-03-02 09:37:00,35.9,31.8,29.64,North,11,4.0,9.0,85,0.06,,SKC,0.06,VWS V13.01,2013-03-02 14:37:00,
2013-03-02 09:38:00,36.1,32.0,29.64,ENE,59,7.0,12.0,85,0.04,,SKC,0.06,VWS V13.01,2013-03-02 14:38:00,
2013-03-02 09:39:00,36.1,32.0,29.64,ENE,65,0.0,12.0,85,0.05,,SKC,0.07,VWS V13.01,2013-03-02 14:39:00,
2013-03-02 09:40:00,36.1,32.0,29.64,ENE,65,0.0,12.0,85,0.05,,SKC,0.07,VWS V13.01,2013-03-02 14:40:00,
2013-03-02 09:41:00,36.1,32.0,29.64,NE,40,2.0,12.0,85,0.05,,SKC,0.07,VWS V13.01,2013-03-02 14:41:00,
2013-03-02 09:42:00,36.1,32.0,29.64,NNW,348,2.0,12.0,85,0.05,,SKC,0.07,VWS V13.01,2013-03-02 14:42:00,
2013-03-02 09:43:00,36.1,32.0,29.64,NE,45,3.0,12.0,85,0.05,,SKC,0.07,VWS V13.01,2013-03-02 14:43:00,
2013-03-02 09:44:00,36.1,31.7,29.64,North,5,4.0,12.0,84,0.05,,SKC,0.07,VWS V13.01,2013-03-02 14:44:00,
2013-03-02 09:45:00,36.1,31.7,29.64,NE,34,5.0,12.0,84,0.05,,SKC,0.07,VWS V13.01,2013-03-02 14:45:00,
2013-03-02 09:46:00,36.1,31.7,29.64,NNE,30,4.0,12.0,84,0.05,,SKC,0.07,VWS V13.01,2013-03-02 14:46:00,
2013-03-02 09:47:00,36.1,31.7,29.64,NE,34,4.0,12.0,84,0.05,,SKC,0.07,VWS V13.01,2013-03-02 14:47:00,
2013-03-02 09:48:00,36.2,32.1,29.64,ENE,69,9.0,12.0,85,0.04,,SKC,0.06,VWS V13.01,2013-03-02 14:48:00,
2013-03-02 09:49:00,36.0,31.6,29.64,NNE,24,4.0,12.0,84,0.05,,SKC,0.07,VWS V13.01,2013-03-02 14:49:00,
2013-03-02 09:50:00,36.0,31.6,29.64,NNE,24,2.0,12.0,84,0.05,,SKC,0.07,VWS V13.01,2013-03-02 14:50:00,
2013-03-02 09:51:00,36.1,31.7,29.64,NW,321,4.0,12.0,84,0.05,,SKC,0.07,VWS V13.01,2013-03-02 14:51:00,
2013-03-02 09:52:00,36.1,31.7,29.64,NNW,346,4.0,12.0,84,0.05,,SKC,0.07,VWS V13.01,2013-03-02 14:52:00,
2013-03-02 09:53:00,36.1,31.7,29.64,NNE,19,3.0,12.0,84,0.05,,SKC,0.07,VWS V13.01,2013-03-02 14:53:00,
2013-03-02 09:54:00,36.1,31.7,29.64,North,11,3.0,12.0,84,0.05,,SKC,0.07,VWS V13.01,2013-03-02 14:54:00,
2013-03-02 09:55:00,36.1,31.7,29.64,NNE,30,5.0,12.0,84,0.05,,SKC,0.07,VWS V13.01,2013-03-02 14:55:00,
2013-03-02 09:56:00,36.2,31.8,29.64,North,360,4.0,12.0,84,0.05,,SKC,0.07,VWS V13.01,2013-03-02 14:56:00,
2013-03-02 09:57:00,36.2,31.5,29.64,NNW,338,5.0,12.0,83,0.05,,SKC,0.07,VWS V13.01,2013-03-02 14:57:00,
2013-03-02 09:58:00,36.2,31.5,29.64,NNE,18,6.0,12.0,83,0.05,,SKC,0.07,VWS V13.01,2013-03-02 14:58:00,
2013-03-02 09:59:00,36.2,31.5,29.64,North,349,3.0,12.0,83,0.05,,SKC,0.07,VWS V13.01,2013-03-02 14:59:00,
2013-03-02 10:00:00,36.2,31.5,29.64,NE,52,5.0,12.0,83,0.05,,SKC,0.07,VWS V13.01,2013-03-02 15:00:00,
2013-03-02 10:01:00,36.3,31.6,29.64,NNW,329,5.0,6.0,83,0.03,,SKC,0.07,VWS V13.01,2013-03-02 15:01:00,
2013-03-02 10:02:00,36.1,31.7,29.64,NNW,341,4.0,12.0,84,0.05,,SKC,0.07,VWS V13.01,2013-03-02 15:02:00,
2013-03-02 10:03:00,36.3,31.6,29.64,North,355,3.0,6.0,83,0.03,,SKC,0.07,VWS V13.01,2013-03-02 15:03:00,
2013-03-02 10:04:00,36.4,31.7,29.64,NNW,348,6.0,9.0,83,0.03,,SKC,0.07,VWS V13.01,2013-03-02 15:04:00,
2013-03-02 10:05:00,36.4,31.7,29.64,NNE,16,3.0,9.0,83,0.03,,SKC,0.07,VWS V13.01,2013-03-02 15:05:00,
2013-03-02 10:06:00,36.4,31.7,29.64,NE,42,9.0,9.0,83,0.03,,SKC,0.07,VWS V13.01,2013-03-02 15:06:00,
2013-03-02 10:07:00,36.4,31.4,29.64,North,360,2.0,9.0,82,0.03,,SKC,0.07,VWS V13.01,2013-03-02 15:07:00,
2013-03-02 10:08:00,36.4,31.4,29.64,NNE,18,4.0,9.0,82,0.03,,SKC,0.07,VWS V13.01,2013-03-02 15:08:00,
2013-03-02 10:09:00,36.4,31.4,29.64,North,360,5.0,9.0,82,0.03,,SKC,0.07,VWS V13.01,2013-03-02 15:09:00,
2013-03-02 10:10:00,36.4,31.4,29.64,NNW,341,8.0,9.0,82,0.03,,SKC,0.07,VWS V13.01,2013-03-02 15:10:00,
2013-03-02 10:11:00,36.5,31.5,29.64,NNW,341,3.0,9.0,82,0.03,,SKC,0.07,VWS V13.01,2013-03-02 15:11:00,
2013-03-02 10:12:00,36.5,31.5,29.64,North,355,5.0,9.0,82,0.03,,SKC,0.07,VWS V13.01,2013-03-02 15:12:00,
2013-03-02 10:13:00,36.3,31.6,29.64,North,355,3.0,6.0,83,0.03,,SKC,0.07,VWS V13.01,2013-03-02 15:13:00,
2013-03-02 10:14:00,36.6,31.3,29.64,NE,46,5.0,11.0,81,0.03,,SKC,0.07,VWS V13.01,2013-03-02 15:14:00,
2013-03-02 10:15:00,36.6,31.3,29.64,North,5,5.0,11.0,81,0.03,,SKC,0.07,VWS V13.01,2013-03-02 15:15:00,
2013-03-02 10:16:00,36.5,31.2,29.64,North,5,9.0,11.0,81,0.03,,SKC,0.07,VWS V13.01,2013-03-02 15:16:00,
2013-03-02 10:17:00,36.4,30.8,29.64,North,355,9.0,11.0,80,0.03,,SKC,0.07,VWS V13.01,2013-03-02 15:17:00,
2013-03-02 10:18:00,36.4,30.8,29.64,North,355,2.0,11.0,80,0.03,,SKC,0.07,VWS V13.01,2013-03-02 15:18:00,
2013-03-02 10:19:00,36.5,31.2,29.64,North,355,2.0,11.0,81,0.03,,SKC,0.07,VWS V13.01,2013-03-02 15:19:00,
2013-03-02 10:20:00,36.5,31.2,29.64,ENE,67,10.0,11.0,81,0.03,,SKC,0.07,VWS V13.01,2013-03-02 15:20:00,
2013-03-02 10:21:00,36.5,30.9,29.64,NNE,14,3.0,11.0,80,0.03,,SKC,0.07,VWS V13.01,2013-03-02 15:21:00,
2013-03-02 10:22:00,36.5,30.9,29.64,ENE,63,3.0,11.0,80,0.03,,SKC,0.07,VWS V13.01,2013-03-02 15:22:00,
2013-03-02 10:23:00,36.6,31.0,29.64,ENE,61,3.0,11.0,80,0.03,,SKC,0.07,VWS V13.01,2013-03-02 15:23:00,
2013-03-02 10:24:00,36.6,31.0,29.64,NW,321,4.0,11.0,80,0.03,,SKC,0.07,VWS V13.01,2013-03-02 15:24:00,
2013-03-02 10:25:00,36.6,31.0,29.64,ENE,69,7.0,11.0,80,0.03,,SKC,0.07,VWS V13.01,2013-03-02 15:25:00,
2013-03-02 10:26:00,36.6,31.0,29.64,North,349,2.0,11.0,80,0.03,,SKC,0.07,VWS V13.01,2013-03-02 15:26:00,
2013-03-02 10:27:00,36.7,31.1,29.64,NE,34,3.0,11.0,80,0.03,,SKC,0.07,VWS V13.01,2013-03-02 15:27:00,
2013-03-02 10:28:00,36.7,31.1,29.64,ENE,60,7.0,11.0,80,0.03,,SKC,0.07,VWS V13.01,2013-03-02 15:28:00,
2013-03-02 10:29:00,36.8,31.2,29.64,NNW,337,3.0,11.0,80,0.03,,SKC,0.07,VWS V13.01,2013-03-02 15:29:00,
2013-03-02 10:30:00,36.8,31.2,29.64,NW,304,2.0,11.0,80,0.03,,SKC,0.07,VWS V13.01,2013-03-02 15:30:00,
2013-03-02 10:31:00,36.9,31.6,29.63,NNW,348,6.0,6.0,81,0.01,,SKC,0.07,VWS V13.01,2013-03-02 15:31:00,
2013-03-02 10:32:00,36.9,31.3,29.63,North,360,1.0,6.0,80,0.01,,SKC,0.07,VWS V13.01,2013-03-02 15:32:00,
2013-03-02 10:33:00,37.0,31.7,29.63,North,5,2.0,6.0,81,0.01,,SKC,0.07,VWS V13.01,2013-03-02 15:33:00,
2013-03-02 10:34:00,37.1,31.8,29.63,North,10,2.0,6.0,81,0.01,,SKC,0.07,VWS V13.01,2013-03-02 15:34:00,
2013-03-02 10:35:00,36.6,31.0,29.64,ENE,60,4.0,11.0,80,0.03,,SKC,0.07,VWS V13.01,2013-03-02 15:35:00,
2013-03-02 10:36:00,37.3,32.0,29.63,North,355,1.0,6.0,81,0.01,,SKC,0.07,VWS V13.01,2013-03-02 15:36:00,
2013-03-02 10:37:00,37.3,31.7,29.63,North,360,2.0,7.0,80,0.01,,SKC,0.07,VWS V13.01,2013-03-02 15:37:00,
2013-03-02 10:38:00,37.4,31.8,29.63,NNE,26,9.0,9.0,80,0.01,,SKC,0.07,VWS V13.01,2013-03-02 15:38:00,
2013-03-02 10:39:00,37.5,31.6,29.63,North,355,1.0,9.0,79,0.01,,SKC,0.07,VWS V13.01,2013-03-02 15:39:00,
2013-03-02 10:40:00,37.6,32.0,29.63,NE,50,3.0,9.0,80,0.01,,SKC,0.07,VWS V13.01,2013-03-02 15:40:00,
2013-03-02 10:41:00,36.9,31.6,29.64,NNE,21,4.0,5.0,81,0.03,,SKC,0.07,VWS V13.01,2013-03-02 15:41:00,
2013-03-02 10:42:00,37.8,32.2,29.63,NNE,32,3.0,9.0,80,0.01,,SKC,0.07,VWS V13.01,2013-03-02 15:42:00,
2013-03-02 10:43:00,37.9,32.3,29.63,NNE,32,1.0,9.0,80,0.01,,SKC,0.07,VWS V13.01,2013-03-02 15:43:00,
2013-03-02 10:44:00,38.0,32.4,29.63,NE,37,2.0,9.0,80,0.01,,SKC,0.07,VWS V13.01,2013-03-02 15:44:00,
2013-03-02 10:45:00,38.0,32.4,29.63,NE,40,3.0,9.0,80,0.01,,SKC,0.07,VWS V13.01,2013-03-02 15:45:00,
2013-03-02 10:46:00,38.0,32.1,29.63,NE,54,1.0,9.0,79,0.01,,SKC,0.07,VWS V13.01,2013-03-02 15:46:00,
2013-03-02 10:47:00,37.3,31.7,29.63,North,5,2.0,7.0,80,0.01,,SKC,0.07,VWS V13.01,2013-03-02 15:47:00,
2013-03-02 10:48:00,38.1,31.5,29.64,NNE,25,3.0,9.0,77,0.01,,SKC,0.07,VWS V13.01,2013-03-02 15:48:00,
2013-03-02 10:49:00,38.1,31.5,29.64,North,350,3.0,9.0,77,0.01,,SKC,0.07,VWS V13.01,2013-03-02 15:49:00,
2013-03-02 10:50:00,38.1,31.5,29.63,NE,46,3.0,9.0,77,0.01,,SKC,0.07,VWS V13.01,2013-03-02 15:50:00,
2013-03-02 10:51:00,38.1,31.5,29.64,NE,46,2.0,9.0,77,0.01,,SKC,0.07,VWS V13.01,2013-03-02 15:51:00,
2013-03-02 10:52:00,38.2,32.0,29.63,NE,44,6.0,9.0,78,0.01,,SKC,0.07,VWS V13.01,2013-03-02 15:52:00,
2013-03-02 10:53:00,38.1,31.5,29.63,NE,40,3.0,12.0,77,0.01,,SKC,0.07,VWS V13.01,2013-03-02 15:53:00,
2013-03-02 10:54:00,38.0,32.4,29.63,NNE,33,0.0,9.0,80,0.01,,SKC,0.07,VWS V13.01,2013-03-02 15:54:00,
2013-03-02 10:55:00,38.1,31.5,29.63,NNE,26,4.0,12.0,77,0.01,,SKC,0.07,VWS V13.01,2013-03-02 15:55:00,
2013-03-02 10:56:00,38.2,31.3,29.63,North,360,10.0,12.0,76,0.01,,SKC,0.07,VWS V13.01,2013-03-02 15:56:00,
2013-03-02 10:57:00,38.2,31.3,29.63,NE,53,7.0,12.0,76,0.01,,SKC,0.07,VWS V13.01,2013-03-02 15:57:00,
2013-03-02 10:58:00,38.1,31.2,29.63,NNE,30,9.0,12.0,76,0.01,,SKC,0.07,VWS V13.01,2013-03-02 15:58:00,
2013-03-02 10:59:00,38.1,31.2,29.63,NNE,28,3.0,12.0,76,0.01,,SKC,0.07,VWS V13.01,2013-03-02 15:59:00,
2013-03-02 11:00:00,38.1,31.2,29.63,NE,53,9.0,12.0,76,0.01,,SKC,0.07,VWS V13.01,2013-03-02 16:00:00,
2013-03-02 11:01:00,38.1,31.2,29.63,NE,44,5.0,9.0,76,0.01,,SKC,0.07,VWS V13.01,2013-03-02 16:01:00,
2013-03-02 11:02:00,38.1,31.2,29.63,North,355,6.0,9.0,76,0.00,,SKC,0.07,VWS V13.01,2013-03-02 16:02:00,
2013-03-02 11:03:00,38.0,31.1,29.63,ENE,65,4.0,9.0,76,0.00,,SKC,0.07,VWS V13.01,2013-03-02 16:03:00,
2013-03-02 11:04:00,38.0,30.8,29.64,NW,315,5.0,10.0,75,0.00,,SKC,0.07,VWS V13.01,2013-03-02 16:04:00,
2013-03-02 11:05:00,38.1,31.5,29.63,NNE,26,4.0,12.0,77,0.01,,SKC,0.07,VWS V13.01,2013-03-02 16:05:00,
2013-03-02 11:06:00,38.0,31.1,29.63,NNE,28,9.0,10.0,76,0.00,,SKC,0.07,VWS V13.01,2013-03-02 16:06:00,
2013-03-02 11:07:00,38.0,30.8,29.63,NE,55,4.0,12.0,75,0.00,,SKC,0.07,VWS V13.01,2013-03-02 16:07:00,
2013-03-02 11:08:00,38.0,31.1,29.63,NE,54,4.0,12.0,76,0.00,,SKC,0.07,VWS V13.01,2013-03-02 16:08:00,
2013-03-02 11:09:00,38.0,31.1,29.63,NNE,25,2.0,12.0,76,0.00,,SKC,0.07,VWS V13.01,2013-03-02 16:09:00,
2013-03-02 11:10:00,38.0,31.1,29.63,NNE,30,3.0,12.0,76,0.00,,SKC,0.07,VWS V13.01,2013-03-02 16:10:00,
2013-03-02 11:11:00,38.0,31.1,29.63,NNE,28,2.0,12.0,76,0.00,,SKC,0.07,VWS V13.01,2013-03-02 16:11:00,
2013-03-02 11:12:00,38.1,31.2,29.63,North,5,3.0,12.0,76,0.00,,SKC,0.07,VWS V13.01,2013-03-02 16:12:00,
2013-03-02 11:13:00,38.2,31.3,29.63,North,355,5.0,12.0,76,0.00,,SKC,0.07,VWS V13.01,2013-03-02 16:13:00,
2013-03-02 11:14:00,38.3,31.4,29.63,NE,45,5.0,12.0,76,0.00,,SKC,0.07,VWS V13.01,2013-03-02 16:14:00,
2013-03-02 11:15:00,38.3,31.1,29.63,ENE,67,2.0,12.0,75,0.00,,SKC,0.07,VWS V13.01,2013-03-02 16:15:00,
2013-03-02 11:16:00,38.0,31.1,29.64,NNW,331,7.0,10.0,76,0.00,,SKC,0.07,VWS V13.01,2013-03-02 16:16:00,
2013-03-02 11:17:00,38.4,31.2,29.63,NE,55,7.0,12.0,75,0.00,,SKC,0.07,VWS V13.01,2013-03-02 16:17:00,
2013-03-02 11:18:00,38.5,31.0,29.63,NE,42,3.0,12.0,74,0.00,,SKC,0.07,VWS V13.01,2013-03-02 16:18:00,
2013-03-02 11:19:00,38.6,31.0,29.63,North,355,6.0,12.0,74,0.00,,SKC,0.07,VWS V13.01,2013-03-02 16:19:00,
2013-03-02 11:20:00,38.6,31.0,29.63,NE,51,2.0,13.0,74,0.00,,SKC,0.07,VWS V13.01,2013-03-02 16:20:00,
2013-03-02 11:21:00,38.0,31.1,29.63,NNE,27,0.0,12.0,76,0.00,,SKC,0.07,VWS V13.01,2013-03-02 16:21:00,
2013-03-02 11:22:00,38.7,30.8,29.63,NNE,22,3.0,13.0,73,0.00,,SKC,0.07,VWS V13.01,2013-03-02 16:22:00,
2013-03-02 11:23:00,38.8,30.9,29.63,North,355,4.0,13.0,73,0.00,,SKC,0.07,VWS V13.01,2013-03-02 16:23:00,
2013-03-02 11:24:00,38.8,30.9,29.63,ENE,72,4.0,13.0,73,0.00,,SKC,0.07,VWS V13.01,2013-03-02 16:24:00,
2013-03-02 11:25:00,38.9,30.7,29.63,NE,41,5.0,13.0,72,0.00,,SKC,0.07,VWS V13.01,2013-03-02 16:25:00,
2013-03-02 11:26:00,39.0,31.1,29.63,North,5,6.0,13.0,73,0.00,,SKC,0.07,VWS V13.01,2013-03-02 16:26:00,
2013-03-02 11:27:00,39.0,30.8,29.63,NE,40,3.0,13.0,72,0.00,,SKC,0.07,VWS V13.01,2013-03-02 16:27:00,
2013-03-02 11:28:00,39.1,30.9,29.63,NE,44,8.0,13.0,72,0.00,,SKC,0.07,VWS V13.01,2013-03-02 16:28:00,
2013-03-02 11:29:00,38.6,31.0,29.63,NE,48,4.0,12.0,74,0.00,,SKC,0.07,VWS V13.01,2013-03-02 16:29:00,
2013-03-02 11:30:00,39.1,30.5,29.63,NNE,28,1.0,15.0,71,0.00,,SKC,0.07,VWS V13.01,2013-03-02 16:30:00,
2013-03-02 11:31:00,39.1,30.5,29.63,NW,312,7.0,7.0,71,0.00,,SKC,0.07,VWS V13.01,2013-03-02 16:31:00,
2013-03-02 11:32:00,39.1,30.9,29.63,North,355,9.0,9.0,72,0.00,,SKC,0.07,VWS V13.01,2013-03-02 16:32:00,
2013-03-02 11:33:00,39.1,30.5,29.63,North,350,4.0,12.0,71,0.00,,SKC,0.07,VWS V13.01,2013-03-02 16:33:00,
2013-03-02 11:34:00,39.2,30.6,29.63,NE,46,6.0,12.0,71,0.00,,SKC,0.07,VWS V13.01,2013-03-02 16:34:00,
2013-03-02 11:35:00,39.3,30.7,29.63,North,355,3.0,12.0,71,0.00,,SKC,0.07,VWS V13.01,2013-03-02 16:35:00,
2013-03-02 11:36:00,39.4,31.1,29.63,ENE,68,7.0,12.0,72,0.00,,SKC,0.07,VWS V13.01,2013-03-02 16:36:00,
2013-03-02 11:37:00,39.5,30.9,29.62,NNE,30,5.0,12.0,71,0.00,,SKC,0.07,VWS V13.01,2013-03-02 16:37:00,
2013-03-02 11:38:00,39.6,31.0,29.62,NE,39,4.0,12.0,71,0.00,,SKC,0.07,VWS V13.01,2013-03-02 16:38:00,
2013-03-02 11:39:00,39.1,30.9,29.63,NNW,346,4.0,13.0,72,0.00,,SKC,0.07,VWS V13.01,2013-03-02 16:39:00,
2013-03-02 11:40:00,40.0,31.7,29.62,North,355,7.0,12.0,72,0.00,,SKC,0.07,VWS V13.01,2013-03-02 16:40:00,
2013-03-02 11:41:00,40.2,31.2,29.62,NNE,26,10.0,12.0,70,0.00,,SKC,0.07,VWS V13.01,2013-03-02 16:41:00,
2013-03-02 11:42:00,40.2,31.2,29.62,ENE,75,12.0,13.0,70,0.00,,SKC,0.07,VWS V13.01,2013-03-02 16:42:00,
2013-03-02 11:43:00,40.2,30.9,29.62,NNE,13,11.0,13.0,69,0.00,,SKC,0.07,VWS V13.01,2013-03-02 16:43:00,
2013-03-02 11:44:00,40.1,30.4,29.62,NNE,22,6.0,13.0,68,0.00,,SKC,0.07,VWS V13.01,2013-03-02 16:44:00,
2013-03-02 11:45:00,40.1,30.4,29.62,ENE,73,4.0,13.0,68,0.00,,SKC,0.07,VWS V13.01,2013-03-02 16:45:00,
2013-03-02 11:46:00,40.1,30.8,29.62,NNE,30,3.0,13.0,69,0.00,,SKC,0.07,VWS V13.01,2013-03-02 16:46:00,
2013-03-02 11:47:00,40.1,30.8,29.62,North,5,6.0,13.0,69,0.00,,SKC,0.07,VWS V13.01,2013-03-02 16:47:00,
2013-03-02 11:48:00,40.1,30.4,29.62,NNE,32,2.0,13.0,68,0.00,,SKC,0.07,VWS V13.01,2013-03-02 16:48:00,
2013-03-02 11:49:00,40.2,30.5,29.62,ENE,58,5.0,13.0,68,0.00,,SKC,0.07,VWS V13.01,2013-03-02 16:49:00,
2013-03-02 11:50:00,40.2,30.9,29.62,NNE,32,1.0,13.0,69,0.00,,SKC,0.07,VWS V13.01,2013-03-02 16:50:00,
2013-03-02 11:51:00,40.3,31.0,29.62,NNE,32,5.0,13.0,69,0.00,,SKC,0.07,VWS V13.01,2013-03-02 16:51:00,
2013-03-02 11:52:00,40.3,31.0,29.62,North,9,6.0,14.0,69,0.00,,SKC,0.07,VWS V13.01,2013-03-02 16:52:00,
2013-03-02 11:53:00,40.3,30.6,29.62,NNE,17,3.0,14.0,68,0.00,,SKC,0.07,VWS V13.01,2013-03-02 16:53:00,
2013-03-02 11:54:00,40.4,30.7,29.62,North,9,4.0,14.0,68,0.00,,SKC,0.07,VWS V13.01,2013-03-02 16:54:00,
2013-03-02 11:55:00,40.4,30.7,29.62,NE,34,4.0,14.0,68,0.00,,SKC,0.07,VWS V13.01,2013-03-02 16:55:00,
2013-03-02 11:56:00,40.5,30.8,29.61,NNE,29,6.0,14.0,68,0.00,,SKC,0.07,VWS V13.01,2013-03-02 16:56:00,
2013-03-02 11:57:00,40.5,30.8,29.61,North,355,8.0,14.0,68,0.00,,SKC,0.07,VWS V13.01,2013-03-02 16:57:00,
2013-03-02 11:58:00,40.5,30.4,29.61,NE,53,5.0,14.0,67,0.00,,SKC,0.07,VWS V13.01,2013-03-02 16:58:00,
2013-03-02 11:59:00,40.5,30.0,29.61,NE,36,13.0,14.0,66,0.00,,SKC,0.07,VWS V13.01,2013-03-02 16:59:00,
2013-03-02 12:00:00,40.5,30.4,29.62,NE,45,5.0,14.0,67,0.00,,SKC,0.07,VWS V13.01,2013-03-02 17:00:00,
2013-03-02 12:01:00,40.6,30.5,29.61,NNE,32,3.0,5.0,67,0.00,,SKC,0.07,VWS V13.01,2013-03-02 17:01:00,
2013-03-02 12:02:00,40.6,30.5,29.61,North,5,6.0,11.0,67,0.00,,SKC,0.07,VWS V13.01,2013-03-02 17:02:00,
2013-03-02 12:03:00,40.6,30.1,29.61,NE,48,9.0,11.0,66,0.00,,SKC,0.07,VWS V13.01,2013-03-02 17:03:00,
2013-03-02 12:04:00,40.6,30.1,29.62,NNE,26,6.0,11.0,66,0.00,,SKC,0.07,VWS V13.01,2013-03-02 17:04:00,
2013-03-02 12:05:00,40.6,30.1,29.61,NNE,13,4.0,11.0,66,0.00,,SKC,0.07,VWS V13.01,2013-03-02 17:05:00,
2013-03-02 12:06:00,40.6,30.1,29.61,NNE,18,11.0,11.0,66,0.00,,SKC,0.07,VWS V13.01,2013-03-02 17:06:00,
2013-03-02 12:07:00,40.6,30.1,29.61,NNE,30,8.0,11.0,66,0.00,,SKC,0.07,VWS V13.01,2013-03-02 17:07:00,
2013-03-02 12:08:00,40.6,30.1,29.61,NNE,32,3.0,11.0,66,0.00,,SKC,0.07,VWS V13.01,2013-03-02 17:08:00,
2013-03-02 12:09:00,40.6,30.1,29.61,NNE,19,4.0,11.0,66,0.00,,SKC,0.07,VWS V13.01,2013-03-02 17:09:00,
2013-03-02 12:10:00,40.6,30.1,29.61,NNE,15,3.0,11.0,66,0.00,,SKC,0.07,VWS V13.01,2013-03-02 17:10:00,
2013-03-02 12:11:00,40.7,30.6,29.61,NNE,14,3.0,11.0,67,0.00,,SKC,0.07,VWS V13.01,2013-03-02 17:11:00,
2013-03-02 12:12:00,40.7,30.6,29.61,NE,37,3.0,11.0,67,0.00,,SKC,0.07,VWS V13.01,2013-03-02 17:12:00,
2013-03-02 12:13:00,40.8,30.3,29.61,NNE,17,4.0,11.0,66,0.00,,SKC,0.07,VWS V13.01,2013-03-02 17:13:00,
2013-03-02 12:14:00,40.9,30.4,29.61,North,355,4.0,11.0,66,0.00,,SKC,0.07,VWS V13.01,2013-03-02 17:14:00,
2013-03-02 12:15:00,40.9,30.4,29.61,NW,310,4.0,14.0,66,0.00,,SKC,0.07,VWS V13.01,2013-03-02 17:15:00,
2013-03-02 12:16:00,40.9,30.4,29.61,NE,52,5.0,14.0,66,0.00,,SKC,0.07,VWS V13.01,2013-03-02 17:16:00,
2013-03-02 12:17:00,41.0,30.5,29.61,NNW,332,5.0,14.0,66,0.00,,SKC,0.07,VWS V13.01,2013-03-02 17:17:00,
2013-03-02 12:18:00,41.0,30.5,29.61,NE,34,6.0,14.0,66,0.00,,SKC,0.07,VWS V13.01,2013-03-02 17:18:00,
2013-03-02 12:19:00,41.0,30.5,29.61,NNE,15,7.0,14.0,66,0.00,,SKC,0.07,VWS V13.01,2013-03-02 17:19:00,
2013-03-02 12:20:00,41.1,30.2,29.61,NNE,25,3.0,14.0,65,0.00,,SKC,0.07,VWS V13.01,2013-03-02 17:20:00,
2013-03-02 12:21:00,41.1,30.2,29.61,NNE,25,0.0,14.0,65,0.00,,SKC,0.07,VWS V13.01,2013-03-02 17:21:00,
2013-03-02 12:22:00,41.2,30.7,29.61,NNW,329,4.0,14.0,66,0.00,,SKC,0.07,VWS V13.01,2013-03-02 17:22:00,
2013-03-02 12:23:00,41.3,30.4,29.61,North,355,4.0,14.0,65,0.00,,SKC,0.07,VWS V13.01,2013-03-02 17:23:00,
2013-03-02 12:24:00,40.9,30.4,29.61,NW,318,5.0,11.0,66,0.00,,SKC,0.07,VWS V13.01,2013-03-02 17:24:00,
2013-03-02 12:25:00,41.2,30.0,29.61,NNW,329,3.0,14.0,64,0.00,,SKC,0.07,VWS V13.01,2013-03-02 17:25:00,
2013-03-02 12:26:00,41.2,30.0,29.61,ENE,57,6.0,14.0,64,0.00,,SKC,0.07,VWS V13.01,2013-03-02 17:26:00,
2013-03-02 12:27:00,41.1,29.9,29.61,North,355,4.0,14.0,64,0.00,,SKC,0.07,VWS V13.01,2013-03-02 17:27:00,
2013-03-02 12:28:00,41.1,30.2,29.61,NW,319,4.0,14.0,65,0.00,,SKC,0.07,VWS V13.01,2013-03-02 17:28:00,
2013-03-02 12:29:00,41.1,29.9,29.61,North,360,2.0,14.0,64,0.01,,SKC,0.08,VWS V13.01,2013-03-02 17:29:00,
2013-03-02 12:30:00,41.1,30.2,29.61,NNE,25,4.0,14.0,65,0.00,,SKC,0.07,VWS V13.01,2013-03-02 17:30:00,
2013-03-02 12:31:00,40.9,29.7,29.61,NE,40,6.0,9.0,64,0.01,,SKC,0.08,VWS V13.01,2013-03-02 17:31:00,
2013-03-02 12:32:00,40.9,29.7,29.61,NNW,341,12.0,12.0,64,0.01,,SKC,0.08,VWS V13.01,2013-03-02 17:32:00,
2013-03-02 12:33:00,40.7,29.5,29.61,NNW,339,5.0,12.0,64,0.01,,SKC,0.08,VWS V13.01,2013-03-02 17:33:00,
2013-03-02 12:34:00,40.7,29.9,29.61,NNE,24,4.0,12.0,65,0.01,,SKC,0.08,VWS V13.01,2013-03-02 17:34:00,
2013-03-02 12:35:00,40.6,29.8,29.61,NNE,14,9.0,12.0,65,0.01,,SKC,0.08,VWS V13.01,2013-03-02 17:35:00,
2013-03-02 12:36:00,40.6,29.4,29.61,NNW,346,4.0,12.0,64,0.01,,SKC,0.08,VWS V13.01,2013-03-02 17:36:00,
2013-03-02 12:37:00,40.6,29.8,29.61,NNE,30,6.0,12.0,65,0.01,,SKC,0.08,VWS V13.01,2013-03-02 17:37:00,
2013-03-02 12:38:00,40.6,29.8,29.61,NE,38,5.0,12.0,65,0.01,,SKC,0.08,VWS V13.01,2013-03-02 17:38:00,
2013-03-02 12:39:00,41.1,29.9,29.61,North,360,3.0,14.0,64,0.00,,SKC,0.07,VWS V13.01,2013-03-02 17:39:00,
2013-03-02 12:40:00,40.7,29.9,29.61,North,11,5.0,12.0,65,0.01,,SKC,0.08,VWS V13.01,2013-03-02 17:40:00,
2013-03-02 12:41:00,40.7,29.9,29.61,North,9,4.0,12.0,65,0.01,,SKC,0.08,VWS V13.01,2013-03-02 17:41:00,
2013-03-02 12:42:00,40.7,29.5,29.61,NE,53,5.0,12.0,64,0.01,,SKC,0.08,VWS V13.01,2013-03-02 17:42:00,
2013-03-02 12:43:00,40.6,29.4,29.61,NNE,26,2.0,12.0,64,0.01,,SKC,0.08,VWS V13.01,2013-03-02 17:43:00,
2013-03-02 12:44:00,40.7,29.5,29.61,ENE,63,4.0,12.0,64,0.01,,SKC,0.08,VWS V13.01,2013-03-02 17:44:00,
2013-03-02 12:45:00,40.6,29.4,29.61,NNE,30,4.0,12.0,64,0.01,,SKC,0.08,VWS V13.01,2013-03-02 17:45:00,
2013-03-02 12:46:00,40.6,29.4,29.61,NE,35,12.0,12.0,64,0.01,,SKC,0.08,VWS V13.01,2013-03-02 17:46:00,
2013-03-02 12:47:00,40.6,29.4,29.61,NE,46,5.0,12.0,64,0.01,,SKC,0.08,VWS V13.01,2013-03-02 17:47:00,
2013-03-02 12:48:00,40.6,29.4,29.61,NNE,17,7.0,12.0,64,0.01,,SKC,0.08,VWS V13.01,2013-03-02 17:48:00,
2013-03-02 12:49:00,40.6,29.4,29.61,ENE,72,9.0,12.0,64,0.01,,SKC,0.08,VWS V13.01,2013-03-02 17:49:00,
2013-03-02 12:50:00,40.6,29.0,29.61,NE,54,6.0,12.0,63,0.01,,SKC,0.08,VWS V13.01,2013-03-02 17:50:00,
2013-03-02 12:51:00,40.6,29.4,29.61,NW,322,7.0,12.0,64,0.01,,SKC,0.08,VWS V13.01,2013-03-02 17:51:00,
2013-03-02 12:52:00,40.6,29.4,29.61,NNE,13,4.0,12.0,64,0.01,,SKC,0.08,VWS V13.01,2013-03-02 17:52:00,
2013-03-02 12:53:00,40.6,29.4,29.61,NNE,30,8.0,15.0,64,0.01,,SKC,0.08,VWS V13.01,2013-03-02 17:53:00,
2013-03-02 12:54:00,40.6,29.4,29.61,ENE,64,5.0,15.0,64,0.01,,SKC,0.08,VWS V13.01,2013-03-02 17:54:00,
2013-03-02 12:55:00,40.6,29.4,29.61,ENE,72,7.0,15.0,64,0.01,,SKC,0.08,VWS V13.01,2013-03-02 17:55:00,
2013-03-02 12:56:00,40.6,29.4,29.61,NNE,29,2.0,15.0,64,0.01,,SKC,0.08,VWS V13.01,2013-03-02 17:56:00,
2013-03-02 12:57:00,40.6,29.4,29.61,NNW,344,3.0,15.0,64,0.01,,SKC,0.08,VWS V13.01,2013-03-02 17:57:00,
2013-03-02 12:58:00,40.7,29.5,29.61,NE,44,4.0,15.0,64,0.01,,SKC,0.08,VWS V13.01,2013-03-02 17:58:00,
2013-03-02 12:59:00,40.7,29.5,29.61,ENE,76,8.0,15.0,64,0.01,,SKC,0.08,VWS V13.01,2013-03-02 17:59:00,
2013-03-02 13:00:00,40.6,29.0,29.61,NE,36,4.0,12.0,63,0.01,,SKC,0.08,VWS V13.01,2013-03-02 18:00:00,
2013-03-02 13:01:00,40.8,30.0,29.61,ENE,63,2.0,8.0,65,0.01,,SKC,0.08,VWS V13.01,2013-03-02 18:01:00,
2013-03-02 13:02:00,40.8,29.6,29.61,ENE,59,1.0,8.0,64,0.01,,SKC,0.08,VWS V13.01,2013-03-02 18:02:00,
2013-03-02 13:03:00,40.9,29.7,29.61,NW,326,5.0,8.0,64,0.01,,SKC,0.08,VWS V13.01,2013-03-02 18:03:00,
2013-03-02 13:04:00,40.9,29.7,29.61,NNW,348,7.0,8.0,64,0.01,,SKC,0.08,VWS V13.01,2013-03-02 18:04:00,
2013-03-02 13:05:00,40.9,29.3,29.61,North,10,4.0,12.0,63,0.01,,SKC,0.08,VWS V13.01,2013-03-02 18:05:00,
2013-03-02 13:06:00,40.8,29.2,29.61,NNE,17,7.0,12.0,63,0.01,,SKC,0.08,VWS V13.01,2013-03-02 18:06:00,
2013-03-02 13:07:00,40.7,29.1,29.61,North,351,9.0,12.0,63,0.01,,SKC,0.08,VWS V13.01,2013-03-02 18:07:00,
2013-03-02 13:08:00,40.7,29.5,29.61,NE,36,3.0,15.0,64,0.01,,SKC,0.08,VWS V13.01,2013-03-02 18:08:00,
2013-03-02 13:09:00,40.6,29.0,29.61,North,350,2.0,12.0,63,0.01,,SKC,0.08,VWS V13.01,2013-03-02 18:09:00,
2013-03-02 13:10:00,40.6,29.4,29.61,North,350,4.0,12.0,64,0.01,,SKC,0.08,VWS V13.01,2013-03-02 18:10:00,
2013-03-02 13:11:00,40.6,29.0,29.61,NW,308,7.0,12.0,63,0.01,,SKC,0.08,VWS V13.01,2013-03-02 18:11:00,
2013-03-02 13:12:00,40.6,29.0,29.60,NE,44,4.0,12.0,63,0.01,,SKC,0.08,VWS V13.01,2013-03-02 18:12:00,
2013-03-02 13:13:00,40.5,29.3,29.61,West,267,2.0,12.0,64,0.01,,SKC,0.08,VWS V13.01,2013-03-02 18:13:00,
2013-03-02 13:14:00,40.6,29.4,29.61,NNW,345,4.0,12.0,64,0.01,,SKC,0.08,VWS V13.01,2013-03-02 18:14:00,
2013-03-02 13:15:00,40.6,29.4,29.60,NNE,33,2.0,12.0,64,0.01,,SKC,0.08,VWS V13.01,2013-03-02 18:15:00,
2013-03-02 13:16:00,40.6,29.4,29.60,NNE,30,1.0,12.0,64,0.01,,SKC,0.08,VWS V13.01,2013-03-02 18:16:00,
2013-03-02 13:17:00,40.6,29.4,29.60,ENE,57,4.0,12.0,64,0.01,,SKC,0.08,VWS V13.01,2013-03-02 18:17:00,
2013-03-02 13:18:00,40.6,29.4,29.60,NE,40,1.0,12.0,64,0.01,,SKC,0.08,VWS V13.01,2013-03-02 18:18:00,
2013-03-02 13:19:00,40.7,29.5,29.61,NE,41,3.0,12.0,64,0.01,,SKC,0.08,VWS V13.01,2013-03-02 18:19:00,
2013-03-02 13:20:00,40.6,29.4,29.61,North,360,4.0,12.0,64,0.01,,SKC,0.08,VWS V13.01,2013-03-02 18:20:00,
2013-03-02 13:21:00,40.7,29.5,29.60,North,360,1.0,12.0,64,0.01,,SKC,0.08,VWS V13.01,2013-03-02 18:21:00,
2013-03-02 13:22:00,40.7,29.5,29.61,NNE,22,3.0,12.0,64,0.01,,SKC,0.08,VWS V13.01,2013-03-02 18:22:00,
2013-03-02 13:23:00,40.7,29.5,29.60,NNE,32,6.0,12.0,64,0.01,,SKC,0.08,VWS V13.01,2013-03-02 18:23:00,
2013-03-02 13:24:00,40.7,29.1,29.61,NE,46,2.0,12.0,63,0.01,,SKC,0.08,VWS V13.01,2013-03-02 18:24:00,
2013-03-02 13:25:00,40.8,29.6,29.61,NE,46,0.0,12.0,64,0.01,,SKC,0.08,VWS V13.01,2013-03-02 18:25:00,
2013-03-02 13:26:00,40.6,29.4,29.60,NNE,30,1.0,12.0,64,0.01,,SKC,0.08,VWS V13.01,2013-03-02 18:26:00,
2013-03-02 13:27:00,40.9,29.7,29.61,North,360,2.0,12.0,64,0.01,,SKC,0.08,VWS V13.01,2013-03-02 18:27:00,
2013-03-02 13:28:00,40.9,29.7,29.60,North,355,1.0,12.0,64,0.01,,SKC,0.08,VWS V13.01,2013-03-02 18:28:00,
2013-03-02 13:29:00,41.0,29.8,29.60,NE,36,2.0,12.0,64,0.01,,SKC,0.08,VWS V13.01,2013-03-02 18:29:00,
2013-03-02 13:30:00,41.1,29.9,29.60,NE,35,3.0,12.0,64,0.01,,SKC,0.08,VWS V13.01,2013-03-02 18:30:00,
2013-03-02 13:31:00,41.1,29.9,29.60,NNE,27,2.0,4.0,64,0.01,,SKC,0.08,VWS V13.01,2013-03-02 18:31:00,
2013-03-02 13:32:00,41.2,30.0,29.60,NE,46,5.0,6.0,64,0.00,,SKC,0.08,VWS V13.01,2013-03-02 18:32:00,
2013-03-02 13:33:00,41.2,29.6,29.60,North,360,2.0,7.0,63,0.00,,SKC,0.08,VWS V13.01,2013-03-02 18:33:00,
2013-03-02 13:34:00,40.7,29.1,29.61,NE,46,2.0,12.0,63,0.01,,SKC,0.08,VWS V13.01,2013-03-02 18:34:00,
2013-03-02 13:35:00,41.1,29.5,29.60,North,11,2.0,7.0,63,0.00,,SKC,0.08,VWS V13.01,2013-03-02 18:35:00,
2013-03-02 13:36:00,41.1,29.9,29.60,NE,53,3.0,7.0,64,0.00,,SKC,0.08,VWS V13.01,2013-03-02 18:36:00,
2013-03-02 13:37:00,41.0,29.4,29.60,North,355,11.0,11.0,63,0.00,,SKC,0.08,VWS V13.01,2013-03-02 18:37:00,
2013-03-02 13:38:00,41.0,29.4,29.60,NE,34,9.0,11.0,63,0.00,,SKC,0.08,VWS V13.01,2013-03-02 18:38:00,
2013-03-02 13:39:00,40.9,28.9,29.60,NNW,340,5.0,11.0,62,0.00,,SKC,0.08,VWS V13.01,2013-03-02 18:39:00,
2013-03-02 13:40:00,41.1,29.9,29.60,NE,38,3.0,12.0,64,0.01,,SKC,0.08,VWS V13.01,2013-03-02 18:40:00,
2013-03-02 13:41:00,40.9,29.3,29.60,NNW,336,2.0,11.0,63,0.00,,SKC,0.08,VWS V13.01,2013-03-02 18:41:00,
2013-03-02 13:42:00,40.9,29.3,29.60,North,5,2.0,11.0,63,0.00,,SKC,0.08,VWS V13.01,2013-03-02 18:42:00,
2013-03-02 13:43:00,40.9,29.3,29.60,NNE,24,2.0,11.0,63,0.00,,SKC,0.08,VWS V13.01,2013-03-02 18:43:00,
2013-03-02 13:44:00,41.0,29.8,29.60,NE,36,3.0,11.0,64,0.00,,SKC,0.08,VWS V13.01,2013-03-02 18:44:00,
2013-03-02 13:45:00,41.0,29.4,29.60,NNE,29,3.0,11.0,63,0.00,,SKC,0.08,VWS V13.01,2013-03-02 18:45:00,
2013-03-02 13:46:00,41.0,29.4,29.60,NNE,24,2.0,11.0,63,0.00,,SKC,0.08,VWS V13.01,2013-03-02 18:46:00,
2013-03-02 13:47:00,41.0,29.8,29.60,NW,314,7.0,11.0,64,0.00,,SKC,0.08,VWS V13.01,2013-03-02 18:47:00,
2013-03-02 13:48:00,41.0,29.4,29.60,NNE,22,10.0,11.0,63,0.00,,SKC,0.08,VWS V13.01,2013-03-02 18:48:00,
2013-03-02 13:49:00,41.0,30.5,29.60,NW,315,3.0,11.0,66,0.00,,SKC,0.08,VWS V13.01,2013-03-02 18:49:00,
2013-03-02 13:50:00,41.0,30.5,29.60,NNW,342,4.0,11.0,66,0.00,,SKC,0.08,VWS V13.01,2013-03-02 18:50:00,
2013-03-02 13:51:00,41.0,29.4,29.60,North,349,3.0,11.0,63,0.00,,SKC,0.08,VWS V13.01,2013-03-02 18:51:00,
2013-03-02 13:52:00,41.0,29.4,29.60,NE,49,6.0,11.0,63,0.00,,SKC,0.08,VWS V13.01,2013-03-02 18:52:00,
2013-03-02 13:53:00,40.9,28.9,29.60,NNE,29,4.0,11.0,62,0.00,,SKC,0.08,VWS V13.01,2013-03-02 18:53:00,
2013-03-02 13:54:00,40.9,28.9,29.60,North,360,10.0,11.0,62,0.00,,SKC,0.08,VWS V13.01,2013-03-02 18:54:00,
2013-03-02 13:55:00,40.8,28.8,29.60,ENE,58,4.0,11.0,62,0.00,,SKC,0.08,VWS V13.01,2013-03-02 18:55:00,
2013-03-02 13:56:00,40.7,28.7,29.60,NE,49,3.0,11.0,62,0.00,,SKC,0.08,VWS V13.01,2013-03-02 18:56:00,
2013-03-02 13:57:00,40.7,29.1,29.60,NNE,33,2.0,11.0,63,0.00,,SKC,0.08,VWS V13.01,2013-03-02 18:57:00,
2013-03-02 13:58:00,40.7,29.1,29.61,NNE,17,5.0,11.0,63,0.00,,SKC,0.08,VWS V13.01,2013-03-02 18:58:00,
2013-03-02 13:59:00,41.0,30.5,29.60,NW,314,3.0,11.0,66,0.00,,SKC,0.08,VWS V13.01,2013-03-02 18:59:00,
2013-03-02 14:00:00,40.6,29.0,29.61,NNW,344,4.0,11.0,63,0.00,,SKC,0.08,VWS V13.01,2013-03-02 19:00:00,
2013-03-02 14:01:00,40.6,29.4,29.61,North,350,1.0,4.0,64,0.00,,SKC,0.08,VWS V13.01,2013-03-02 19:01:00,
2013-03-02 14:02:00,40.6,29.0,29.61,North,10,3.0,7.0,63,0.00,,SKC,0.08,VWS V13.01,2013-03-02 19:02:00,
2013-03-02 14:03:00,40.6,29.4,29.61,NE,45,5.0,7.0,64,0.00,,SKC,0.08,VWS V13.01,2013-03-02 19:03:00,
2013-03-02 14:04:00,40.6,29.0,29.61,NW,317,5.0,13.0,63,0.00,,SKC,0.08,VWS V13.01,2013-03-02 19:04:00,
2013-03-02 14:05:00,40.6,29.0,29.61,North,360,2.0,13.0,63,0.00,,SKC,0.08,VWS V13.01,2013-03-02 19:05:00,
2013-03-02 14:06:00,40.6,29.0,29.61,NE,45,4.0,13.0,63,0.00,,SKC,0.08,VWS V13.01,2013-03-02 19:06:00,
2013-03-02 14:07:00,40.5,29.3,29.61,ENE,59,4.0,13.0,64,0.00,,SKC,0.08,VWS V13.01,2013-03-02 19:07:00,
2013-03-02 14:08:00,40.5,29.3,29.60,ENE,74,3.0,13.0,64,0.00,,SKC,0.08,VWS V13.01,2013-03-02 19:08:00,
2013-03-02 14:09:00,40.5,29.3,29.61,NE,39,3.0,13.0,64,0.00,,SKC,0.08,VWS V13.01,2013-03-02 19:09:00,
2013-03-02 14:10:00,40.7,29.1,29.60,NNW,342,4.0,11.0,63,0.00,,SKC,0.08,VWS V13.01,2013-03-02 19:10:00,
2013-03-02 14:11:00,40.5,29.3,29.61,North,5,4.0,13.0,64,0.00,,SKC,0.08,VWS V13.01,2013-03-02 19:11:00,
2013-03-02 14:12:00,40.5,29.3,29.61,NNE,26,4.0,13.0,64,0.00,,SKC,0.08,VWS V13.01,2013-03-02 19:12:00,
2013-03-02 14:13:00,40.5,29.3,29.61,North,360,2.0,13.0,64,0.00,,SKC,0.08,VWS V13.01,2013-03-02 19:13:00,
2013-03-02 14:14:00,40.4,29.2,29.61,North,355,4.0,13.0,64,0.00,,SKC,0.08,VWS V13.01,2013-03-02 19:14:00,
2013-03-02 14:15:00,40.4,29.2,29.61,North,5,8.0,13.0,64,0.00,,SKC,0.08,VWS V13.01,2013-03-02 19:15:00,
2013-03-02 14:16:00,40.4,28.8,29.61,NNW,341,7.0,13.0,63,0.00,,SKC,0.08,VWS V13.01,2013-03-02 19:16:00,
2013-03-02 14:17:00,40.4,29.2,29.61,North,355,9.0,13.0,64,0.00,,SKC,0.08,VWS V13.01,2013-03-02 19:17:00,
2013-03-02 14:18:00,40.3,29.1,29.61,ENE,59,2.0,13.0,64,0.00,,SKC,0.08,VWS V13.01,2013-03-02 19:18:00,
2013-03-02 14:19:00,40.3,29.1,29.61,North,355,3.0,13.0,64,0.00,,SKC,0.08,VWS V13.01,2013-03-02 19:19:00,
2013-03-02 14:20:00,40.3,29.5,29.61,North,355,4.0,13.0,65,0.00,,SKC,0.08,VWS V13.01,2013-03-02 19:20:00,
2013-03-02 14:21:00,40.3,29.1,29.61,North,360,1.0,13.0,64,0.00,,SKC,0.08,VWS V13.01,2013-03-02 19:21:00,
2013-03-02 14:22:00,40.5,29.3,29.60,NE,44,2.0,13.0,64,0.00,,SKC,0.08,VWS V13.01,2013-03-02 19:22:00,
2013-03-02 14:23:00,40.2,29.0,29.61,North,360,4.0,13.0,64,0.00,,SKC,0.08,VWS V13.01,2013-03-02 19:23:00,
2013-03-02 14:24:00,40.2,29.4,29.61,North,349,11.0,13.0,65,0.00,,SKC,0.08,VWS V13.01,2013-03-02 19:24:00,
2013-03-02 14:25:00,40.2,29.0,29.61,NNE,29,2.0,13.0,64,0.00,,SKC,0.08,VWS V13.01,2013-03-02 19:25:00,
2013-03-02 14:26:00,40.1,28.9,29.61,NNE,30,2.0,13.0,64,0.00,,SKC,0.08,VWS V13.01,2013-03-02 19:26:00,
2013-03-02 14:27:00,40.1,29.3,29.61,ENE,58,5.0,13.0,65,0.00,,SKC,0.08,VWS V13.01,2013-03-02 19:27:00,
2013-03-02 14:28:00,40.0,29.2,29.61,NE,48,4.0,13.0,65,0.00,,SKC,0.08,VWS V13.01,2013-03-02 19:28:00,
2013-03-02 14:29:00,40.0,29.2,29.61,NE,48,4.0,13.0,65,0.00,,SKC,0.08,VWS V13.01,2013-03-02 19:29:00,
2013-03-02 14:30:00,40.3,29.1,29.61,North,349,3.0,13.0,64,0.00,,SKC,0.08,VWS V13.01,2013-03-02 19:30:00,
2013-03-02 14:31:00,39.8,29.4,29.61,NE,34,4.0,4.0,66,0.00,,SKC,0.08,VWS V13.01,2013-03-02 19:31:00,
2013-03-02 14:32:00,39.8,29.4,29.61,North,360,2.0,4.0,66,0.00,,SKC,0.08,VWS V13.01,2013-03-02 19:32:00,
2013-03-02 14:33:00,39.8,29.4,29.61,North,5,1.0,5.0,66,0.00,,SKC,0.08,VWS V13.01,2013-03-02 19:33:00,
2013-03-02 14:34:00,39.7,29.3,29.61,NNE,28,1.0,5.0,66,0.00,,SKC,0.08,VWS V13.01,2013-03-02 19:34:00,
2013-03-02 14:35:00,39.7,29.7,29.61,North,5,5.0,6.0,67,0.00,,SKC,0.08,VWS V13.01,2013-03-02 19:35:00,
2013-03-02 14:36:00,39.7,29.3,29.61,NE,41,5.0,6.0,66,0.00,,SKC,0.08,VWS V13.01,2013-03-02 19:36:00,
2013-03-02 14:37:00,39.7,29.3,29.61,NNE,19,3.0,7.0,66,0.00,,SKC,0.08,VWS V13.01,2013-03-02 19:37:00,
2013-03-02 14:38:00,39.7,29.3,29.61,NNW,333,6.0,7.0,66,0.00,,SKC,0.08,VWS V13.01,2013-03-02 19:38:00,
2013-03-02 14:39:00,39.7,29.3,29.61,NE,51,5.0,7.0,66,0.00,,SKC,0.08,VWS V13.01,2013-03-02 19:39:00,
2013-03-02 14:40:00,39.9,29.1,29.61,NE,49,4.0,13.0,65,0.00,,SKC,0.08,VWS V13.01,2013-03-02 19:40:00,
2013-03-02 14:41:00,39.6,29.2,29.61,North,355,1.0,9.0,66,0.00,,SKC,0.08,VWS V13.01,2013-03-02 19:41:00,
2013-03-02 14:42:00,39.6,29.2,29.61,NE,42,4.0,9.0,66,0.00,,SKC,0.08,VWS V13.01,2013-03-02 19:42:00,
2013-03-02 14:43:00,39.6,29.6,29.61,NNW,327,5.0,9.0,67,0.00,,SKC,0.08,VWS V13.01,2013-03-02 19:43:00,
2013-03-02 14:44:00,39.5,29.5,29.61,ENE,61,4.0,9.0,67,0.00,,SKC,0.08,VWS V13.01,2013-03-02 19:44:00,
2013-03-02 14:45:00,39.5,29.5,29.61,NNW,333,3.0,9.0,67,0.00,,SKC,0.08,VWS V13.01,2013-03-02 19:45:00,
2013-03-02 14:46:00,39.4,29.4,29.61,NNW,339,9.0,10.0,67,0.00,,SKC,0.08,VWS V13.01,2013-03-02 19:46:00,
2013-03-02 14:47:00,39.4,29.7,29.61,NW,314,3.0,10.0,68,0.00,,SKC,0.08,VWS V13.01,2013-03-02 19:47:00,
2013-03-02 14:48:00,39.7,29.3,29.61,North,355,5.0,7.0,66,0.00,,SKC,0.08,VWS V13.01,2013-03-02 19:48:00,
2013-03-02 14:49:00,39.3,30.0,29.61,NNE,13,4.0,10.0,69,0.00,,SKC,0.08,VWS V13.01,2013-03-02 19:49:00,
2013-03-02 14:50:00,39.2,29.9,29.62,NE,34,2.0,10.0,69,0.00,,SKC,0.08,VWS V13.01,2013-03-02 19:50:00,
2013-03-02 14:51:00,39.2,29.9,29.61,ENE,63,8.0,10.0,69,0.00,,SKC,0.08,VWS V13.01,2013-03-02 19:51:00,
2013-03-02 14:52:00,39.1,30.2,29.61,NE,45,2.0,10.0,70,0.00,,SKC,0.08,VWS V13.01,2013-03-02 19:52:00,
2013-03-02 14:53:00,39.0,30.1,29.61,NE,44,3.0,10.0,70,0.00,,SKC,0.08,VWS V13.01,2013-03-02 19:53:00,
2013-03-02 14:54:00,38.9,30.3,29.61,NNE,32,6.0,10.0,71,0.00,,SKC,0.08,VWS V13.01,2013-03-02 19:54:00,
2013-03-02 14:55:00,38.8,30.6,29.62,ENE,63,4.0,11.0,72,0.00,,SKC,0.08,VWS V13.01,2013-03-02 19:55:00,
2013-03-02 14:56:00,38.6,30.4,29.62,NNE,30,3.0,11.0,72,0.00,,SKC,0.08,VWS V13.01,2013-03-02 19:56:00,
2013-03-02 14:57:00,38.5,30.6,29.62,NE,36,3.0,11.0,73,0.00,,SKC,0.08,VWS V13.01,2013-03-02 19:57:00,
2013-03-02 14:58:00,38.4,30.5,29.62,NE,54,6.0,12.0,73,0.00,,SKC,0.08,VWS V13.01,2013-03-02 19:58:00,
2013-03-02 14:59:00,38.3,30.4,29.62,East,87,6.0,12.0,73,0.00,,SKC,0.08,VWS V13.01,2013-03-02 19:59:00,
2013-03-02 15:00:00,39.2,29.9,29.62,NE,34,3.0,10.0,69,0.00,,SKC,0.08,VWS V13.01,2013-03-02 20:00:00,
2013-03-02 15:01:00,38.2,30.7,29.62,North,360,5.0,5.0,74,0.00,,SKC,0.08,VWS V13.01,2013-03-02 20:01:00,
2013-03-02 15:02:00,38.1,30.9,29.62,North,350,6.0,7.0,75,0.00,,SKC,0.08,VWS V13.01,2013-03-02 20:02:00,
2013-03-02 15:03:00,38.1,30.9,29.62,NNE,29,4.0,7.0,75,0.00,,SKC,0.08,VWS V13.01,2013-03-02 20:03:00,
2013-03-02 15:04:00,38.1,30.9,29.62,North,5,2.0,7.0,75,0.00,,SKC,0.08,VWS V13.01,2013-03-02 20:04:00,
2013-03-02 15:05:00,38.0,30.8,29.62,NNE,28,5.0,11.0,75,0.00,,SKC,0.08,VWS V13.01,2013-03-02 20:05:00,
2013-03-02 15:06:00,38.0,30.8,29.62,NNE,31,7.0,11.0,75,0.00,,SKC,0.08,VWS V13.01,2013-03-02 20:06:00,
2013-03-02 15:07:00,37.9,30.7,29.62,NNE,25,2.0,11.0,75,0.00,,SKC,0.08,VWS V13.01,2013-03-02 20:07:00,
2013-03-02 15:08:00,37.9,31.0,29.62,NE,52,6.0,12.0,76,0.00,,SKC,0.08,VWS V13.01,2013-03-02 20:08:00,
2013-03-02 15:09:00,37.8,30.9,29.62,NE,41,2.0,12.0,76,0.00,,SKC,0.08,VWS V13.01,2013-03-02 20:09:00,
2013-03-02 15:10:00,37.8,30.9,29.62,ENE,69,10.0,12.0,76,0.00,,SKC,0.08,VWS V13.01,2013-03-02 20:10:00,
2013-03-02 15:11:00,37.7,30.8,29.62,ENE,63,10.0,13.0,76,0.00,,SKC,0.08,VWS V13.01,2013-03-02 20:11:00,
2013-03-02 15:12:00,37.6,30.7,29.62,ENE,74,10.0,14.0,76,0.00,,SKC,0.08,VWS V13.01,2013-03-02 20:12:00,
2013-03-02 15:13:00,37.5,30.6,29.62,North,5,3.0,14.0,76,0.00,,SKC,0.08,VWS V13.01,2013-03-02 20:13:00,
2013-03-02 15:14:00,37.5,31.0,29.62,North,5,4.0,14.0,77,0.00,,SKC,0.08,VWS V13.01,2013-03-02 20:14:00,
2013-03-02 15:15:00,37.4,30.9,29.62,NE,34,7.0,14.0,77,0.00,,SKC,0.08,VWS V13.01,2013-03-02 20:15:00,
2013-03-02 15:16:00,37.4,30.9,29.62,NE,52,3.0,14.0,77,0.00,,SKC,0.08,VWS V13.01,2013-03-02 20:16:00,
2013-03-02 15:17:00,37.3,31.1,29.62,NE,37,6.0,14.0,78,0.00,,SKC,0.08,VWS V13.01,2013-03-02 20:17:00,
2013-03-02 15:18:00,37.3,31.1,29.62,NE,52,0.0,14.0,78,0.00,,SKC,0.08,VWS V13.01,2013-03-02 20:18:00,
2013-03-02 15:19:00,37.3,31.1,29.62,North,360,3.0,14.0,78,0.00,,SKC,0.08,VWS V13.01,2013-03-02 20:19:00,
2013-03-02 15:20:00,37.2,31.3,29.62,North,355,2.0,14.0,79,0.00,,SKC,0.08,VWS V13.01,2013-03-02 20:20:00,
2013-03-02 15:21:00,37.2,31.3,29.62,ENE,59,5.0,14.0,79,0.00,,SKC,0.08,VWS V13.01,2013-03-02 20:21:00,
2013-03-02 15:22:00,37.1,31.2,29.62,NNE,19,4.0,14.0,79,0.00,,SKC,0.08,VWS V13.01,2013-03-02 20:22:00,
2013-03-02 15:23:00,37.1,31.2,29.62,North,10,4.0,14.0,79,0.00,,SKC,0.08,VWS V13.01,2013-03-02 20:23:00,
2013-03-02 15:24:00,37.0,31.1,29.62,NNE,13,4.0,14.0,79,0.00,,SKC,0.08,VWS V13.01,2013-03-02 20:24:00,
2013-03-02 15:25:00,37.0,31.1,29.62,NE,46,5.0,14.0,79,0.00,,SKC,0.08,VWS V13.01,2013-03-02 20:25:00,
2013-03-02 15:26:00,36.9,31.0,29.62,NNE,29,1.0,14.0,79,0.00,,SKC,0.08,VWS V13.01,2013-03-02 20:26:00,
2013-03-02 15:27:00,36.9,31.3,29.62,ENE,64,5.0,14.0,80,0.00,,SKC,0.08,VWS V13.01,2013-03-02 20:27:00,
2013-03-02 15:28:00,36.8,31.2,29.62,ENE,78,2.0,14.0,80,0.00,,SKC,0.08,VWS V13.01,2013-03-02 20:28:00,
2013-03-02 15:29:00,36.8,31.2,29.63,ENE,65,1.0,14.0,80,0.00,,SKC,0.08,VWS V13.01,2013-03-02 20:29:00,
2013-03-02 15:30:00,36.8,31.5,29.63,ENE,64,2.0,14.0,81,0.00,,SKC,0.08,VWS V13.01,2013-03-02 20:30:00,
2013-03-02 15:31:00,36.8,31.5,29.63,North,350,4.0,5.0,81,0.00,,SKC,0.08,VWS V13.01,2013-03-02 20:31:00,
2013-03-02 15:32:00,36.8,31.5,29.63,NNW,342,2.0,5.0,81,0.00,,SKC,0.08,VWS V13.01,2013-03-02 20:32:00,
2013-03-02 15:33:00,36.8,31.5,29.63,NNW,342,1.0,5.0,81,0.00,,SKC,0.08,VWS V13.01,2013-03-02 20:33:00,
2013-03-02 15:34:00,36.8,31.5,29.63,NNE,12,6.0,6.0,81,0.00,,SKC,0.08,VWS V13.01,2013-03-02 20:34:00,
2013-03-02 15:35:00,36.7,31.4,29.63,NNW,344,2.0,7.0,81,0.00,,SKC,0.08,VWS V13.01,2013-03-02 20:35:00,
2013-03-02 15:36:00,36.6,31.3,29.63,North,355,4.0,7.0,81,0.00,,SKC,0.08,VWS V13.01,2013-03-02 20:36:00,
2013-03-02 15:37:00,36.6,31.6,29.63,North,5,4.0,7.0,82,0.00,,SKC,0.08,VWS V13.01,2013-03-02 20:37:00,
2013-03-02 15:38:00,36.5,31.5,29.63,NNE,12,2.0,7.0,82,0.00,,SKC,0.08,VWS V13.01,2013-03-02 20:38:00,
2013-03-02 15:39:00,36.5,31.5,29.63,North,5,2.0,7.0,82,0.00,,SKC,0.08,VWS V13.01,2013-03-02 20:39:00,
2013-03-02 15:40:00,36.5,31.5,29.63,North,360,0.0,7.0,82,0.00,,SKC,0.08,VWS V13.01,2013-03-02 20:40:00,
2013-03-02 15:41:00,36.4,31.7,29.63,NNE,13,3.0,7.0,83,0.00,,SKC,0.08,VWS V13.01,2013-03-02 20:41:00,
2013-03-02 15:42:00,36.4,31.7,29.63,ENE,57,4.0,7.0,83,0.00,,SKC,0.08,VWS V13.01,2013-03-02 20:42:00,
2013-03-02 15:43:00,36.4,31.7,29.63,NE,55,3.0,7.0,83,0.00,,SKC,0.08,VWS V13.01,2013-03-02 20:43:00,
2013-03-02 15:44:00,36.3,31.6,29.63,ENE,58,6.0,7.0,83,0.00,,SKC,0.08,VWS V13.01,2013-03-02 20:44:00,
2013-03-02 15:45:00,36.2,31.5,29.63,NE,54,2.0,7.0,83,0.00,,SKC,0.08,VWS V13.01,2013-03-02 20:45:00,
2013-03-02 15:46:00,36.2,31.5,29.63,NE,51,1.0,7.0,83,0.00,,SKC,0.08,VWS V13.01,2013-03-02 20:46:00,
2013-03-02 15:47:00,36.1,31.5,29.63,North,360,3.0,7.0,83,0.00,,SKC,0.08,VWS V13.01,2013-03-02 20:47:00,
2013-03-02 15:48:00,36.1,31.5,29.63,NE,52,2.0,7.0,83,0.00,,SKC,0.08,VWS V13.01,2013-03-02 20:48:00,
2013-03-02 15:49:00,36.5,31.5,29.63,North,360,1.0,7.0,82,0.00,,SKC,0.08,VWS V13.01,2013-03-02 20:49:00,
2013-03-02 15:50:00,35.9,31.2,29.63,NE,41,5.0,7.0,83,0.00,,SKC,0.08,VWS V13.01,2013-03-02 20:50:00,
2013-03-02 15:51:00,35.9,31.5,29.63,NE,41,3.0,7.0,84,0.00,,SKC,0.08,VWS V13.01,2013-03-02 20:51:00,
2013-03-02 15:52:00,35.8,31.5,29.63,NE,41,2.0,7.0,84,0.00,,SKC,0.08,VWS V13.01,2013-03-02 20:52:00,
2013-03-02 15:53:00,35.8,31.5,29.63,NE,41,0.0,7.0,84,0.00,,SKC,0.08,VWS V13.01,2013-03-02 20:53:00,
2013-03-02 15:54:00,35.8,31.7,29.63,NE,41,1.0,7.0,85,0.00,,SKC,0.08,VWS V13.01,2013-03-02 20:54:00,
2013-03-02 15:55:00,35.8,31.7,29.63,NNW,341,4.0,7.0,85,0.00,,SKC,0.08,VWS V13.01,2013-03-02 20:55:00,
2013-03-02 15:56:00,35.8,31.7,29.63,NW,316,4.0,7.0,85,0.00,,SKC,0.08,VWS V13.01,2013-03-02 20:56:00,
2013-03-02 15:57:00,35.7,31.6,29.63,North,355,2.0,7.0,85,0.00,,SKC,0.08,VWS V13.01,2013-03-02 20:57:00,
2013-03-02 15:58:00,36.1,31.5,29.63,NE,52,3.0,7.0,83,0.00,,SKC,0.08,VWS V13.01,2013-03-02 20:58:00,
2013-03-02 15:59:00,35.7,31.6,29.64,North,10,3.0,7.0,85,0.00,,SKC,0.08,VWS V13.01,2013-03-02 20:59:00,
2013-03-02 16:00:00,35.7,31.6,29.63,North,360,5.0,7.0,85,0.00,,SKC,0.08,VWS V13.01,2013-03-02 21:00:00,
2013-03-02 16:01:00,35.6,31.5,29.63,North,5,2.0,5.0,85,0.00,,SKC,0.08,VWS V13.01,2013-03-02 21:01:00,
2013-03-02 16:02:00,35.6,31.5,29.63,North,5,2.0,6.0,85,0.00,,SKC,0.08,VWS V13.01,2013-03-02 21:02:00,
2013-03-02 16:03:00,35.5,31.5,29.63,North,355,1.0,6.0,85,0.00,,SKC,0.08,VWS V13.01,2013-03-02 21:03:00,
2013-03-02 16:04:00,35.5,31.7,29.63,North,350,5.0,6.0,86,0.00,,SKC,0.08,VWS V13.01,2013-03-02 21:04:00,
2013-03-02 16:05:00,35.5,31.7,29.63,North,351,2.0,6.0,86,0.00,,SKC,0.08,VWS V13.01,2013-03-02 21:05:00,
2013-03-02 16:06:00,35.5,31.7,29.63,North,351,2.0,6.0,86,0.00,,SKC,0.08,VWS V13.01,2013-03-02 21:06:00,
2013-03-02 16:07:00,35.5,31.7,29.63,North,351,0.0,6.0,86,0.00,,SKC,0.08,VWS V13.01,2013-03-02 21:07:00,
2013-03-02 16:08:00,35.5,31.7,29.63,North,360,4.0,6.0,86,0.00,,SKC,0.08,VWS V13.01,2013-03-02 21:08:00,
2013-03-02 16:09:00,35.4,31.6,29.64,North,5,3.0,6.0,86,0.00,,SKC,0.08,VWS V13.01,2013-03-02 21:09:00,
2013-03-02 16:10:00,35.4,31.6,29.64,NNE,14,4.0,6.0,86,0.00,,SKC,0.08,VWS V13.01,2013-03-02 21:10:00,
2013-03-02 16:11:00,35.3,31.5,29.64,North,9,1.0,6.0,86,0.00,,SKC,0.08,VWS V13.01,2013-03-02 21:11:00,
2013-03-02 16:12:00,35.3,31.5,29.64,North,360,2.0,6.0,86,0.00,,SKC,0.08,VWS V13.01,2013-03-02 21:12:00,
2013-03-02 16:13:00,35.3,31.5,29.64,NNW,328,5.0,6.0,86,0.00,,SKC,0.08,VWS V13.01,2013-03-02 21:13:00,
2013-03-02 16:14:00,35.3,31.5,29.64,NNW,333,4.0,6.0,86,0.00,,SKC,0.08,VWS V13.01,2013-03-02 21:14:00,
2013-03-02 16:15:00,35.2,31.4,29.64,North,351,4.0,6.0,86,0.00,,SKC,0.08,VWS V13.01,2013-03-02 21:15:00,
2013-03-02 16:16:00,35.2,31.4,29.64,North,351,4.0,6.0,86,0.00,,SKC,0.08,VWS V13.01,2013-03-02 21:16:00,
2013-03-02 16:17:00,35.1,31.3,29.64,North,350,3.0,6.0,86,0.00,,SKC,0.08,VWS V13.01,2013-03-02 21:17:00,
2013-03-02 16:18:00,35.1,31.3,29.64,North,351,0.0,6.0,86,0.00,,SKC,0.08,VWS V13.01,2013-03-02 21:18:00,
2013-03-02 16:19:00,35.1,31.3,29.64,NNE,19,5.0,6.0,86,0.00,,SKC,0.08,VWS V13.01,2013-03-02 21:19:00,
2013-03-02 16:20:00,35.0,31.2,29.64,NNW,337,2.0,7.0,86,0.00,,SKC,0.08,VWS V13.01,2013-03-02 21:20:00,
2013-03-02 16:21:00,35.0,31.2,29.64,NNW,337,2.0,7.0,86,0.00,,SKC,0.08,VWS V13.01,2013-03-02 21:21:00,
2013-03-02 16:22:00,34.9,31.1,29.64,North,360,4.0,7.0,86,0.00,,SKC,0.08,VWS V13.01,2013-03-02 21:22:00,
2013-03-02 16:23:00,34.9,31.4,29.64,NW,311,3.0,7.0,87,0.00,,SKC,0.08,VWS V13.01,2013-03-02 21:23:00,
2013-03-02 16:24:00,34.8,31.3,29.64,NW,317,1.0,7.0,87,0.00,,SKC,0.08,VWS V13.01,2013-03-02 21:24:00,
2013-03-02 16:25:00,34.8,31.3,29.64,NW,317,0.0,7.0,87,0.00,,SKC,0.08,VWS V13.01,2013-03-02 21:25:00,
2013-03-02 16:26:00,34.8,31.3,29.64,NNW,329,1.0,7.0,87,0.00,,SKC,0.08,VWS V13.01,2013-03-02 21:26:00,
2013-03-02 16:27:00,34.7,31.2,29.64,NNW,329,2.0,7.0,87,0.00,,SKC,0.08,VWS V13.01,2013-03-02 21:27:00,
2013-03-02 16:28:00,34.7,31.2,29.64,NNE,26,7.0,8.0,87,0.00,,SKC,0.08,VWS V13.01,2013-03-02 21:28:00,
2013-03-02 16:29:00,34.6,31.1,29.64,NNE,15,3.0,8.0,87,0.00,,SKC,0.08,VWS V13.01,2013-03-02 21:29:00,
2013-03-02 16:30:00,34.5,31.0,29.64,NE,46,3.0,8.0,87,0.00,,SKC,0.08,VWS V13.01,2013-03-02 21:30:00,
2013-03-02 16:31:00,34.4,30.9,29.64,North,355,4.0,5.0,87,0.00,,SKC,0.08,VWS V13.01,2013-03-02 21:31:00,
2013-03-02 16:32:00,34.4,30.9,29.64,North,355,1.0,5.0,87,0.00,,SKC,0.08,VWS V13.01,2013-03-02 21:32:00,
2013-03-02 16:33:00,34.4,30.9,29.64,North,355,0.0,5.0,87,0.00,,SKC,0.08,VWS V13.01,2013-03-02 21:33:00,
2013-03-02 16:34:00,34.4,30.9,29.64,North,355,5.0,5.0,87,0.00,,SKC,0.08,VWS V13.01,2013-03-02 21:34:00,
2013-03-02 16:35:00,34.4,30.9,29.64,North,355,3.0,6.0,87,0.00,,SKC,0.08,VWS V13.01,2013-03-02 21:35:00,
2013-03-02 16:36:00,34.4,31.2,29.65,NNE,21,5.0,6.0,88,0.00,,SKC,0.08,VWS V13.01,2013-03-02 21:36:00,
2013-03-02 16:37:00,34.4,31.2,29.65,NNW,339,3.0,6.0,88,0.00,,SKC,0.08,VWS V13.01,2013-03-02 21:37:00,
2013-03-02 16:38:00,34.3,31.1,29.65,NNW,327,4.0,6.0,88,0.00,,SKC,0.08,VWS V13.01,2013-03-02 21:38:00,
2013-03-02 16:39:00,34.2,31.0,29.64,NW,317,4.0,6.0,88,0.00,,SKC,0.08,VWS V13.01,2013-03-02 21:39:00,
2013-03-02 16:40:00,34.4,30.9,29.64,NE,51,2.0,8.0,87,0.00,,SKC,0.08,VWS V13.01,2013-03-02 21:40:00,
2013-03-02 16:41:00,34.1,30.9,29.64,NNE,30,5.0,7.0,88,0.00,,SKC,0.08,VWS V13.01,2013-03-02 21:41:00,
2013-03-02 16:42:00,34.1,30.9,29.64,ENE,58,0.0,7.0,88,0.00,,SKC,0.08,VWS V13.01,2013-03-02 21:42:00,
2013-03-02 16:43:00,34.0,30.8,29.64,ENE,58,0.0,7.0,88,0.00,,SKC,0.08,VWS V13.01,2013-03-02 21:43:00,
2013-03-02 16:44:00,34.0,30.8,29.64,ENE,57,1.0,7.0,88,0.00,,SKC,0.08,VWS V13.01,2013-03-02 21:44:00,
2013-03-02 16:45:00,34.0,30.8,29.64,ENE,57,1.0,7.0,88,0.00,,SKC,0.08,VWS V13.01,2013-03-02 21:45:00,
2013-03-02 16:46:00,34.0,30.8,29.64,ENE,58,1.0,7.0,88,0.00,,SKC,0.08,VWS V13.01,2013-03-02 21:46:00,
2013-03-02 16:47:00,34.0,30.8,29.64,NE,48,2.0,7.0,88,0.00,,SKC,0.08,VWS V13.01,2013-03-02 21:47:00,
2013-03-02 16:48:00,34.0,31.1,29.64,North,9,5.0,7.0,89,0.00,,SKC,0.08,VWS V13.01,2013-03-02 21:48:00,
2013-03-02 16:49:00,33.9,31.0,29.64,North,355,3.0,7.0,89,0.00,,SKC,0.08,VWS V13.01,2013-03-02 21:49:00,
2013-03-02 16:50:00,33.9,31.0,29.64,North,355,1.0,7.0,89,0.00,,SKC,0.08,VWS V13.01,2013-03-02 21:50:00,
2013-03-02 16:51:00,33.9,31.0,29.64,North,355,0.0,7.0,89,0.00,,SKC,0.08,VWS V13.01,2013-03-02 21:51:00,
2013-03-02 16:52:00,33.8,30.9,29.64,North,355,2.0,7.0,89,0.00,,SKC,0.08,VWS V13.01,2013-03-02 21:52:00,
2013-03-02 16:53:00,33.8,30.9,29.64,North,9,1.0,7.0,89,0.00,,SKC,0.08,VWS V13.01,2013-03-02 21:53:00,
2013-03-02 16:54:00,33.8,30.9,29.64,North,9,3.0,7.0,89,0.00,,SKC,0.08,VWS V13.01,2013-03-02 21:54:00,
2013-03-02 16:55:00,33.8,30.9,29.64,North,360,2.0,7.0,89,0.00,,SKC,0.08,VWS V13.01,2013-03-02 21:55:00,
2013-03-02 16:56:00,33.8,30.9,29.64,North,355,1.0,7.0,89,0.00,,SKC,0.08,VWS V13.01,2013-03-02 21:56:00,
2013-03-02 16:57:00,33.8,30.9,29.65,North,355,2.0,7.0,89,0.00,,SKC,0.08,VWS V13.01,2013-03-02 21:57:00,
2013-03-02 16:58:00,33.8,30.9,29.65,North,355,3.0,7.0,89,0.00,,SKC,0.08,VWS V13.01,2013-03-02 21:58:00,
2013-03-02 16:59:00,33.8,30.9,29.65,North,355,1.0,7.0,89,0.00,,SKC,0.08,VWS V13.01,2013-03-02 21:59:00,
2013-03-02 17:00:00,33.7,30.8,29.65,North,355,2.0,7.0,89,0.00,,SKC,0.08,VWS V13.01,2013-03-02 22:00:00,
2013-03-02 17:01:00,33.7,30.8,29.65,North,355,0.0,2.0,89,0.00,,SKC,0.08,VWS V13.01,2013-03-02 22:01:00,
2013-03-02 17:02:00,33.7,30.8,29.65,North,355,0.0,2.0,89,0.00,,SKC,0.08,VWS V13.01,2013-03-02 22:02:00,
2013-03-02 17:03:00,33.7,30.8,29.65,North,355,0.0,2.0,89,0.00,,SKC,0.08,VWS V13.01,2013-03-02 22:03:00,
2013-03-02 17:04:00,33.7,30.8,29.65,North,355,0.0,2.0,89,0.00,,SKC,0.08,VWS V13.01,2013-03-02 22:04:00,
2013-03-02 17:05:00,33.7,30.8,29.65,North,355,1.0,2.0,89,0.00,,SKC,0.08,VWS V13.01,2013-03-02 22:05:00,
2013-03-02 17:06:00,33.7,31.1,29.65,North,351,4.0,4.0,90,0.00,,SKC,0.08,VWS V13.01,2013-03-02 22:06:00,
2013-03-02 17:07:00,33.6,31.0,29.65,North,350,0.0,4.0,90,0.00,,SKC,0.08,VWS V13.01,2013-03-02 22:07:00,
2013-03-02 17:08:00,33.8,30.9,29.64,North,355,4.0,7.0,89,0.00,,SKC,0.08,VWS V13.01,2013-03-02 22:08:00,
2013-03-02 17:09:00,33.6,31.0,29.65,North,349,4.0,4.0,90,0.00,,SKC,0.08,VWS V13.01,2013-03-02 22:09:00,
2013-03-02 17:10:00,33.6,31.0,29.65,NW,326,5.0,7.0,90,0.00,,SKC,0.08,VWS V13.01,2013-03-02 22:10:00,
2013-03-02 17:11:00,33.6,31.0,29.65,NW,319,4.0,7.0,90,0.00,,SKC,0.08,VWS V13.01,2013-03-02 22:11:00,
2013-03-02 17:12:00,33.5,30.9,29.65,NW,319,0.0,7.0,90,0.00,,SKC,0.08,VWS V13.01,2013-03-02 22:12:00,
2013-03-02 17:13:00,33.5,30.9,29.65,NNE,27,1.0,7.0,90,0.00,,SKC,0.08,VWS V13.01,2013-03-02 22:13:00,
2013-03-02 17:14:00,33.5,30.9,29.65,North,9,5.0,7.0,90,0.00,,SKC,0.08,VWS V13.01,2013-03-02 22:14:00,
2013-03-02 17:15:00,33.5,30.9,29.65,North,9,3.0,7.0,90,0.00,,SKC,0.08,VWS V13.01,2013-03-02 22:15:00,
2013-03-02 17:16:00,33.5,30.9,29.65,North,360,3.0,7.0,90,0.01,,SKC,0.09,VWS V13.01,2013-03-02 22:16:00,
2013-03-02 17:17:00,33.5,30.9,29.65,North,360,1.0,7.0,90,0.01,,SKC,0.09,VWS V13.01,2013-03-02 22:17:00,
2013-03-02 17:18:00,33.5,30.9,29.65,North,360,3.0,7.0,90,0.01,,SKC,0.09,VWS V13.01,2013-03-02 22:18:00,
2013-03-02 17:19:00,33.5,30.9,29.65,NW,325,1.0,7.0,90,0.01,,SKC,0.09,VWS V13.01,2013-03-02 22:19:00,
2013-03-02 17:20:00,33.4,30.8,29.66,NW,325,1.0,7.0,90,0.01,,SKC,0.09,VWS V13.01,2013-03-02 22:20:00,
2013-03-02 17:21:00,33.4,30.8,29.66,NW,325,0.0,7.0,90,0.01,,SKC,0.09,VWS V13.01,2013-03-02 22:21:00,
2013-03-02 17:22:00,33.4,30.8,29.66,NW,325,0.0,7.0,90,0.01,,SKC,0.09,VWS V13.01,2013-03-02 22:22:00,
2013-03-02 17:23:00,33.4,30.8,29.66,NW,325,0.0,7.0,90,0.01,,SKC,0.09,VWS V13.01,2013-03-02 22:23:00,
2013-03-02 17:24:00,33.4,30.8,29.66,NW,325,0.0,7.0,90,0.01,,SKC,0.09,VWS V13.01,2013-03-02 22:24:00,
2013-03-02 17:25:00,33.4,30.8,29.66,NW,325,2.0,7.0,90,0.01,,SKC,0.09,VWS V13.01,2013-03-02 22:25:00,
2013-03-02 17:26:00,33.4,30.8,29.66,NW,325,1.0,7.0,90,0.01,,SKC,0.09,VWS V13.01,2013-03-02 22:26:00,
2013-03-02 17:27:00,33.4,30.8,29.65,NW,325,2.0,7.0,90,0.01,,SKC,0.09,VWS V13.01,2013-03-02 22:27:00,
2013-03-02 17:28:00,33.4,30.8,29.66,NW,325,0.0,7.0,90,0.01,,SKC,0.09,VWS V13.01,2013-03-02 22:28:00,
2013-03-02 17:29:00,33.4,30.8,29.66,NW,325,0.0,7.0,90,0.01,,SKC,0.09,VWS V13.01,2013-03-02 22:29:00,
2013-03-02 17:30:00,33.4,30.8,29.66,NW,325,0.0,7.0,90,0.01,,SKC,0.09,VWS V13.01,2013-03-02 22:30:00,
2013-03-02 17:31:00,33.4,30.8,29.66,NW,325,1.0,1.0,90,0.01,,SKC,0.09,VWS V13.01,2013-03-02 22:31:00,
2013-03-02 17:32:00,33.4,30.8,29.66,NW,325,1.0,1.0,90,0.01,,SKC,0.09,VWS V13.01,2013-03-02 22:32:00,
2013-03-02 17:33:00,33.4,30.8,29.66,NW,325,0.0,7.0,90,0.01,,SKC,0.09,VWS V13.01,2013-03-02 22:33:00,
2013-03-02 17:34:00,33.3,31.0,29.66,NW,325,3.0,4.0,91,0.01,,SKC,0.09,VWS V13.01,2013-03-02 22:34:00,
2013-03-02 17:35:00,33.3,31.0,29.66,NW,325,3.0,4.0,91,0.01,,SKC,0.09,VWS V13.01,2013-03-02 22:35:00,
2013-03-02 17:36:00,33.3,31.0,29.66,NW,325,4.0,4.0,91,0.01,,SKC,0.09,VWS V13.01,2013-03-02 22:36:00,
2013-03-02 17:37:00,33.3,31.0,29.66,NW,325,0.0,4.0,91,0.01,,SKC,0.09,VWS V13.01,2013-03-02 22:37:00,
2013-03-02 17:38:00,33.2,30.9,29.66,NW,325,0.0,4.0,91,0.01,,SKC,0.09,VWS V13.01,2013-03-02 22:38:00,
2013-03-02 17:39:00,33.3,31.0,29.66,NW,325,0.0,4.0,91,0.01,,SKC,0.09,VWS V13.01,2013-03-02 22:39:00,
2013-03-02 17:40:00,33.2,30.9,29.66,NW,325,0.0,4.0,91,0.01,,SKC,0.09,VWS V13.01,2013-03-02 22:40:00,
2013-03-02 17:41:00,33.2,30.9,29.66,NW,325,0.0,4.0,91,0.01,,SKC,0.09,VWS V13.01,2013-03-02 22:41:00,
2013-03-02 17:42:00,33.2,30.9,29.66,NW,325,0.0,4.0,91,0.01,,SKC,0.09,VWS V13.01,2013-03-02 22:42:00,
2013-03-02 17:43:00,33.2,30.9,29.66,NW,325,2.0,4.0,91,0.01,,SKC,0.09,VWS V13.01,2013-03-02 22:43:00,
2013-03-02 17:44:00,33.2,30.9,29.66,NW,325,1.0,4.0,91,0.01,,SKC,0.09,VWS V13.01,2013-03-02 22:44:00,
2013-03-02 17:45:00,33.2,30.9,29.66,NW,326,0.0,4.0,91,0.01,,SKC,0.09,VWS V13.01,2013-03-02 22:45:00,
2013-03-02 17:46:00,33.2,30.9,29.66,NW,325,0.0,4.0,91,0.01,,SKC,0.09,VWS V13.01,2013-03-02 22:46:00,
2013-03-02 17:47:00,33.1,30.8,29.66,NW,326,0.0,4.0,91,0.01,,SKC,0.09,VWS V13.01,2013-03-02 22:47:00,
2013-03-02 17:48:00,33.2,30.9,29.66,NW,325,0.0,4.0,91,0.01,,SKC,0.09,VWS V13.01,2013-03-02 22:48:00,
2013-03-02 17:49:00,33.2,30.9,29.66,NW,326,0.0,4.0,91,0.01,,SKC,0.09,VWS V13.01,2013-03-02 22:49:00,
2013-03-02 17:50:00,33.1,30.8,29.67,NW,325,0.0,4.0,91,0.01,,SKC,0.09,VWS V13.01,2013-03-02 22:50:00,
2013-03-02 17:51:00,33.1,30.8,29.67,NW,325,0.0,4.0,91,0.01,,SKC,0.09,VWS V13.01,2013-03-02 22:51:00,
2013-03-02 17:52:00,33.1,30.8,29.66,NW,325,0.0,4.0,91,0.01,,SKC,0.09,VWS V13.01,2013-03-02 22:52:00,
2013-03-02 17:53:00,33.1,30.8,29.67,NW,326,3.0,4.0,91,0.01,,SKC,0.09,VWS V13.01,2013-03-02 22:53:00,
2013-03-02 17:54:00,33.2,30.9,29.66,NW,326,2.0,4.0,91,0.01,,SKC,0.09,VWS V13.01,2013-03-02 22:54:00,
2013-03-02 17:55:00,33.1,30.8,29.66,NW,326,1.0,4.0,91,0.01,,SKC,0.09,VWS V13.01,2013-03-02 22:55:00,
2013-03-02 17:56:00,33.0,30.7,29.67,NW,326,1.0,4.0,91,0.01,,SKC,0.09,VWS V13.01,2013-03-02 22:56:00,
2013-03-02 17:57:00,33.0,30.7,29.67,NW,326,0.0,4.0,91,0.01,,SKC,0.09,VWS V13.01,2013-03-02 22:57:00,
2013-03-02 17:58:00,33.0,30.7,29.67,NW,326,3.0,4.0,91,0.01,,SKC,0.09,VWS V13.01,2013-03-02 22:58:00,
2013-03-02 17:59:00,33.0,30.7,29.67,NE,45,1.0,4.0,91,0.01,,SKC,0.09,VWS V13.01,2013-03-02 22:59:00,
2013-03-02 18:00:00,33.0,30.7,29.67,NE,45,0.0,4.0,91,0.01,,SKC,0.09,VWS V13.01,2013-03-02 23:00:00,
2013-03-02 18:01:00,33.0,30.7,29.67,NE,45,0.0,1.0,91,0.01,,SKC,0.09,VWS V13.01,2013-03-02 23:01:00,
2013-03-02 18:02:00,32.9,30.6,29.67,NE,45,0.0,1.0,91,0.01,,SKC,0.09,VWS V13.01,2013-03-02 23:02:00,
2013-03-02 18:03:00,32.9,30.6,29.67,NE,41,0.0,2.0,91,0.01,,SKC,0.09,VWS V13.01,2013-03-02 23:03:00,
2013-03-02 18:04:00,32.9,30.6,29.67,NNE,16,2.0,5.0,91,0.01,,SKC,0.09,VWS V13.01,2013-03-02 23:04:00,
2013-03-02 18:05:00,32.9,30.6,29.67,NNE,16,0.0,5.0,91,0.01,,SKC,0.09,VWS V13.01,2013-03-02 23:05:00,
2013-03-02 18:06:00,32.9,30.6,29.67,NNE,16,2.0,5.0,91,0.01,,SKC,0.09,VWS V13.01,2013-03-02 23:06:00,
2013-03-02 18:07:00,32.9,30.6,29.67,NE,41,5.0,5.0,91,0.01,,SKC,0.09,VWS V13.01,2013-03-02 23:07:00,
2013-03-02 18:08:00,32.8,30.5,29.67,NNE,33,3.0,5.0,91,0.01,,SKC,0.09,VWS V13.01,2013-03-02 23:08:00,
2013-03-02 18:09:00,32.8,30.5,29.67,NNE,15,3.0,5.0,91,0.01,,SKC,0.09,VWS V13.01,2013-03-02 23:09:00,
2013-03-02 18:10:00,32.8,30.5,29.67,NNE,19,3.0,5.0,91,0.01,,SKC,0.09,VWS V13.01,2013-03-02 23:10:00,
2013-03-02 18:11:00,32.8,30.5,29.67,North,5,0.0,5.0,91,0.01,,SKC,0.09,VWS V13.01,2013-03-02 23:11:00,
2013-03-02 18:12:00,32.8,30.5,29.66,North,355,4.0,5.0,91,0.01,,SKC,0.09,VWS V13.01,2013-03-02 23:12:00,
2013-03-02 18:13:00,32.8,30.5,29.66,North,360,1.0,5.0,91,0.01,,SKC,0.09,VWS V13.01,2013-03-02 23:13:00,
2013-03-02 18:14:00,32.8,30.5,29.66,North,10,4.0,5.0,91,0.01,,SKC,0.09,VWS V13.01,2013-03-02 23:14:00,
2013-03-02 18:15:00,32.8,30.5,29.66,North,9,4.0,5.0,91,0.01,,SKC,0.09,VWS V13.01,2013-03-02 23:15:00,
2013-03-02 18:16:00,32.8,30.5,29.66,NW,322,2.0,5.0,91,0.01,,SKC,0.09,VWS V13.01,2013-03-02 23:16:00,
2013-03-02 18:17:00,32.8,30.5,29.66,North,11,0.0,5.0,91,0.01,,SKC,0.09,VWS V13.01,2013-03-02 23:17:00,
2013-03-02 18:18:00,32.8,30.5,29.67,North,11,1.0,5.0,91,0.01,,SKC,0.09,VWS V13.01,2013-03-02 23:18:00,
2013-03-02 18:19:00,32.8,30.7,29.67,North,10,0.0,5.0,92,0.01,,SKC,0.09,VWS V13.01,2013-03-02 23:19:00,
2013-03-02 18:20:00,32.8,30.5,29.67,NNE,19,3.0,5.0,91,0.01,,SKC,0.09,VWS V13.01,2013-03-02 23:20:00,
2013-03-02 18:21:00,32.7,30.6,29.66,North,9,0.0,5.0,92,0.01,,SKC,0.09,VWS V13.01,2013-03-02 23:21:00,
2013-03-02 18:22:00,32.7,30.6,29.66,North,9,0.0,5.0,92,0.01,,SKC,0.09,VWS V13.01,2013-03-02 23:22:00,
2013-03-02 18:23:00,32.7,30.6,29.66,NNE,26,3.0,5.0,92,0.01,,SKC,0.09,VWS V13.01,2013-03-02 23:23:00,
2013-03-02 18:24:00,32.7,30.6,29.66,NNE,25,0.0,5.0,92,0.01,,SKC,0.09,VWS V13.01,2013-03-02 23:24:00,
2013-03-02 18:25:00,32.7,30.6,29.66,NNE,26,0.0,5.0,92,0.01,,SKC,0.09,VWS V13.01,2013-03-02 23:25:00,
2013-03-02 18:26:00,32.7,30.6,29.66,NNE,25,1.0,5.0,92,0.01,,SKC,0.09,VWS V13.01,2013-03-02 23:26:00,
2013-03-02 18:27:00,32.7,30.6,29.66,NNE,25,0.0,5.0,92,0.01,,SKC,0.09,VWS V13.01,2013-03-02 23:27:00,
2013-03-02 18:28:00,32.7,30.6,29.66,NNE,26,2.0,5.0,92,0.01,,SKC,0.09,VWS V13.01,2013-03-02 23:28:00,
2013-03-02 18:29:00,32.7,30.6,29.66,NNE,26,0.0,5.0,92,0.01,,SKC,0.09,VWS V13.01,2013-03-02 23:29:00,
2013-03-02 18:30:00,32.6,30.5,29.66,NNE,26,1.0,5.0,92,0.01,,SKC,0.09,VWS V13.01,2013-03-02 23:30:00,
2013-03-02 18:31:00,32.7,30.6,29.66,NNE,13,5.0,5.0,92,0.00,,SKC,0.09,VWS V13.01,2013-03-02 23:31:00,
2013-03-02 18:32:00,32.7,30.6,29.66,North,9,1.0,5.0,92,0.01,,SKC,0.09,VWS V13.01,2013-03-02 23:32:00,
2013-03-02 18:33:00,32.6,30.5,29.66,North,355,2.0,5.0,92,0.00,,SKC,0.09,VWS V13.01,2013-03-02 23:33:00,
2013-03-02 18:34:00,32.6,30.5,29.66,NE,46,4.0,6.0,92,0.00,,SKC,0.09,VWS V13.01,2013-03-02 23:34:00,
2013-03-02 18:35:00,32.6,30.5,29.66,North,355,5.0,7.0,92,0.00,,SKC,0.09,VWS V13.01,2013-03-02 23:35:00,
2013-03-02 18:36:00,32.6,30.5,29.66,North,355,4.0,7.0,92,0.00,,SKC,0.09,VWS V13.01,2013-03-02 23:36:00,
2013-03-02 18:37:00,32.6,30.5,29.66,North,355,3.0,7.0,92,0.00,,SKC,0.09,VWS V13.01,2013-03-02 23:37:00,
2013-03-02 18:38:00,32.6,30.5,29.66,North,355,0.0,7.0,92,0.00,,SKC,0.09,VWS V13.01,2013-03-02 23:38:00,
2013-03-02 18:39:00,32.6,30.5,29.66,North,360,1.0,7.0,92,0.00,,SKC,0.09,VWS V13.01,2013-03-02 23:39:00,
2013-03-02 18:40:00,32.6,30.5,29.66,NNE,25,1.0,5.0,92,0.01,,SKC,0.09,VWS V13.01,2013-03-02 23:40:00,
2013-03-02 18:41:00,32.6,30.5,29.66,NNE,18,3.0,7.0,92,0.00,,SKC,0.09,VWS V13.01,2013-03-02 23:41:00,
2013-03-02 18:42:00,32.6,30.5,29.66,NE,36,4.0,7.0,92,0.00,,SKC,0.09,VWS V13.01,2013-03-02 23:42:00,
2013-03-02 18:43:00,32.6,30.5,29.66,North,360,1.0,7.0,92,0.00,,SKC,0.09,VWS V13.01,2013-03-02 23:43:00,
2013-03-02 18:44:00,32.6,30.5,29.66,North,360,1.0,7.0,92,0.00,,SKC,0.09,VWS V13.01,2013-03-02 23:44:00,
2013-03-02 18:45:00,32.6,30.5,29.66,North,360,0.0,7.0,92,0.00,,SKC,0.09,VWS V13.01,2013-03-02 23:45:00,
2013-03-02 18:46:00,32.6,30.5,29.66,North,9,2.0,7.0,92,0.00,,SKC,0.09,VWS V13.01,2013-03-02 23:46:00,
2013-03-02 18:47:00,32.6,30.5,29.66,North,360,4.0,7.0,92,0.00,,SKC,0.09,VWS V13.01,2013-03-02 23:47:00,
2013-03-02 18:48:00,32.5,30.4,29.66,North,360,0.0,7.0,92,0.00,,SKC,0.09,VWS V13.01,2013-03-02 23:48:00,
2013-03-02 18:49:00,32.5,30.4,29.66,North,360,2.0,7.0,92,0.00,,SKC,0.09,VWS V13.01,2013-03-02 23:49:00,
2013-03-02 18:50:00,32.5,30.4,29.66,NW,315,1.0,7.0,92,0.00,,SKC,0.09,VWS V13.01,2013-03-02 23:50:00,
2013-03-02 18:51:00,32.5,30.4,29.66,NNW,345,1.0,7.0,92,0.00,,SKC,0.09,VWS V13.01,2013-03-02 23:51:00,
2013-03-02 18:52:00,32.5,30.4,29.66,NE,38,4.0,7.0,92,0.00,,SKC,0.09,VWS V13.01,2013-03-02 23:52:00,
2013-03-02 18:53:00,32.5,30.4,29.66,North,360,4.0,7.0,92,0.00,,SKC,0.09,VWS V13.01,2013-03-02 23:53:00,
2013-03-02 18:54:00,32.5,30.4,29.66,North,360,2.0,7.0,92,0.00,,SKC,0.09,VWS V13.01,2013-03-02 23:54:00,
2013-03-02 18:55:00,32.6,30.5,29.66,North,360,0.0,7.0,92,0.00,,SKC,0.09,VWS V13.01,2013-03-02 23:55:00,
2013-03-02 18:56:00,32.5,30.4,29.66,NNE,13,3.0,7.0,92,0.00,,SKC,0.09,VWS V13.01,2013-03-02 23:56:00,
2013-03-02 18:57:00,32.5,30.4,29.66,North,355,2.0,7.0,92,0.00,,SKC,0.09,VWS V13.01,2013-03-02 23:57:00,
2013-03-02 18:58:00,32.5,30.4,29.66,North,360,0.0,7.0,92,0.00,,SKC,0.09,VWS V13.01,2013-03-02 23:58:00,
2013-03-02 18:59:00,32.5,30.4,29.66,North,360,0.0,7.0,92,0.00,,SKC,0.09,VWS V13.01,2013-03-02 23:59:00,
2013-03-02 19:00:00,32.5,30.4,29.66,NNW,348,2.0,7.0,92,0.00,,SKC,0.09,VWS V13.01,2013-03-03 00:00:00,
2013-03-02 19:01:00,32.4,30.3,29.66,NNW,348,2.0,3.0,92,0.00,,SKC,0.09,VWS V13.01,2013-03-03 00:01:00,
2013-03-02 19:02:00,32.4,30.3,29.66,NE,37,2.0,4.0,92,0.00,,SKC,0.09,VWS V13.01,2013-03-03 00:02:00,
2013-03-02 19:03:00,32.4,30.3,29.66,NE,37,1.0,4.0,92,0.00,,SKC,0.09,VWS V13.01,2013-03-03 00:03:00,
2013-03-02 19:04:00,32.4,30.3,29.66,NNE,29,2.0,4.0,92,0.00,,SKC,0.09,VWS V13.01,2013-03-03 00:04:00,
2013-03-02 19:05:00,32.4,30.3,29.66,NNE,29,2.0,4.0,92,0.00,,SKC,0.09,VWS V13.01,2013-03-03 00:05:00,
2013-03-02 19:06:00,32.4,30.3,29.66,NNE,29,1.0,4.0,92,0.00,,SKC,0.09,VWS V13.01,2013-03-03 00:06:00,
2013-03-02 19:07:00,32.4,30.3,29.66,NE,38,2.0,4.0,92,0.01,,SKC,0.10,VWS V13.01,2013-03-03 00:07:00,
2013-03-02 19:08:00,32.4,30.3,29.66,NE,38,1.0,5.0,92,0.01,,SKC,0.10,VWS V13.01,2013-03-03 00:08:00,
2013-03-02 19:09:00,32.4,30.3,29.66,NE,39,0.0,5.0,92,0.01,,SKC,0.10,VWS V13.01,2013-03-03 00:09:00,
2013-03-02 19:10:00,32.4,30.3,29.66,NE,38,3.0,5.0,92,0.01,,SKC,0.10,VWS V13.01,2013-03-03 00:10:00,
2013-03-02 19:11:00,32.4,30.3,29.66,NNE,19,2.0,5.0,92,0.01,,SKC,0.10,VWS V13.01,2013-03-03 00:11:00,
2013-03-02 19:12:00,32.4,30.3,29.66,NNE,19,0.0,5.0,92,0.01,,SKC,0.10,VWS V13.01,2013-03-03 00:12:00,
2013-03-02 19:13:00,32.4,30.3,29.66,NNE,21,2.0,5.0,92,0.01,,SKC,0.10,VWS V13.01,2013-03-03 00:13:00,
2013-03-02 19:14:00,32.4,30.3,29.66,NNE,30,2.0,5.0,92,0.01,,SKC,0.10,VWS V13.01,2013-03-03 00:14:00,
2013-03-02 19:15:00,32.4,30.3,29.66,NNE,30,3.0,5.0,92,0.01,,SKC,0.10,VWS V13.01,2013-03-03 00:15:00,
2013-03-02 19:16:00,32.4,30.3,29.66,NNE,30,1.0,5.0,92,0.01,,SKC,0.10,VWS V13.01,2013-03-03 00:16:00,
2013-03-02 19:17:00,32.4,30.3,29.66,NNE,29,1.0,5.0,92,0.01,,SKC,0.10,VWS V13.01,2013-03-03 00:17:00,
2013-03-02 19:18:00,32.4,30.3,29.66,NNE,26,3.0,5.0,92,0.01,,SKC,0.10,VWS V13.01,2013-03-03 00:18:00,
2013-03-02 19:19:00,32.3,30.2,29.66,NNE,32,2.0,5.0,92,0.01,,SKC,0.10,VWS V13.01,2013-03-03 00:19:00,
2013-03-02 19:20:00,32.4,30.3,29.66,NNE,30,2.0,5.0,92,0.01,,SKC,0.10,VWS V13.01,2013-03-03 00:20:00,
2013-03-02 19:21:00,32.4,30.3,29.65,NNE,19,3.0,5.0,92,0.01,,SKC,0.10,VWS V13.01,2013-03-03 00:21:00,
2013-03-02 19:22:00,32.4,30.3,29.66,NNE,19,3.0,5.0,92,0.01,,SKC,0.10,VWS V13.01,2013-03-03 00:22:00,
2013-03-02 19:23:00,32.4,30.3,29.66,NNE,22,2.0,5.0,92,0.01,,SKC,0.10,VWS V13.01,2013-03-03 00:23:00,
2013-03-02 19:24:00,32.4,30.3,29.66,NNE,22,1.0,5.0,92,0.01,,SKC,0.10,VWS V13.01,2013-03-03 00:24:00,
2013-03-02 19:25:00,32.4,30.3,29.66,NNE,22,2.0,5.0,92,0.01,,SKC,0.10,VWS V13.01,2013-03-03 00:25:00,
2013-03-02 19:26:00,32.4,30.3,29.66,NNE,22,2.0,5.0,92,0.01,,SKC,0.10,VWS V13.01,2013-03-03 00:26:00,
2013-03-02 19:27:00,32.3,30.2,29.66,NNE,22,3.0,5.0,92,0.01,,SKC,0.10,VWS V13.01,2013-03-03 00:27:00,
2013-03-02 19:28:00,32.3,30.2,29.66,NE,38,1.0,5.0,92,0.01,,SKC,0.10,VWS V13.01,2013-03-03 00:28:00,
2013-03-02 19:29:00,32.3,30.5,29.66,NNE,25,3.0,5.0,93,0.01,,SKC,0.10,VWS V13.01,2013-03-03 00:29:00,
2013-03-02 19:30:00,32.3,30.2,29.65,NNE,25,1.0,5.0,92,0.01,,SKC,0.10,VWS V13.01,2013-03-03 00:30:00,
2013-03-02 19:31:00,32.4,30.6,29.65,NE,35,3.0,3.0,93,0.01,,SKC,0.10,VWS V13.01,2013-03-03 00:31:00,
2013-03-02 19:32:00,32.4,30.6,29.66,NNE,33,3.0,4.0,93,0.01,,SKC,0.10,VWS V13.01,2013-03-03 00:32:00,
2013-03-02 19:33:00,32.3,30.5,29.65,ENE,70,2.0,4.0,93,0.01,,SKC,0.10,VWS V13.01,2013-03-03 00:33:00,
2013-03-02 19:34:00,32.3,30.5,29.65,ENE,66,0.0,4.0,93,0.01,,SKC,0.10,VWS V13.01,2013-03-03 00:34:00,
2013-03-02 19:35:00,32.3,30.5,29.66,NE,56,2.0,6.0,93,0.01,,SKC,0.10,VWS V13.01,2013-03-03 00:35:00,
2013-03-02 19:36:00,32.3,30.5,29.66,NE,56,1.0,6.0,93,0.01,,SKC,0.10,VWS V13.01,2013-03-03 00:36:00,
2013-03-02 19:37:00,32.3,30.5,29.65,NE,56,2.0,6.0,93,0.01,,SKC,0.10,VWS V13.01,2013-03-03 00:37:00,
2013-03-02 19:38:00,32.3,30.5,29.65,NE,55,0.0,6.0,93,0.01,,SKC,0.10,VWS V13.01,2013-03-03 00:38:00,
2013-03-02 19:39:00,32.3,30.5,29.65,NE,55,0.0,6.0,93,0.01,,SKC,0.10,VWS V13.01,2013-03-03 00:39:00,
2013-03-02 19:40:00,32.3,30.5,29.66,NNE,17,6.0,9.0,93,0.01,,SKC,0.10,VWS V13.01,2013-03-03 00:40:00,
2013-03-02 19:41:00,32.3,30.5,29.66,North,10,3.0,9.0,93,0.01,,SKC,0.10,VWS V13.01,2013-03-03 00:41:00,
2013-03-02 19:42:00,32.3,30.5,29.66,NNW,329,5.0,9.0,93,0.01,,SKC,0.10,VWS V13.01,2013-03-03 00:42:00,
2013-03-02 19:43:00,32.3,30.5,29.66,NW,321,1.0,9.0,93,0.01,,SKC,0.10,VWS V13.01,2013-03-03 00:43:00,
2013-03-02 19:44:00,32.3,30.5,29.66,NW,321,0.0,9.0,93,0.01,,SKC,0.10,VWS V13.01,2013-03-03 00:44:00,
2013-03-02 19:45:00,32.3,30.5,29.66,NNE,24,3.0,9.0,93,0.01,,SKC,0.10,VWS V13.01,2013-03-03 00:45:00,
2013-03-02 19:46:00,32.3,30.5,29.66,NNE,24,0.0,9.0,93,0.01,,SKC,0.10,VWS V13.01,2013-03-03 00:46:00,
2013-03-02 19:47:00,32.3,30.5,29.66,NNE,24,1.0,9.0,93,0.01,,SKC,0.10,VWS V13.01,2013-03-03 00:47:00,
2013-03-02 19:48:00,32.3,30.5,29.66,NNE,22,3.0,9.0,93,0.01,,SKC,0.10,VWS V13.01,2013-03-03 00:48:00,
2013-03-02 19:49:00,32.3,30.5,29.66,NE,48,0.0,9.0,93,0.01,,SKC,0.10,VWS V13.01,2013-03-03 00:49:00,
2013-03-02 19:50:00,32.3,30.5,29.66,NE,48,1.0,9.0,93,0.01,,SKC,0.10,VWS V13.01,2013-03-03 00:50:00,
2013-03-02 19:51:00,32.3,30.5,29.66,NNE,32,4.0,9.0,93,0.01,,SKC,0.10,VWS V13.01,2013-03-03 00:51:00,
2013-03-02 19:52:00,32.3,30.5,29.66,NNE,16,2.0,9.0,93,0.01,,SKC,0.10,VWS V13.01,2013-03-03 00:52:00,
2013-03-02 19:53:00,32.3,30.5,29.65,NNE,22,3.0,9.0,93,0.01,,SKC,0.10,VWS V13.01,2013-03-03 00:53:00,
2013-03-02 19:54:00,32.3,30.2,29.65,NNE,25,3.0,9.0,92,0.01,,SKC,0.10,VWS V13.01,2013-03-03 00:54:00,
2013-03-02 19:55:00,32.2,30.1,29.65,NNE,26,2.0,9.0,92,0.01,,SKC,0.10,VWS V13.01,2013-03-03 00:55:00,
2013-03-02 19:56:00,32.2,30.1,29.65,North,11,2.0,9.0,92,0.01,,SKC,0.10,VWS V13.01,2013-03-03 00:56:00,
2013-03-02 19:57:00,32.2,30.1,29.65,NNE,14,2.0,9.0,92,0.01,,SKC,0.10,VWS V13.01,2013-03-03 00:57:00,
2013-03-02 19:58:00,32.2,30.1,29.66,ENE,73,3.0,9.0,92,0.01,,SKC,0.10,VWS V13.01,2013-03-03 00:58:00,
2013-03-02 19:59:00,32.2,30.1,29.66,NNE,14,7.0,9.0,92,0.01,,SKC,0.10,VWS V13.01,2013-03-03 00:59:00,
2013-03-02 20:00:00,32.2,30.1,29.66,North,355,4.0,9.0,92,0.01,,SKC,0.10,VWS V13.01,2013-03-03 01:00:00,
2013-03-02 20:01:00,32.2,30.1,29.66,North,355,0.0,3.0,92,0.01,,SKC,0.10,VWS V13.01,2013-03-03 01:01:00,
2013-03-02 20:02:00,32.1,30.0,29.66,North,355,1.0,3.0,92,0.01,,SKC,0.10,VWS V13.01,2013-03-03 01:02:00,
2013-03-02 20:03:00,32.1,30.0,29.66,NNE,32,3.0,7.0,92,0.01,,SKC,0.10,VWS V13.01,2013-03-03 01:03:00,
2013-03-02 20:04:00,32.1,30.0,29.66,North,10,1.0,7.0,92,0.01,,SKC,0.10,VWS V13.01,2013-03-03 01:04:00,
2013-03-02 20:05:00,32.1,30.0,29.66,North,10,1.0,7.0,92,0.01,,SKC,0.10,VWS V13.01,2013-03-03 01:05:00,
2013-03-02 20:06:00,32.1,30.3,29.66,North,10,0.0,7.0,93,0.01,,SKC,0.10,VWS V13.01,2013-03-03 01:06:00,
2013-03-02 20:07:00,32.1,30.3,29.66,NNE,27,2.0,7.0,93,0.01,,SKC,0.10,VWS V13.01,2013-03-03 01:07:00,
2013-03-02 20:08:00,32.1,30.3,29.66,NNE,26,1.0,7.0,93,0.01,,SKC,0.10,VWS V13.01,2013-03-03 01:08:00,
2013-03-02 20:09:00,32.1,30.3,29.66,NNE,26,0.0,7.0,93,0.01,,SKC,0.10,VWS V13.01,2013-03-03 01:09:00,
2013-03-02 20:10:00,32.1,30.3,29.66,NNE,26,2.0,7.0,93,0.01,,SKC,0.10,VWS V13.01,2013-03-03 01:10:00,
2013-03-02 20:11:00,32.1,30.3,29.66,NNE,25,2.0,7.0,93,0.01,,SKC,0.10,VWS V13.01,2013-03-03 01:11:00,
2013-03-02 20:12:00,32.1,30.3,29.66,NNE,25,1.0,7.0,93,0.01,,SKC,0.10,VWS V13.01,2013-03-03 01:12:00,
2013-03-02 20:13:00,32.1,30.3,29.66,NNE,23,2.0,7.0,93,0.01,,SKC,0.10,VWS V13.01,2013-03-03 01:13:00,
2013-03-02 20:14:00,32.1,30.3,29.66,NNE,23,3.0,7.0,93,0.01,,SKC,0.10,VWS V13.01,2013-03-03 01:14:00,
2013-03-02 20:15:00,32.1,30.3,29.65,NNE,22,3.0,7.0,93,0.01,,SKC,0.10,VWS V13.01,2013-03-03 01:15:00,
2013-03-02 20:16:00,32.1,30.3,29.65,North,9,6.0,7.0,93,0.01,,SKC,0.10,VWS V13.01,2013-03-03 01:16:00,
2013-03-02 20:17:00,32.0,30.2,29.66,North,360,4.0,7.0,93,0.01,,SKC,0.10,VWS V13.01,2013-03-03 01:17:00,
2013-03-02 20:18:00,32.1,30.3,29.66,NE,38,3.0,7.0,93,0.01,,SKC,0.10,VWS V13.01,2013-03-03 01:18:00,
2013-03-02 20:19:00,32.0,30.2,29.65,NE,38,0.0,7.0,93,0.01,,SKC,0.10,VWS V13.01,2013-03-03 01:19:00,
2013-03-02 20:20:00,32.0,30.2,29.65,NNE,24,2.0,7.0,93,0.01,,SKC,0.10,VWS V13.01,2013-03-03 01:20:00,
2013-03-02 20:21:00,32.0,30.2,29.65,NNE,33,4.0,7.0,93,0.01,,SKC,0.10,VWS V13.01,2013-03-03 01:21:00,
2013-03-02 20:22:00,32.0,30.2,29.65,NNE,19,1.0,7.0,93,0.01,,SKC,0.10,VWS V13.01,2013-03-03 01:22:00,
2013-03-02 20:23:00,32.0,30.2,29.66,NNE,17,3.0,7.0,93,0.01,,SKC,0.10,VWS V13.01,2013-03-03 01:23:00,
2013-03-02 20:24:00,32.0,30.2,29.65,NE,42,3.0,7.0,93,0.01,,SKC,0.10,VWS V13.01,2013-03-03 01:24:00,
2013-03-02 20:25:00,32.0,30.2,29.66,NNE,12,2.0,7.0,93,0.01,,SKC,0.10,VWS V13.01,2013-03-03 01:25:00,
2013-03-02 20:26:00,32.0,30.2,29.66,NNE,21,2.0,7.0,93,0.01,,SKC,0.10,VWS V13.01,2013-03-03 01:26:00,
2013-03-02 20:27:00,32.0,30.2,29.66,NNE,22,1.0,7.0,93,0.01,,SKC,0.10,VWS V13.01,2013-03-03 01:27:00,
2013-03-02 20:28:00,32.0,30.2,29.66,NNE,21,1.0,7.0,93,0.01,,SKC,0.10,VWS V13.01,2013-03-03 01:28:00,
2013-03-02 20:29:00,32.0,30.2,29.66,NNE,24,3.0,7.0,93,0.01,,SKC,0.10,VWS V13.01,2013-03-03 01:29:00,
2013-03-02 20:30:00,32.0,30.2,29.66,NNE,19,3.0,7.0,93,0.01,,SKC,0.10,VWS V13.01,2013-03-03 01:30:00,
2013-03-02 20:31:00,32.0,30.2,29.66,NNE,21,3.0,3.0,93,0.00,,SKC,0.10,VWS V13.01,2013-03-03 01:31:00,
2013-03-02 20:32:00,32.0,30.2,29.66,NNE,21,2.0,3.0,93,0.00,,SKC,0.10,VWS V13.01,2013-03-03 01:32:00,
2013-03-02 20:33:00,32.0,30.2,29.66,NNE,21,1.0,3.0,93,0.00,,SKC,0.10,VWS V13.01,2013-03-03 01:33:00,
2013-03-02 20:34:00,32.0,30.2,29.66,North,360,0.0,3.0,93,0.00,,SKC,0.10,VWS V13.01,2013-03-03 01:34:00,
2013-03-02 20:35:00,32.0,30.2,29.66,NNE,19,1.0,3.0,93,0.00,,SKC,0.10,VWS V13.01,2013-03-03 01:35:00,
2013-03-02 20:36:00,32.0,30.2,29.66,NNE,20,0.0,3.0,93,0.00,,SKC,0.10,VWS V13.01,2013-03-03 01:36:00,
2013-03-02 20:37:00,32.0,30.2,29.66,NNE,16,1.0,3.0,93,0.00,,SKC,0.10,VWS V13.01,2013-03-03 01:37:00,
2013-03-02 20:38:00,32.0,30.2,29.66,NNE,16,0.0,3.0,93,0.00,,SKC,0.10,VWS V13.01,2013-03-03 01:38:00,
2013-03-02 20:39:00,32.0,30.2,29.66,NNE,19,3.0,3.0,93,0.00,,SKC,0.10,VWS V13.01,2013-03-03 01:39:00,
2013-03-02 20:40:00,32.0,30.2,29.66,NNE,18,1.0,4.0,93,0.00,,SKC,0.10,VWS V13.01,2013-03-03 01:40:00,
2013-03-02 20:41:00,32.0,30.2,29.66,NNE,18,2.0,4.0,93,0.00,,SKC,0.10,VWS V13.01,2013-03-03 01:41:00,
2013-03-02 20:42:00,31.9,30.1,29.66,NE,36,2.0,6.0,93,0.00,,SKC,0.10,VWS V13.01,2013-03-03 01:42:00,
2013-03-02 20:43:00,31.9,30.1,29.66,NE,34,2.0,6.0,93,0.00,,SKC,0.10,VWS V13.01,2013-03-03 01:43:00,
2013-03-02 20:44:00,31.9,30.1,29.65,ENE,65,2.0,6.0,93,0.00,,SKC,0.10,VWS V13.01,2013-03-03 01:44:00,
2013-03-02 20:45:00,31.9,30.1,29.65,NE,46,0.0,6.0,93,0.00,,SKC,0.10,VWS V13.01,2013-03-03 01:45:00,
2013-03-02 20:46:00,31.9,30.1,29.66,NE,46,1.0,6.0,93,0.00,,SKC,0.10,VWS V13.01,2013-03-03 01:46:00,
2013-03-02 20:47:00,31.9,30.1,29.66,NE,49,3.0,6.0,93,0.00,,SKC,0.10,VWS V13.01,2013-03-03 01:47:00,
2013-03-02 20:48:00,31.9,30.1,29.65,ENE,59,2.0,6.0,93,0.00,,SKC,0.10,VWS V13.01,2013-03-03 01:48:00,
2013-03-02 20:49:00,31.9,30.1,29.65,NE,42,3.0,6.0,93,0.00,,SKC,0.10,VWS V13.01,2013-03-03 01:49:00,
2013-03-02 20:50:00,31.9,30.1,29.65,North,11,1.0,6.0,93,0.00,,SKC,0.10,VWS V13.01,2013-03-03 01:50:00,
2013-03-02 20:51:00,31.9,30.1,29.65,North,360,4.0,6.0,93,0.00,,SKC,0.10,VWS V13.01,2013-03-03 01:51:00,
2013-03-02 20:52:00,31.9,30.1,29.65,North,360,2.0,6.0,93,0.00,,SKC,0.10,VWS V13.01,2013-03-03 01:52:00,
2013-03-02 20:53:00,31.9,30.1,29.65,NE,39,3.0,6.0,93,0.00,,SKC,0.10,VWS V13.01,2013-03-03 01:53:00,
2013-03-02 20:54:00,31.9,30.1,29.65,North,5,1.0,6.0,93,0.00,,SKC,0.10,VWS V13.01,2013-03-03 01:54:00,
2013-03-02 20:55:00,31.9,30.1,29.65,North,360,2.0,6.0,93,0.00,,SKC,0.10,VWS V13.01,2013-03-03 01:55:00,
2013-03-02 20:56:00,31.9,30.1,29.65,North,360,1.0,6.0,93,0.00,,SKC,0.10,VWS V13.01,2013-03-03 01:56:00,
2013-03-02 20:57:00,31.9,30.1,29.65,North,5,0.0,6.0,93,0.00,,SKC,0.10,VWS V13.01,2013-03-03 01:57:00,
2013-03-02 20:58:00,31.9,30.1,29.65,North,360,0.0,6.0,93,0.00,,SKC,0.10,VWS V13.01,2013-03-03 01:58:00,
2013-03-02 20:59:00,31.9,30.1,29.65,North,5,1.0,6.0,93,0.00,,SKC,0.10,VWS V13.01,2013-03-03 01:59:00,
2013-03-02 21:00:00,31.9,30.1,29.65,North,5,3.0,6.0,93,0.00,,SKC,0.10,VWS V13.01,2013-03-03 02:00:00,
2013-03-02 21:01:00,31.9,30.1,29.65,NNE,13,0.0,3.0,93,0.00,,SKC,0.10,VWS V13.01,2013-03-03 02:01:00,
2013-03-02 21:02:00,31.9,30.1,29.65,NNE,13,0.0,3.0,93,0.00,,SKC,0.10,VWS V13.01,2013-03-03 02:02:00,
2013-03-02 21:03:00,31.9,30.1,29.65,NNE,14,0.0,3.0,93,0.00,,SKC,0.10,VWS V13.01,2013-03-03 02:03:00,
2013-03-02 21:04:00,31.9,30.1,29.65,NNE,14,1.0,3.0,93,0.00,,SKC,0.10,VWS V13.01,2013-03-03 02:04:00,
2013-03-02 21:05:00,31.9,30.1,29.65,NNE,14,2.0,3.0,93,0.00,,SKC,0.10,VWS V13.01,2013-03-03 02:05:00,
2013-03-02 21:06:00,31.9,30.1,29.65,NNE,13,3.0,3.0,93,0.00,,SKC,0.10,VWS V13.01,2013-03-03 02:06:00,
2013-03-02 21:07:00,31.9,30.1,29.65,NNE,14,0.0,4.0,93,0.00,,SKC,0.10,VWS V13.01,2013-03-03 02:07:00,
2013-03-02 21:08:00,31.9,30.1,29.65,North,355,1.0,4.0,93,0.00,,SKC,0.10,VWS V13.01,2013-03-03 02:08:00,
2013-03-02 21:09:00,31.9,30.1,29.65,North,355,1.0,4.0,93,0.00,,SKC,0.10,VWS V13.01,2013-03-03 02:09:00,
2013-03-02 21:10:00,31.9,30.1,29.65,North,355,2.0,4.0,93,0.00,,SKC,0.10,VWS V13.01,2013-03-03 02:10:00,
2013-03-02 21:11:00,31.9,30.1,29.65,North,360,1.0,4.0,93,0.00,,SKC,0.10,VWS V13.01,2013-03-03 02:11:00,
2013-03-02 21:12:00,31.9,30.1,29.65,North,360,0.0,4.0,93,0.00,,SKC,0.10,VWS V13.01,2013-03-03 02:12:00,
2013-03-02 21:13:00,31.9,30.1,29.65,North,360,2.0,4.0,93,0.00,,SKC,0.10,VWS V13.01,2013-03-03 02:13:00,
2013-03-02 21:14:00,31.9,30.1,29.65,North,360,0.0,4.0,93,0.00,,SKC,0.10,VWS V13.01,2013-03-03 02:14:00,
2013-03-02 21:15:00,31.9,30.1,29.65,NNE,24,4.0,4.0,93,0.00,,SKC,0.10,VWS V13.01,2013-03-03 02:15:00,
2013-03-02 21:16:00,31.9,30.1,29.65,NNE,18,3.0,4.0,93,0.00,,SKC,0.10,VWS V13.01,2013-03-03 02:16:00,
2013-03-02 21:17:00,31.9,30.1,29.65,NNE,33,2.0,5.0,93,0.00,,SKC,0.10,VWS V13.01,2013-03-03 02:17:00,
2013-03-02 21:18:00,31.9,30.1,29.65,NNE,33,2.0,5.0,93,0.00,,SKC,0.10,VWS V13.01,2013-03-03 02:18:00,
2013-03-02 21:19:00,31.9,30.1,29.65,NNE,33,3.0,5.0,93,0.00,,SKC,0.10,VWS V13.01,2013-03-03 02:19:00,
2013-03-02 21:20:00,31.9,30.1,29.65,NE,51,2.0,5.0,93,0.00,,SKC,0.10,VWS V13.01,2013-03-03 02:20:00,
2013-03-02 21:21:00,31.9,30.1,29.65,NE,51,1.0,5.0,93,0.00,,SKC,0.10,VWS V13.01,2013-03-03 02:21:00,
2013-03-02 21:22:00,31.9,30.1,29.65,NE,51,3.0,5.0,93,0.00,,SKC,0.10,VWS V13.01,2013-03-03 02:22:00,
2013-03-02 21:23:00,31.9,30.1,29.65,NE,49,1.0,5.0,93,0.00,,SKC,0.10,VWS V13.01,2013-03-03 02:23:00,
2013-03-02 21:24:00,31.9,30.1,29.65,NE,49,2.0,5.0,93,0.00,,SKC,0.10,VWS V13.01,2013-03-03 02:24:00,
2013-03-02 21:25:00,31.9,30.1,29.65,NNE,14,4.0,5.0,93,0.00,,SKC,0.10,VWS V13.01,2013-03-03 02:25:00,
2013-03-02 21:26:00,31.9,30.1,29.65,North,5,2.0,5.0,93,0.00,,SKC,0.10,VWS V13.01,2013-03-03 02:26:00,
2013-03-02 21:27:00,31.9,30.1,29.65,NNE,28,4.0,5.0,93,0.00,,SKC,0.10,VWS V13.01,2013-03-03 02:27:00,
2013-03-02 21:28:00,31.9,30.1,29.65,NNE,28,2.0,5.0,93,0.00,,SKC,0.10,VWS V13.01,2013-03-03 02:28:00,
2013-03-02 21:29:00,31.9,30.1,29.65,North,9,3.0,5.0,93,0.00,,SKC,0.10,VWS V13.01,2013-03-03 02:29:00,
2013-03-02 21:30:00,31.9,30.1,29.65,NNE,14,3.0,5.0,93,0.00,,SKC,0.10,VWS V13.01,2013-03-03 02:30:00,
2013-03-02 21:31:00,31.8,30.0,29.65,North,11,3.0,4.0,93,0.00,,SKC,0.10,VWS V13.01,2013-03-03 02:31:00,
2013-03-02 21:32:00,31.8,30.0,29.65,NNE,16,1.0,4.0,93,0.00,,SKC,0.10,VWS V13.01,2013-03-03 02:32:00,
2013-03-02 21:33:00,31.8,30.0,29.65,North,11,4.0,5.0,93,0.00,,SKC,0.10,VWS V13.01,2013-03-03 02:33:00,
2013-03-02 21:34:00,31.8,30.0,29.65,NNE,28,0.0,5.0,93,0.00,,SKC,0.10,VWS V13.01,2013-03-03 02:34:00,
2013-03-02 21:35:00,31.8,30.0,29.65,North,5,2.0,5.0,93,0.00,,SKC,0.10,VWS V13.01,2013-03-03 02:35:00,
2013-03-02 21:36:00,31.8,30.0,29.65,NE,52,3.0,5.0,93,0.00,,SKC,0.10,VWS V13.01,2013-03-03 02:36:00,
2013-03-02 21:37:00,31.8,30.0,29.65,North,360,1.0,5.0,93,0.00,,SKC,0.10,VWS V13.01,2013-03-03 02:37:00,
2013-03-02 21:38:00,31.8,30.0,29.65,North,360,1.0,5.0,93,0.00,,SKC,0.10,VWS V13.01,2013-03-03 02:38:00,
2013-03-02 21:39:00,31.8,30.0,29.65,NNE,26,3.0,5.0,93,0.00,,SKC,0.10,VWS V13.01,2013-03-03 02:39:00,
2013-03-02 21:40:00,31.8,30.0,29.65,NNE,32,0.0,5.0,93,0.00,,SKC,0.10,VWS V13.01,2013-03-03 02:40:00,
2013-03-02 21:41:00,31.8,30.0,29.65,NNE,18,2.0,5.0,93,0.00,,SKC,0.10,VWS V13.01,2013-03-03 02:41:00,
2013-03-02 21:42:00,31.8,30.0,29.65,NNE,18,2.0,5.0,93,0.00,,SKC,0.10,VWS V13.01,2013-03-03 02:42:00,
2013-03-02 21:43:00,31.8,30.0,29.65,NNE,24,2.0,5.0,93,0.00,,SKC,0.10,VWS V13.01,2013-03-03 02:43:00,
2013-03-02 21:44:00,31.8,30.0,29.65,NNE,24,1.0,5.0,93,0.00,,SKC,0.10,VWS V13.01,2013-03-03 02:44:00,
2013-03-02 21:45:00,31.8,30.0,29.65,NE,41,4.0,5.0,93,0.00,,SKC,0.10,VWS V13.01,2013-03-03 02:45:00,
2013-03-02 21:46:00,31.8,30.0,29.65,NNE,15,1.0,5.0,93,0.00,,SKC,0.10,VWS V13.01,2013-03-03 02:46:00,
2013-03-02 21:47:00,31.8,30.0,29.65,NNE,17,3.0,5.0,93,0.00,,SKC,0.10,VWS V13.01,2013-03-03 02:47:00,
2013-03-02 21:48:00,31.8,30.0,29.65,NNE,15,3.0,5.0,93,0.00,,SKC,0.10,VWS V13.01,2013-03-03 02:48:00,
2013-03-02 21:49:00,31.8,30.0,29.65,NNE,14,0.0,5.0,93,0.00,,SKC,0.10,VWS V13.01,2013-03-03 02:49:00,
2013-03-02 21:50:00,31.7,29.9,29.65,NNE,14,0.0,5.0,93,0.00,,SKC,0.10,VWS V13.01,2013-03-03 02:50:00,
2013-03-02 21:51:00,31.7,29.9,29.65,NNE,14,0.0,5.0,93,0.00,,SKC,0.10,VWS V13.01,2013-03-03 02:51:00,
2013-03-02 21:52:00,31.7,29.9,29.65,NNE,14,0.0,5.0,93,0.00,,SKC,0.10,VWS V13.01,2013-03-03 02:52:00,
2013-03-02 21:53:00,31.7,29.9,29.65,NNE,14,0.0,5.0,93,0.00,,SKC,0.10,VWS V13.01,2013-03-03 02:53:00,
2013-03-02 21:54:00,31.7,29.9,29.65,NNE,14,2.0,5.0,93,0.00,,SKC,0.10,VWS V13.01,2013-03-03 02:54:00,
2013-03-02 21:55:00,31.7,29.9,29.65,NNE,14,0.0,5.0,93,0.00,,SKC,0.10,VWS V13.01,2013-03-03 02:55:00,
2013-03-02 21:56:00,31.7,29.9,29.65,NNE,14,0.0,5.0,93,0.00,,SKC,0.10,VWS V13.01,2013-03-03 02:56:00,
2013-03-02 21:57:00,31.7,29.9,29.65,NNE,14,1.0,5.0,93,0.00,,SKC,0.10,VWS V13.01,2013-03-03 02:57:00,
2013-03-02 21:58:00,31.7,29.9,29.65,NNE,14,0.0,5.0,93,0.00,,SKC,0.10,VWS V13.01,2013-03-03 02:58:00,
2013-03-02 21:59:00,31.7,29.9,29.65,NNE,14,1.0,5.0,93,0.00,,SKC,0.10,VWS V13.01,2013-03-03 02:59:00,
2013-03-02 22:00:00,31.7,29.9,29.65,NNE,14,1.0,5.0,93,0.00,,SKC,0.10,VWS V13.01,2013-03-03 03:00:00,
2013-03-02 22:01:00,31.7,29.9,29.65,NNE,14,1.0,2.0,93,0.00,,SKC,0.10,VWS V13.01,2013-03-03 03:01:00,
2013-03-02 22:02:00,31.7,29.9,29.65,NNE,13,1.0,2.0,93,0.00,,SKC,0.10,VWS V13.01,2013-03-03 03:02:00,
2013-03-02 22:03:00,31.7,29.9,29.65,NNE,13,0.0,2.0,93,0.00,,SKC,0.10,VWS V13.01,2013-03-03 03:03:00,
2013-03-02 22:04:00,31.7,29.9,29.64,NNE,13,2.0,4.0,93,0.00,,SKC,0.10,VWS V13.01,2013-03-03 03:04:00,
2013-03-02 22:05:00,31.7,29.9,29.64,NNE,13,0.0,4.0,93,0.00,,SKC,0.10,VWS V13.01,2013-03-03 03:05:00,
2013-03-02 22:06:00,31.7,29.9,29.65,NNE,13,2.0,4.0,93,0.00,,SKC,0.10,VWS V13.01,2013-03-03 03:06:00,
2013-03-02 22:07:00,31.7,29.9,29.64,NNE,14,0.0,4.0,93,0.00,,SKC,0.10,VWS V13.01,2013-03-03 03:07:00,
2013-03-02 22:08:00,31.7,29.9,29.64,NNE,14,1.0,4.0,93,0.00,,SKC,0.10,VWS V13.01,2013-03-03 03:08:00,
2013-03-02 22:09:00,31.7,29.9,29.64,NNE,17,4.0,4.0,93,0.00,,SKC,0.10,VWS V13.01,2013-03-03 03:09:00,
2013-03-02 22:10:00,31.7,29.9,29.65,NNE,17,0.0,4.0,93,0.00,,SKC,0.10,VWS V13.01,2013-03-03 03:10:00,
2013-03-02 22:11:00,31.7,29.9,29.64,NNE,17,0.0,4.0,93,0.00,,SKC,0.10,VWS V13.01,2013-03-03 03:11:00,
2013-03-02 22:12:00,31.7,29.9,29.64,NNE,17,0.0,4.0,93,0.00,,SKC,0.10,VWS V13.01,2013-03-03 03:12:00,
2013-03-02 22:13:00,31.7,29.9,29.64,NNE,17,1.0,4.0,93,0.00,,SKC,0.10,VWS V13.01,2013-03-03 03:13:00,
2013-03-02 22:14:00,31.7,29.9,29.64,NNE,17,0.0,4.0,93,0.00,,SKC,0.10,VWS V13.01,2013-03-03 03:14:00,
2013-03-02 22:15:00,31.7,29.9,29.64,NNE,17,0.0,4.0,93,0.00,,SKC,0.10,VWS V13.01,2013-03-03 03:15:00,
2013-03-02 22:16:00,31.7,29.9,29.64,NNE,18,2.0,4.0,93,0.00,,SKC,0.10,VWS V13.01,2013-03-03 03:16:00,
2013-03-02 22:17:00,31.7,29.9,29.64,NNE,24,3.0,4.0,93,0.00,,SKC,0.10,VWS V13.01,2013-03-03 03:17:00,
2013-03-02 22:18:00,31.7,29.9,29.64,NNE,25,1.0,4.0,93,0.00,,SKC,0.10,VWS V13.01,2013-03-03 03:18:00,
2013-03-02 22:19:00,31.7,29.9,29.64,NNE,25,0.0,4.0,93,0.00,,SKC,0.10,VWS V13.01,2013-03-03 03:19:00,
2013-03-02 22:20:00,31.7,29.9,29.64,NNE,25,0.0,4.0,93,0.00,,SKC,0.10,VWS V13.01,2013-03-03 03:20:00,
2013-03-02 22:21:00,31.7,29.9,29.64,NNE,25,0.0,4.0,93,0.00,,SKC,0.10,VWS V13.01,2013-03-03 03:21:00,
2013-03-02 22:22:00,31.7,29.9,29.64,NNE,25,0.0,4.0,93,0.00,,SKC,0.10,VWS V13.01,2013-03-03 03:22:00,
2013-03-02 22:23:00,31.7,29.9,29.64,NNE,24,2.0,4.0,93,0.00,,SKC,0.10,VWS V13.01,2013-03-03 03:23:00,
2013-03-02 22:24:00,31.7,29.9,29.64,NNE,22,0.0,4.0,93,0.00,,SKC,0.10,VWS V13.01,2013-03-03 03:24:00,
2013-03-02 22:25:00,31.7,29.9,29.64,NNE,22,2.0,4.0,93,0.00,,SKC,0.10,VWS V13.01,2013-03-03 03:25:00,
2013-03-02 22:26:00,31.7,29.9,29.64,NNE,15,1.0,4.0,93,0.00,,SKC,0.10,VWS V13.01,2013-03-03 03:26:00,
2013-03-02 22:27:00,31.7,29.9,29.64,NNE,15,0.0,4.0,93,0.00,,SKC,0.10,VWS V13.01,2013-03-03 03:27:00,
2013-03-02 22:28:00,31.7,29.9,29.64,NNE,15,0.0,4.0,93,0.00,,SKC,0.10,VWS V13.01,2013-03-03 03:28:00,
2013-03-02 22:29:00,31.7,29.9,29.64,NNE,15,0.0,4.0,93,0.00,,SKC,0.10,VWS V13.01,2013-03-03 03:29:00,
2013-03-02 22:30:00,31.6,29.8,29.64,NNE,15,0.0,4.0,93,0.00,,SKC,0.10,VWS V13.01,2013-03-03 03:30:00,
2013-03-02 22:31:00,31.6,29.8,29.64,NNE,15,4.0,4.0,93,0.00,,SKC,0.10,VWS V13.01,2013-03-03 03:31:00,
2013-03-02 22:32:00,31.6,29.8,29.64,NNW,348,3.0,4.0,93,0.00,,SKC,0.10,VWS V13.01,2013-03-03 03:32:00,
2013-03-02 22:33:00,31.6,29.8,29.64,NNW,348,0.0,4.0,93,0.00,,SKC,0.10,VWS V13.01,2013-03-03 03:33:00,
2013-03-02 22:34:00,31.6,29.8,29.64,NNW,348,0.0,4.0,93,0.00,,SKC,0.10,VWS V13.01,2013-03-03 03:34:00,
2013-03-02 22:35:00,31.6,29.8,29.64,North,360,1.0,4.0,93,0.00,,SKC,0.10,VWS V13.01,2013-03-03 03:35:00,
2013-03-02 22:36:00,31.6,29.8,29.64,North,360,0.0,4.0,93,0.00,,SKC,0.10,VWS V13.01,2013-03-03 03:36:00,
2013-03-02 22:37:00,31.6,29.8,29.64,NNE,15,3.0,4.0,93,0.00,,SKC,0.10,VWS V13.01,2013-03-03 03:37:00,
2013-03-02 22:38:00,31.6,29.8,29.64,NE,43,1.0,4.0,93,0.00,,SKC,0.10,VWS V13.01,2013-03-03 03:38:00,
2013-03-02 22:39:00,31.6,29.8,29.64,NE,44,1.0,4.0,93,0.00,,SKC,0.10,VWS V13.01,2013-03-03 03:39:00,
2013-03-02 22:40:00,31.6,29.8,29.64,NE,43,1.0,4.0,93,0.00,,SKC,0.10,VWS V13.01,2013-03-03 03:40:00,
2013-03-02 22:41:00,31.6,29.8,29.64,NE,44,0.0,4.0,93,0.00,,SKC,0.10,VWS V13.01,2013-03-03 03:41:00,
2013-03-02 22:42:00,31.6,29.8,29.64,NE,44,0.0,4.0,93,0.00,,SKC,0.10,VWS V13.01,2013-03-03 03:42:00,
2013-03-02 22:43:00,31.6,29.8,29.64,NE,44,0.0,4.0,93,0.00,,SKC,0.10,VWS V13.01,2013-03-03 03:43:00,
2013-03-02 22:44:00,31.6,29.8,29.64,NE,42,0.0,4.0,93,0.00,,SKC,0.10,VWS V13.01,2013-03-03 03:44:00,
2013-03-02 22:45:00,31.6,29.8,29.64,NE,43,0.0,4.0,93,0.00,,SKC,0.10,VWS V13.01,2013-03-03 03:45:00,
2013-03-02 22:46:00,31.6,29.8,29.64,NE,43,1.0,4.0,93,0.00,,SKC,0.10,VWS V13.01,2013-03-03 03:46:00,
2013-03-02 22:47:00,31.6,29.8,29.64,NNE,22,2.0,4.0,93,0.00,,SKC,0.10,VWS V13.01,2013-03-03 03:47:00,
2013-03-02 22:48:00,31.6,29.8,29.64,NNE,24,3.0,4.0,93,0.00,,SKC,0.10,VWS V13.01,2013-03-03 03:48:00,
2013-03-02 22:49:00,31.6,29.8,29.64,NNE,24,0.0,4.0,93,0.00,,SKC,0.10,VWS V13.01,2013-03-03 03:49:00,
2013-03-02 22:50:00,31.6,29.8,29.64,NNE,24,0.0,4.0,93,0.00,,SKC,0.10,VWS V13.01,2013-03-03 03:50:00,
2013-03-02 22:51:00,31.6,29.8,29.64,NNE,23,0.0,4.0,93,0.00,,SKC,0.10,VWS V13.01,2013-03-03 03:51:00,
2013-03-02 22:52:00,31.6,29.8,29.64,NNE,24,4.0,4.0,93,0.00,,SKC,0.10,VWS V13.01,2013-03-03 03:52:00,
2013-03-02 22:53:00,31.6,29.8,29.64,NNE,24,1.0,4.0,93,0.00,,SKC,0.10,VWS V13.01,2013-03-03 03:53:00,
2013-03-02 22:54:00,31.6,29.8,29.64,NNE,24,0.0,4.0,93,0.00,,SKC,0.10,VWS V13.01,2013-03-03 03:54:00,
2013-03-02 22:55:00,31.6,29.8,29.64,NNE,24,0.0,4.0,93,0.00,,SKC,0.10,VWS V13.01,2013-03-03 03:55:00,
2013-03-02 22:56:00,31.6,29.8,29.64,NNE,24,0.0,4.0,93,0.00,,SKC,0.10,VWS V13.01,2013-03-03 03:56:00,
2013-03-02 22:57:00,31.6,29.8,29.64,NNE,24,1.0,4.0,93,0.00,,SKC,0.10,VWS V13.01,2013-03-03 03:57:00,
2013-03-02 22:58:00,31.6,29.8,29.64,NNE,25,2.0,4.0,93,0.00,,SKC,0.10,VWS V13.01,2013-03-03 03:58:00,
2013-03-02 22:59:00,31.6,29.8,29.63,NNE,24,1.0,4.0,93,0.00,,SKC,0.10,VWS V13.01,2013-03-03 03:59:00,
2013-03-02 23:00:00,31.6,29.8,29.63,NNE,24,0.0,4.0,93,0.00,,SKC,0.10,VWS V13.01,2013-03-03 04:00:00,
2013-03-02 23:01:00,31.6,29.8,29.63,NNE,24,0.0,0.0,93,0.00,,SKC,0.10,VWS V13.01,2013-03-03 04:01:00,
2013-03-02 23:02:00,31.6,29.8,29.63,NNE,24,0.0,0.0,93,0.00,,SKC,0.10,VWS V13.01,2013-03-03 04:02:00,
2013-03-02 23:03:00,31.6,29.8,29.63,NNE,24,0.0,0.0,93,0.00,,SKC,0.10,VWS V13.01,2013-03-03 04:03:00,
2013-03-02 23:04:00,31.6,29.8,29.63,NNE,24,2.0,3.0,93,0.00,,SKC,0.10,VWS V13.01,2013-03-03 04:04:00,
2013-03-02 23:05:00,31.6,29.8,29.63,NNE,24,0.0,3.0,93,0.00,,SKC,0.10,VWS V13.01,2013-03-03 04:05:00,
2013-03-02 23:06:00,31.6,29.8,29.63,NNE,24,1.0,3.0,93,0.00,,SKC,0.10,VWS V13.01,2013-03-03 04:06:00,
2013-03-02 23:07:00,31.6,29.8,29.63,NNE,24,2.0,3.0,93,0.00,,SKC,0.10,VWS V13.01,2013-03-03 04:07:00,
2013-03-02 23:08:00,31.6,29.8,29.63,NNE,24,2.0,3.0,93,0.00,,SKC,0.10,VWS V13.01,2013-03-03 04:08:00,
2013-03-02 23:09:00,31.6,29.8,29.63,North,5,0.0,3.0,93,0.00,,SKC,0.10,VWS V13.01,2013-03-03 04:09:00,
2013-03-02 23:10:00,31.6,29.8,29.63,North,5,0.0,3.0,93,0.00,,SKC,0.10,VWS V13.01,2013-03-03 04:10:00,
2013-03-02 23:11:00,31.6,29.8,29.63,North,360,0.0,3.0,93,0.00,,SKC,0.10,VWS V13.01,2013-03-03 04:11:00,
2013-03-02 23:12:00,31.6,29.8,29.63,North,5,1.0,3.0,93,0.00,,SKC,0.10,VWS V13.01,2013-03-03 04:12:00,
2013-03-02 23:13:00,31.6,29.8,29.63,North,360,0.0,3.0,93,0.00,,SKC,0.10,VWS V13.01,2013-03-03 04:13:00,
2013-03-02 23:14:00,31.6,29.8,29.63,North,360,0.0,3.0,93,0.00,,SKC,0.10,VWS V13.01,2013-03-03 04:14:00,
2013-03-02 23:15:00,31.5,29.7,29.63,North,5,2.0,3.0,93,0.00,,SKC,0.10,VWS V13.01,2013-03-03 04:15:00,
2013-03-02 23:16:00,31.6,29.8,29.63,North,5,0.0,3.0,93,0.00,,SKC,0.10,VWS V13.01,2013-03-03 04:16:00,
2013-03-02 23:17:00,31.5,29.7,29.63,North,5,2.0,3.0,93,0.00,,SKC,0.10,VWS V13.01,2013-03-03 04:17:00,
2013-03-02 23:18:00,31.6,29.8,29.63,North,5,1.0,3.0,93,0.00,,SKC,0.10,VWS V13.01,2013-03-03 04:18:00,
2013-03-02 23:19:00,31.6,29.8,29.63,North,5,2.0,3.0,93,0.00,,SKC,0.10,VWS V13.01,2013-03-03 04:19:00,
2013-03-02 23:20:00,31.5,29.7,29.63,North,360,0.0,3.0,93,0.00,,SKC,0.10,VWS V13.01,2013-03-03 04:20:00,
2013-03-02 23:21:00,31.5,29.7,29.63,North,5,0.0,3.0,93,0.00,,SKC,0.10,VWS V13.01,2013-03-03 04:21:00,
2013-03-02 23:22:00,31.5,29.7,29.63,North,11,1.0,3.0,93,0.00,,SKC,0.10,VWS V13.01,2013-03-03 04:22:00,
2013-03-02 23:23:00,31.5,29.7,29.63,NNE,12,2.0,3.0,93,0.00,,SKC,0.10,VWS V13.01,2013-03-03 04:23:00,
2013-03-02 23:24:00,31.5,29.7,29.63,NNE,13,2.0,3.0,93,0.00,,SKC,0.10,VWS V13.01,2013-03-03 04:24:00,
2013-03-02 23:25:00,31.5,29.7,29.63,NNE,13,0.0,3.0,93,0.00,,SKC,0.10,VWS V13.01,2013-03-03 04:25:00,
2013-03-02 23:26:00,31.5,30.0,29.63,NNE,13,2.0,3.0,94,0.00,,SKC,0.10,VWS V13.01,2013-03-03 04:26:00,
2013-03-02 23:27:00,31.5,30.0,29.63,NNE,13,2.0,3.0,94,0.00,,SKC,0.10,VWS V13.01,2013-03-03 04:27:00,
2013-03-02 23:28:00,31.5,30.0,29.63,NNE,13,1.0,3.0,94,0.00,,SKC,0.10,VWS V13.01,2013-03-03 04:28:00,
2013-03-02 23:29:00,31.5,30.0,29.63,NNE,13,0.0,3.0,94,0.00,,SKC,0.10,VWS V13.01,2013-03-03 04:29:00,
2013-03-02 23:30:00,31.5,30.0,29.62,NNE,13,0.0,3.0,94,0.00,,SKC,0.10,VWS V13.01,2013-03-03 04:30:00,
2013-03-02 23:31:00,31.5,30.0,29.63,NNE,13,0.0,0.0,94,0.00,,SKC,0.10,VWS V13.01,2013-03-03 04:31:00,
2013-03-02 23:32:00,31.5,30.0,29.63,NNE,13,2.0,3.0,94,0.00,,SKC,0.10,VWS V13.01,2013-03-03 04:32:00,
2013-03-02 23:33:00,31.5,30.0,29.63,NNE,26,2.0,3.0,94,0.00,,SKC,0.10,VWS V13.01,2013-03-03 04:33:00,
2013-03-02 23:34:00,31.5,30.0,29.63,NNE,26,0.0,3.0,94,0.00,,SKC,0.10,VWS V13.01,2013-03-03 04:34:00,
2013-03-02 23:35:00,31.5,30.0,29.63,NNE,25,2.0,3.0,94,0.00,,SKC,0.10,VWS V13.01,2013-03-03 04:35:00,
2013-03-02 23:36:00,31.5,30.0,29.63,NNE,26,1.0,3.0,94,0.00,,SKC,0.10,VWS V13.01,2013-03-03 04:36:00,
2013-03-02 23:37:00,31.5,30.0,29.63,NNE,26,0.0,3.0,94,0.00,,SKC,0.10,VWS V13.01,2013-03-03 04:37:00,
2013-03-02 23:38:00,31.5,30.0,29.63,NNE,25,1.0,3.0,94,0.00,,SKC,0.10,VWS V13.01,2013-03-03 04:38:00,
2013-03-02 23:39:00,31.5,30.0,29.63,North,350,2.0,4.0,94,0.00,,SKC,0.10,VWS V13.01,2013-03-03 04:39:00,
2013-03-02 23:40:00,31.5,30.0,29.63,North,349,1.0,4.0,94,0.00,,SKC,0.10,VWS V13.01,2013-03-03 04:40:00,
2013-03-02 23:41:00,31.5,30.0,29.63,North,349,0.0,4.0,94,0.00,,SKC,0.10,VWS V13.01,2013-03-03 04:41:00,
2013-03-02 23:42:00,31.5,30.0,29.63,North,349,0.0,4.0,94,0.00,,SKC,0.10,VWS V13.01,2013-03-03 04:42:00,
2013-03-02 23:43:00,31.5,30.0,29.63,North,349,1.0,4.0,94,0.00,,SKC,0.10,VWS V13.01,2013-03-03 04:43:00,
2013-03-02 23:44:00,31.5,30.0,29.63,North,355,0.0,4.0,94,0.00,,SKC,0.10,VWS V13.01,2013-03-03 04:44:00,
2013-03-02 23:45:00,31.5,30.0,29.63,North,355,3.0,4.0,94,0.00,,SKC,0.10,VWS V13.01,2013-03-03 04:45:00,
2013-03-02 23:46:00,31.5,30.0,29.63,North,355,1.0,4.0,94,0.00,,SKC,0.10,VWS V13.01,2013-03-03 04:46:00,
2013-03-02 23:47:00,31.5,30.0,29.63,North,355,4.0,4.0,94,0.00,,SKC,0.10,VWS V13.01,2013-03-03 04:47:00,
2013-03-02 23:48:00,31.5,30.0,29.62,North,360,0.0,4.0,94,0.00,,SKC,0.10,VWS V13.01,2013-03-03 04:48:00,
2013-03-02 23:49:00,31.5,30.0,29.63,North,360,1.0,4.0,94,0.00,,SKC,0.10,VWS V13.01,2013-03-03 04:49:00,
2013-03-02 23:50:00,31.5,30.0,29.63,North,360,0.0,4.0,94,0.00,,SKC,0.10,VWS V13.01,2013-03-03 04:50:00,
2013-03-02 23:51:00,31.5,30.0,29.63,North,360,1.0,4.0,94,0.00,,SKC,0.10,VWS V13.01,2013-03-03 04:51:00,
2013-03-02 23:52:00,31.5,30.0,29.63,North,360,0.0,4.0,94,0.00,,SKC,0.10,VWS V13.01,2013-03-03 04:52:00,
2013-03-02 23:53:00,31.5,30.0,29.63,North,360,0.0,4.0,94,0.00,,SKC,0.10,VWS V13.01,2013-03-03 04:53:00,
2013-03-02 23:54:00,31.5,30.0,29.63,North,360,0.0,4.0,94,0.00,,SKC,0.10,VWS V13.01,2013-03-03 04:54:00,
2013-03-02 23:55:00,31.5,30.0,29.62,North,360,0.0,4.0,94,0.00,,SKC,0.10,VWS V13.01,2013-03-03 04:55:00,
2013-03-02 23:56:00,31.5,30.0,29.62,North,360,0.0,4.0,94,0.00,,SKC,0.10,VWS V13.01,2013-03-03 04:56:00,
2013-03-02 23:57:00,31.5,30.0,29.62,North,360,0.0,4.0,94,0.00,,SKC,0.10,VWS V13.01,2013-03-03 04:57:00,
2013-03-02 23:58:00,31.5,30.0,29.62,North,360,0.0,4.0,94,0.00,,SKC,0.10,VWS V13.01,2013-03-03 04:58:00,
2013-03-02 23:59:00,31.5,30.0,29.62,North,360,0.0,4.0,94,0.00,,SKC,0.10,VWS V13.01,2013-03-03 04:59:00,